GFSSE_prec_cloud_003.txt.gz
Cloud_Cover
100 100 95 89 100 70 58 62 6 56 83 5 5 5 0 1 0 7 61 5 3 0 0 0 0 0 0 0 0 1 6 1 0 0 0 0 0 0 0 0 0 0 0
100 100 99 85 100 81 93 88 81 100 23 7 5 31 5 4 5 4 22 5 0 0 0 0 0 0 0 0 0 0 0 0 0 0 0 0 0 0 0 0 0 0 0
100 100 100 100 100 100 100 100 100 91 79 51 5 77 5 58 10 5 15 5 4 0 0 0 0 0 0 2 5 0 0 0 0 0 0 0 0 0 0 0 0 0 0
95 100 100 100 100 100 97 100 68 56 88 30 100 55 5 19 2 5 3 4 1 0 0 0 0 0 5 5 3 0 0 0 0 0 0 0 0 0 3 0 0 0 0
100 100 100 100 100 100 100 100 100 99 82 40 64 21 19 5 7 100 90 0 0 0 0 0 0 4 25 5 1 0 0 0 0 0 0 0 0 0 0 0 0 0 0
100 100 100 100 100 100 100 97 73 64 7 3 3 5 2 3 78 95 4 0 0 0 0 2 5 59 68 3 0 0 0 0 0 0 0 0 0 0 0 0 0 0 0
100 100 100 100 100 99 100 99 76 24 4 5 46 100 6 99 55 66 4 3 4 3 4 5 12 11 55 1 4 0 0 0 0 0 0 0 0 0 0 0 0 0 0
100 100 100 100 95 100 100 88 46 20 66 100 100 48 96 100 75 5 3 5 5 5 5 5 5 14 4 0 0 0 0 0 0 0 0 0 0 0 0 0 0 0 0
100 100 100 100 100 98 100 100 75 100 100 27 94 64 100 6 19 5 5 17 17 5 5 56 15 5 1 0 0 0 0 0 0 0 0 0 0 0 0 0 0 0 0
100 100 100 100 100 100 100 76 61 100 100 100 28 6 5 24 100 99 93 42 46 92 6 6 0 0 0 0 0 0 0 0 0 0 0 0 0 0 0 0 0 0 0
100 100 100 100 100 99 100 100 100 100 97 31 73 91 99 100 100 100 100 100 67 18 5 0 2 0 0 0 0 0 0 0 0 0 0 0 0 0 0 0 0 0 0
100 100 100 100 100 100 100 100 47 98 100 100 99 100 100 100 100 100 28 24 27 0 0 5 0 0 0 0 0 0 0 0 0 0 0 0 0 0 0 0 0 0 0
100 100 100 100 100 100 100 41 99 100 100 100 100 100 100 100 100 100 16 0 0 0 0 0 0 0 0 0 0 0 0 0 0 0 0 0 0 0 0 0 0 0 0
100 100 100 100 79 100 98 100 100 100 100 100 100 100 100 100 36 5 5 2 0 5 5 5 0 0 0 0 0 0 0 0 0 0 0 0 0 0 0 0 0 0 0
100 100 100 100 98 100 100 100 100 100 100 100 100 100 100 100 88 41 5 16 91 5 35 5 5 2 0 0 0 0 0 0 0 0 0 0 0 0 0 0 0 0 0
100 93 82 100 100 100 100 100 100 100 100 100 100 100 100 100 100 47 100 100 73 5 6 7 5 5 4 0 0 0 0 0 0 0 0 0 2 3 1 0 0 0 0
43 95 100 100 100 100 100 100 100 100 100 100 100 100 100 100 100 99 100 100 30 17 94 8 45 66 34 0 0 0 0 0 0 0 0 0 0 0 1 5 0 0 0
88 100 100 93 100 100 100 100 100 100 100 100 100 100 100 100 100 100 98 100 100 100 69 100 57 58 4 5 5 0 0 3 4 1 2 5 5 5 0 0 3 0 0
78 80 100 98 92 100 100 100 100 100 100 100 100 100 100 100 100 100 100 100 100 100 100 100 48 38 5 5 1 1 2 1 1 5 5 5 8 6 8 5 5 5 2
30 53 70 84 87 58 100 100 70 100 100 100 100 100 100 100 100 100 100 99 72 89 90 9 25 8 1 2 0 0 0 0 0 4 5 5 7 16 23 17 16 53 10
53 25 72 41 82 22 19 4 58 100 99 19 17 5 3 1 4 5 44 5 5 5 1 5 5 5 7 8 5 5 0 0 0 0 0 0 5 5 5 5 0 1 2
49 93 59 41 9 9 64 0 0 0 0 0 0 0 0 0 2 0 0 0 0 4 6 27 7 7 5 2 2 4 2 1 1 0 0 0 0 0 0 0 0 2 4
14 4 3 3 63 5 1 1 0 0 0 0 0 0 0 0 0 0 0 5 5 9 19 17 5 0 0 0 0 0 0 0 5 0 0 2 2 0 3 4 1 0 1
93 5 16 32 34 1 4 0 0 0 0 0 0 0 0 0 0 0 5 5 5 5 1 0 0 0 0 0 0 5 0 4 0 0 0 0 0 0 0 5 0 0 5
92 30 44 5 38 0 0 0 0 0 0 0 0 0 0 0 3 5 5 5 5 0 0 0 0 0 9 8 86 92 60 50 5 3 0 0 0 0 3 4 4 0 0
82 52 0 5 5 5 5 5 4 1 2 3 5 0 2 3 0 0 0 0 0 1 3 58 8 63 31 5 80 45 7 49 96 78 5 2 0 0 0 1 4 0 0

GFSSE_prec_cloud_006.txt.gz
Cloud_Cover
100 89 100 97 97 100 100 100 99 55 64 5 53 86 66 5 6 9 5 5 7 29 5 2 0 0 0 0 0 0 0 0 0 0 0 0 0 0 0 0 0 3 0
99 100 100 100 100 100 100 100 100 100 99 100 100 100 100 39 21 5 8 93 5 31 0 0 0 0 0 0 0 0 0 0 3 0 0 0 0 0 0 0 0 0 0
100 100 100 100 100 94 99 99 100 100 86 97 99 98 92 54 82 63 100 70 16 5 0 0 3 0 0 0 0 0 0 4 3 0 0 0 1 0 0 0 0 0 0
100 100 93 99 100 100 100 68 91 72 88 70 95 94 27 82 28 50 30 2 3 0 5 0 1 0 0 0 0 0 1 3 0 0 0 0 15 0 0 0 0 0 0
100 100 99 100 100 100 100 99 100 96 100 100 100 22 71 84 34 5 8 6 3 3 3 0 0 0 0 4 2 1 2 1 0 0 0 0 0 13 0 0 0 0 0
100 100 100 100 100 100 100 100 100 100 100 96 90 20 5 1 96 6 70 20 3 5 0 0 0 4 4 5 1 5 1 2 0 0 0 0 0 0 0 0 0 0 0
100 100 100 100 100 100 100 98 100 100 29 4 51 82 97 4 8 58 34 5 4 4 5 17 5 5 5 4 0 0 0 0 0 0 0 0 0 0 0 0 0 0 0
100 100 100 100 100 100 100 100 87 24 94 93 100 85 71 96 95 19 6 5 23 6 8 24 5 5 6 5 5 0 0 0 0 0 0 0 0 0 0 0 0 0 0
100 100 100 100 100 100 100 100 100 95 100 100 60 95 100 76 100 5 5 5 78 84 50 5 18 10 5 5 0 0 0 0 0 0 0 0 0 0 0 0 0 0 0
100 100 100 100 99 100 93 100 100 100 100 100 100 100 100 86 74 80 80 83 5 5 5 5 46 2 3 3 4 0 0 0 0 0 0 0 0 0 0 0 0 0 0
100 100 100 100 100 100 100 100 100 100 100 100 100 100 63 85 48 100 100 98 14 5 5 5 3 1 4 0 0 0 0 0 0 0 0 0 0 0 0 0 0 0 0
100 100 100 100 100 100 100 100 100 100 100 100 100 69 100 100 100 100 46 8 5 5 12 5 1 5 0 0 0 0 0 0 0 0 0 0 0 0 0 0 0 0 0
100 100 100 100 79 86 100 100 100 100 100 100 100 100 100 100 51 97 100 78 29 22 5 0 1 0 0 0 0 0 0 0 0 0 0 0 0 0 0 0 0 0 0
100 100 100 100 100 100 100 100 100 100 100 100 100 100 90 97 100 100 98 85 5 5 5 5 2 0 0 0 0 0 0 0 0 0 0 0 0 0 0 0 0 0 0
90 100 100 100 100 100 100 100 100 100 100 100 99 76 83 94 100 100 100 83 90 100 12 6 66 28 1 25 90 0 0 0 0 0 0 0 0 0 1 5 0 0 0
100 100 100 100 100 100 99 99 95 92 100 100 100 100 100 100 100 100 100 91 63 100 65 84 89 82 98 98 72 5 3 3 4 5 0 0 0 0 0 2 5 0 0
82 94 100 62 72 70 44 96 100 100 100 100 100 100 82 74 99 100 100 100 95 98 98 100 100 100 100 100 44 7 5 4 4 0 0 0 0 0 0 0 0 0 0
100 68 68 44 98 99 100 98 100 100 100 100 100 100 100 100 100 100 100 100 100 100 100 100 100 100 79 37 5 5 5 5 5 3 2 1 0 0 0 1 0 0 3
57 88 75 94 90 91 97 97 100 100 100 100 100 100 86 94 99 100 100 100 100 100 98 20 4 4 5 2 5 5 46 37 5 5 5 5 4 3 4 2 4 0 0
95 99 52 44 98 44 25 51 97 100 99 74 60 5 12 88 100 99 10 5 16 6 0 0 2 4 5 5 1 2 5 5 5 5 5 5 5 6 5 5 5 5 5
54 56 62 55 17 5 11 16 12 8 3 5 5 0 0 0 0 0 0 0 0 0 0 4 5 5 5 4 5 4 1 5 78 100 100 65 54 62 94 44 20 5 5
5 5 7 46 21 5 5 5 5 4 0 0 0 0 0 0 0 0 0 0 0 0 5 5 5 5 5 5 12 71 90 69 8 6 17 5 5 17 5 5 5 5 5
76 67 60 5 5 6 73 0 0 0 0 0 2 2 0 0 0 0 0 0 0 5 5 0 3 5 5 5 34 5 2 0 0 0 2 3 5 4 4 0 5 4 0
5 5 5 45 17 6 0 0 0 5 3 5 5 5 5 4 0 0 0 0 0 0 0 1 5 5 2 0 2 4 5 4 5 5 5 75 5 2 3 2 5 0 0
5 7 77 56 10 0 5 5 5 5 5 5 5 5 5 5 5 0 0 0 0 0 1 0 0 2 5 5 5 4 5 5 6 62 32 90 90 43 5 5 5 5 3
5 5 7 0 0 5 5 5 5 5 5 22 5 5 5 5 1 0 0 0 0 0 1 16 5 18 20 100 75 5 24 84 97 100 94 46 5 1 5 5 5 5 5

GFSSE_prec_cloud_009.txt.gz
Cloud_Cover
100 98 68 61 80 91 97 64 14 30 52 68 100 100 100 100 100 40 41 11 32 12 5 2 2 1 1 0 0 0 0 0 0 0 0 0 0 0 0 0 0 18 0
100 79 100 96 100 100 68 12 13 5 5 7 5 17 64 100 60 12 9 5 13 7 96 1 1 0 0 0 0 0 0 0 0 0 0 0 0 0 0 0 0 0 0
98 100 100 100 100 90 90 42 18 22 5 5 9 11 92 6 7 15 92 82 100 54 100 96 3 0 0 0 0 0 0 0 0 0 0 65 69 0 0 0 0 0 0
100 100 100 100 100 72 69 21 58 75 62 20 77 87 100 98 98 95 100 100 67 78 6 2 0 0 0 0 0 0 0 0 0 0 0 0 66 0 0 0 0 0 0
100 100 100 100 100 100 96 86 86 29 76 91 100 83 82 5 7 25 15 7 3 4 5 4 2 1 2 0 2 0 0 0 0 1 0 0 5 0 0 0 0 0 0
87 100 100 100 100 100 100 100 87 97 62 100 92 100 100 29 8 24 6 10 36 35 5 8 3 2 5 24 1 1 5 5 4 0 0 0 0 0 0 0 0 0 0
100 100 100 100 100 100 100 100 100 100 90 98 100 97 71 62 59 72 85 100 21 24 53 48 4 100 6 3 5 5 6 2 5 0 0 0 0 0 0 0 0 0 0
100 100 100 100 100 100 100 100 100 100 100 100 100 100 85 100 100 100 100 91 100 98 5 15 50 31 70 10 5 5 5 1 3 0 0 0 0 0 0 0 0 0 0
100 100 100 100 100 100 100 100 100 100 100 100 100 100 100 100 98 100 77 96 100 97 88 92 75 5 15 5 5 5 5 4 5 0 2 0 0 0 0 0 0 0 0
100 100 100 100 100 100 100 100 100 100 100 100 100 100 100 100 100 100 100 82 98 100 100 100 5 9 5 5 9 5 5 5 1 2 0 0 0 0 0 0 0 0 0
100 100 100 100 100 100 100 100 100 100 100 100 100 100 100 99 100 100 100 100 100 100 99 64 91 5 5 4 2 3 5 0 0 0 2 0 0 0 0 0 0 0 0
100 100 100 100 100 100 100 100 100 100 100 100 100 100 100 100 100 100 100 100 100 100 42 13 5 4 2 0 1 5 2 1 0 0 0 0 0 0 0 0 0 0 0
100 100 100 100 100 100 100 100 100 100 100 100 100 100 100 100 100 100 100 98 66 35 22 6 18 5 3 4 5 0 0 0 0 0 0 5 0 0 0 0 0 0 0
100 100 100 100 100 100 100 100 100 100 100 100 100 100 100 100 100 100 100 100 83 100 10 21 29 5 6 5 3 4 0 0 4 5 2 10 0 0 0 0 0 0 0
92 100 98 100 100 100 100 98 100 100 100 100 100 100 100 100 100 100 100 93 100 96 98 100 80 96 67 5 31 17 29 100 100 100 38 4 0 0 0 0 0 0 0
38 96 98 100 68 99 99 100 100 100 100 100 100 100 100 99 92 100 81 68 94 96 78 93 84 87 89 100 99 100 100 100 100 52 3 0 0 0 0 0 0 0 0
100 100 90 96 100 100 100 100 100 100 100 100 100 100 100 100 97 100 100 100 100 99 96 100 100 100 100 100 100 100 47 4 5 5 5 5 5 5 7 5 0 0 0
100 100 100 100 100 96 39 81 100 88 98 100 100 100 100 100 98 96 99 82 26 48 54 81 88 84 87 68 81 56 91 6 5 5 5 33 54 18 32 18 14 4 0
100 100 100 100 89 80 100 100 88 37 10 16 16 73 41 28 25 3 0 0 0 0 0 0 0 0 2 0 5 4 4 0 5 5 5 5 83 91 98 8 41 4 0
56 40 49 64 72 98 25 7 23 62 74 62 68 71 10 3 0 0 0 0 0 0 0 1 0 0 1 4 5 5 0 0 0 0 18 13 71 77 42 98 12 54 100
26 16 16 8 49 80 47 17 36 100 64 10 5 0 0 0 0 0 0 0 0 0 0 0 5 5 5 0 2 5 5 0 0 1 46 64 95 74 96 10 80 90 47
60 88 80 61 83 90 89 36 5 2 0 0 0 0 0 5 2 0 0 0 0 0 0 1 5 5 5 0 0 5 5 70 11 5 5 3 0 27 53 98 44 35 70
59 81 93 42 8 54 64 19 0 0 0 1 2 2 3 0 2 3 0 0 0 0 4 0 5 5 5 5 5 5 5 5 5 4 4 2 2 19 100 68 32 35 97
100 31 5 5 5 5 4 0 0 9 22 3 5 5 5 5 5 5 4 0 0 2 2 4 5 4 5 5 5 6 12 30 22 5 4 10 14 8 35 5 72 12 6
5 5 6 5 5 5 0 0 0 4 5 6 5 5 5 5 5 5 0 0 0 0 4 5 5 5 5 6 22 67 17 55 55 12 32 85 84 95 80 99 100 6 5
5 5 5 5 5 0 0 0 3 5 12 98 64 16 5 5 4 0 0 0 0 0 5 5 81 47 94 92 100 76 9 69 73 98 93 50 79 67 100 57 32 73 34

GFSSE_prec_cloud_012.txt.gz
Cloud_Cover
100 100 100 97 90 80 75 31 5 14 48 5 5 5 5 1 3 0 4 5 4 2 3 5 20 42 5 5 1 4 5 5 1 0 0 0 0 0 0 0 0 0 0
42 93 100 100 100 75 86 87 5 5 5 5 5 5 5 5 5 5 5 4 5 4 40 10 5 20 94 34 25 1 0 0 0 0 0 2 31 0 0 0 0 0 0
100 100 100 97 94 99 98 100 17 10 13 88 12 40 3 5 34 63 91 9 37 95 66 28 58 50 5 10 3 0 0 0 0 0 0 40 94 0 0 0 0 0 0
100 100 100 79 36 88 100 90 100 97 100 100 48 16 66 52 65 100 56 25 14 6 5 2 4 5 5 2 1 0 0 1 4 5 2 94 0 0 0 0 0 0 0
49 98 100 52 40 83 100 100 96 100 100 100 100 100 100 100 100 100 10 10 95 6 16 5 40 5 0 8 3 1 3 14 0 0 0 0 0 0 0 0 0 0 0
86 63 91 81 100 100 100 100 100 100 100 100 100 100 100 100 100 100 80 99 76 34 100 100 100 67 20 67 5 100 10 5 4 0 0 0 0 0 0 0 0 0 0
47 100 100 100 100 100 100 100 100 100 100 100 100 100 100 100 74 100 100 95 90 100 100 100 100 43 92 92 100 17 95 32 4 11 6 5 0 0 0 0 0 0 0
100 100 100 100 100 100 100 100 100 100 100 100 100 100 100 100 93 100 100 100 100 100 100 100 100 100 100 100 100 98 5 5 2 6 98 6 0 0 0 0 0 0 0
100 100 100 100 100 100 100 100 100 100 100 100 100 100 100 100 100 100 96 100 100 100 100 99 86 100 100 100 73 5 5 5 5 6 4 4 0 0 0 0 0 0 0
100 100 100 100 100 100 100 100 100 100 100 100 100 100 100 100 100 100 100 100 100 100 100 100 100 98 100 33 53 5 5 3 0 3 0 0 0 0 0 0 0 0 0
100 100 100 100 100 100 100 100 100 100 100 100 100 100 100 100 100 100 100 100 100 100 100 100 100 93 22 26 91 5 5 3 3 0 1 0 0 1 0 0 0 0 0
100 100 100 100 100 100 100 100 100 100 100 100 100 100 100 95 96 100 100 100 100 100 100 91 99 100 39 5 5 4 5 1 0 0 0 0 0 0 0 0 0 0 0
100 100 100 100 100 100 100 100 100 100 100 100 100 100 100 100 100 100 100 100 100 100 86 64 10 100 71 32 23 8 5 3 0 0 0 3 0 0 0 0 19 0 0
100 100 100 100 100 100 100 100 100 100 100 100 100 100 100 100 100 100 100 100 100 97 100 100 100 97 52 12 36 5 57 12 1 3 0 0 2 3 12 19 40 2 0
100 100 100 100 100 100 100 100 100 100 100 100 100 100 100 100 100 100 100 96 76 51 67 100 100 46 5 5 4 44 19 87 38 38 46 19 41 94 95 50 0 0 0
100 100 100 100 100 100 100 100 100 100 100 100 100 100 100 100 100 100 71 93 100 100 100 98 100 86 86 50 33 70 100 97 96 100 100 100 78 79 5 5 4 1 0
94 75 92 100 100 100 100 100 100 100 100 100 100 100 100 87 90 71 88 15 30 37 39 92 22 2 0 1 0 0 3 0 0 0 0 0 5 5 99 100 5 5 5
5 5 57 100 100 100 100 100 100 100 90 98 98 92 60 92 58 28 14 5 5 5 2 0 0 0 0 0 0 0 0 0 0 0 4 5 5 10 39 37 100 74 9
100 100 100 100 100 100 100 100 98 82 90 64 100 100 100 88 43 10 5 4 0 0 0 0 0 0 0 0 0 0 0 0 0 0 0 0 1 30 80 100 92 89 94
73 99 100 100 100 100 98 100 99 96 100 100 95 99 87 19 6 2 0 0 0 0 0 0 0 0 0 4 0 0 0 0 0 0 0 2 6 10 61 90 95 95 8
24 5 6 8 81 68 80 100 100 77 66 38 44 30 4 1 0 0 0 0 0 0 0 0 0 0 0 0 0 0 0 0 0 0 0 0 0 6 86 100 73 33 58
6 51 24 16 18 46 83 6 5 5 6 4 0 0 0 0 0 0 0 0 0 0 0 0 0 0 0 5 0 0 0 0 0 0 0 0 0 3 6 34 10 34 30
100 100 49 100 5 23 5 5 5 0 0 0 0 0 0 3 4 2 0 0 0 0 0 0 0 0 5 5 2 3 2 4 5 0 0 0 1 2 0 0 8 99 79
100 100 52 94 25 5 5 5 1 0 0 0 0 4 4 5 5 5 4 0 0 0 0 0 0 0 2 5 5 4 5 9 5 2 1 0 0 4 27 5 5 32 20
100 100 100 31 5 5 5 5 0 0 0 0 4 5 5 8 41 34 5 0 0 0 0 0 2 5 5 5 5 5 6 56 8 12 2 0 0 0 0 100 80 4 1
89 28 11 0 5 5 5 2 0 0 0 0 5 21 90 14 5 5 5 5 5 5 5 3 5 5 5 22 8 89 92 74 87 37 5 1 0 0 0 14 46 20 2

GFSSE_prec_cloud_015.txt.gz
Cloud_Cover
56 48 42 61 65 84 100 97 99 100 7 25 49 5 5 49 20 5 5 1 5 4 4 0 0 3 5 0 0 4 4 2 100 2 0 0 0 0 0 0 0 0 0
94 100 100 100 100 100 89 97 100 98 91 79 92 15 5 28 66 14 70 5 5 5 5 8 5 5 5 9 4 0 0 0 0 0 0 56 0 0 0 0 0 0 0
71 100 100 100 100 91 99 100 100 98 93 100 91 32 56 100 100 100 84 23 14 100 96 7 5 0 0 0 0 0 0 0 0 0 10 3 5 5 2 0 0 0 0
100 100 100 100 100 100 100 100 100 100 68 96 100 100 100 100 100 100 100 71 100 100 100 88 3 8 5 3 4 5 53 24 5 24 85 99 5 0 0 0 0 0 0
31 91 100 70 72 99 100 100 100 100 71 100 98 100 100 100 100 100 100 100 100 100 99 72 64 90 4 7 63 100 100 75 83 64 98 49 94 2 0 0 0 0 0
85 100 57 36 40 100 100 100 100 100 100 99 100 100 100 100 100 100 100 100 80 99 91 98 99 5 84 100 23 29 95 100 100 10 72 54 2 4 0 0 0 0 0
100 100 91 99 100 100 100 100 100 100 100 100 100 100 100 100 100 100 100 100 100 100 98 98 100 100 52 99 100 100 100 100 96 89 0 5 4 5 4 0 1 1 0
100 100 100 100 100 100 100 100 100 100 100 100 100 100 100 100 100 100 100 100 100 100 100 100 100 100 100 100 100 100 98 76 18 100 37 5 5 5 5 4 0 0 0
100 100 100 100 100 100 100 100 100 100 100 100 100 100 100 100 100 100 100 100 100 100 89 100 100 100 100 100 55 100 94 100 100 85 7 5 3 5 5 5 0 0 0
100 100 100 100 100 100 100 100 100 100 100 100 100 100 100 100 100 100 100 100 100 100 100 100 100 8 100 100 100 100 99 83 99 14 8 5 5 5 5 3 0 0 0
100 100 100 100 100 100 100 100 100 100 100 100 100 100 100 100 100 100 100 100 99 100 100 100 20 100 100 100 100 100 97 52 87 23 5 5 5 1 0 0 3 0 0
100 100 100 100 100 100 100 100 100 100 100 100 100 100 100 100 100 100 100 100 100 100 91 100 100 100 100 100 94 100 50 26 5 12 64 5 0 2 4 5 5 0 0
100 100 100 100 100 100 100 100 100 100 100 100 100 100 100 100 100 100 100 100 100 100 100 100 75 28 100 100 100 99 54 6 21 5 3 2 2 0 0 0 4 1 0
100 100 100 100 100 100 100 100 100 100 100 100 100 100 100 100 100 100 100 100 100 100 100 100 100 100 100 100 99 81 76 7 7 5 1 4 10 3 0 4 0 26 2
100 100 100 100 100 100 100 100 100 100 100 100 100 100 100 100 100 100 100 100 100 100 100 100 100 100 100 100 26 2 0 4 3 5 5 0 0 0 8 4 2 27 59
100 100 100 100 100 100 100 100 100 100 100 100 100 100 100 100 100 100 100 100 100 100 100 95 100 100 32 2 0 2 5 5 0 0 0 0 0 0 0 4 4 46 12
100 100 100 100 100 100 100 100 100 100 100 100 100 100 100 100 100 100 100 100 100 100 100 58 11 6 3 2 0 0 0 0 0 0 0 0 0 4 5 5 5 5 5
13 76 92 100 100 100 100 100 100 100 100 100 100 100 100 100 100 100 100 91 53 40 29 4 0 0 0 0 0 0 0 0 0 0 0 0 2 5 4 4 5 15 5
45 16 37 80 100 100 100 100 100 100 100 100 100 100 100 100 100 100 100 91 14 5 5 5 5 2 0 0 0 0 0 0 0 0 0 0 0 0 4 19 40 40 75
87 55 10 29 100 100 100 100 100 100 96 99 94 91 100 95 100 89 70 29 5 5 4 0 0 0 0 0 0 0 0 0 0 0 0 0 0 3 5 58 60 91 99
100 100 100 69 85 45 36 100 100 100 100 100 100 100 100 65 5 3 5 5 1 0 0 0 0 0 0 0 0 0 0 0 0 0 0 0 0 0 0 4 85 87 100
80 100 92 5 12 68 62 34 32 17 18 54 25 14 7 5 4 0 0 1 0 0 0 0 0 0 0 0 0 0 0 0 0 1 3 5 5 5 5 1 78 94 65
4 10 26 13 26 39 92 18 6 15 5 4 1 0 0 0 2 1 4 0 0 0 0 0 0 0 0 0 1 3 0 1 2 3 5 57 82 73 4 0 0 2 4
2 2 5 4 70 14 83 18 6 2 0 0 0 0 0 1 5 5 5 5 2 0 0 0 0 0 0 0 4 5 5 5 5 5 4 5 4 0 0 0 9 82 14
73 100 100 100 100 36 0 5 5 5 2 0 0 0 0 5 5 5 5 89 63 2 0 0 0 0 1 4 5 37 46 5 5 5 5 0 0 0 0 0 0 5 5
99 100 100 100 100 7 3 4 5 5 5 2 0 2 5 5 5 5 7 61 2 2 1 0 0 1 5 9 59 8 4 5 5 5 2 0 0 0 0 0 0 0 0

GFSSE_prec_cloud_018.txt.gz
Cloud_Cover
100 81 68 5 54 52 5 97 100 98 89 74 98 100 63 96 5 15 24 5 5 5 5 2 1 0 0 0 0 0 0 0 0 0 0 1 0 0 0 0 0 0 6
89 25 4 71 98 62 100 100 100 100 99 100 100 100 100 100 100 58 77 97 85 29 5 5 5 5 2 0 0 0 0 0 0 0 0 0 0 0 0 0 0 4 1
97 62 7 6 98 99 89 100 100 100 83 95 100 100 98 100 100 100 100 100 59 100 85 87 25 44 5 3 5 0 5 3 0 0 0 1 2 90 8 5 21 1 0
66 67 23 5 88 100 99 100 100 99 100 100 100 100 100 100 100 100 100 100 100 100 100 75 60 67 100 100 97 2 72 69 22 3 1 20 94 73 3 4 5 2 5
54 55 95 57 99 96 93 100 100 100 100 99 100 100 100 100 100 100 100 100 97 100 75 99 91 100 100 100 99 100 81 78 100 10 16 79 65 60 21 82 5 4 1
54 94 15 14 100 43 100 100 100 87 92 100 100 100 100 100 100 100 67 100 100 74 60 94 100 100 100 100 31 99 100 100 100 100 100 67 70 20 99 85 5 5 2
100 89 98 100 100 100 100 100 100 100 100 100 100 100 100 100 100 92 98 100 100 100 100 100 100 96 89 88 100 100 100 100 100 92 29 73 100 100 100 16 70 6 2
100 100 100 100 100 100 100 100 100 100 100 100 100 100 100 100 100 98 100 100 100 100 100 100 100 96 75 59 100 100 100 100 99 56 78 100 99 91 55 8 5 4 0
100 100 100 100 100 100 100 100 100 100 100 100 100 100 100 97 100 100 100 100 100 100 100 100 100 96 97 100 100 100 88 92 64 100 100 100 26 68 89 5 6 4 5
100 100 100 100 100 100 100 100 100 100 100 99 100 100 96 100 100 100 100 100 100 100 100 100 100 100 100 94 55 99 100 100 100 100 13 58 8 92 5 3 4 5 0
100 100 100 100 100 100 100 100 100 100 100 100 100 100 100 100 100 100 96 100 100 94 100 100 84 94 100 100 100 100 100 100 97 32 9 12 76 100 97 51 2 4 4
100 100 100 100 100 100 100 100 100 100 100 100 100 100 100 100 100 100 100 100 100 100 100 100 100 100 100 100 100 100 100 84 38 69 80 100 100 97 42 4 11 3 3
100 100 100 100 100 100 100 100 100 100 100 100 100 100 100 100 100 100 100 100 86 100 99 100 100 100 100 100 100 99 100 30 59 97 100 16 10 6 4 0 4 1 5
100 100 100 100 100 100 100 100 100 100 100 100 100 100 100 100 100 100 100 100 100 100 100 100 100 100 98 76 90 91 89 100 90 41 4 5 6 0 0 4 0 0 0
100 100 100 100 100 100 100 100 100 100 100 100 100 100 100 100 100 100 100 100 100 100 100 97 100 99 100 100 100 100 100 100 55 4 3 0 0 0 0 0 0 0 0
100 100 100 100 100 100 100 100 100 100 100 100 100 100 100 100 100 100 98 100 100 100 100 100 100 100 100 100 84 98 55 8 4 1 0 0 0 0 0 0 0 0 0
100 100 100 100 100 100 100 100 100 100 100 100 100 100 100 100 100 100 100 100 100 100 100 100 100 100 100 60 8 14 4 5 0 0 0 0 0 0 0 0 0 0 0
100 100 100 100 100 100 100 100 100 100 100 100 100 100 100 100 100 100 100 100 100 100 100 100 100 100 63 5 5 4 4 0 0 0 0 0 0 0 0 0 0 0 5
100 100 100 100 100 100 100 100 100 100 100 100 100 100 100 100 100 100 100 100 100 100 100 99 93 16 4 4 4 0 0 0 0 0 0 0 0 0 0 2 0 3 5
100 100 100 100 100 100 100 100 100 98 100 100 100 100 100 100 100 100 94 86 68 75 54 13 5 5 3 0 0 0 0 0 0 0 0 0 0 0 0 0 5 5 87
47 14 2 0 1 12 40 45 74 100 82 52 88 93 72 81 85 97 62 5 5 5 18 4 0 0 0 0 0 0 0 0 0 0 0 0 0 0 5 0 0 0 4
7 5 53 18 5 5 5 98 92 14 5 5 13 48 62 27 6 5 5 5 5 4 1 30 13 4 0 0 0 0 0 0 0 0 0 0 0 0 0 0 0 0 0
5 5 38 36 18 5 5 5 17 44 32 47 29 10 5 5 3 2 0 3 0 1 5 41 0 0 0 0 0 0 5 3 4 5 3 0 2 1 0 0 0 0 0
0 0 0 5 78 21 3 5 5 5 5 5 5 0 0 0 4 4 5 5 5 3 5 5 2 0 0 0 2 5 5 14 7 5 4 5 0 0 0 0 0 0 0
0 0 0 2 4 23 53 4 1 5 3 5 5 3 0 3 5 5 5 5 5 5 0 0 0 0 0 4 3 5 5 5 3 61 66 18 5 5 7 9 5 1 0
2 1 96 99 100 100 100 7 3 5 5 57 100 30 12 18 67 83 68 78 27 62 55 3 2 1 0 0 3 5 4 5 4 4 5 4 0 12 74 96 90 100 6

GFSSE_prec_cloud_021.txt.gz
Cloud_Cover
64 38 1 11 52 21 5 100 89 80 69 14 82 15 33 29 6 5 12 5 5 10 5 2 2 0 1 5 5 4 0 0 0 0 0 0 0 0 0 0 0 0 0
94 48 5 3 15 76 90 100 100 61 100 56 96 19 34 87 9 16 44 28 74 5 5 4 2 4 1 40 5 5 2 5 20 5 0 0 0 0 0 1 0 3 0
99 44 6 3 20 61 88 87 100 99 94 100 100 100 100 100 79 80 98 8 5 61 21 5 10 6 58 28 6 5 11 94 93 100 13 4 4 0 7 6 20 1 0
85 75 2 5 5 6 85 67 100 96 100 100 100 100 100 100 78 6 13 46 92 87 5 5 5 85 83 50 69 35 66 97 100 58 89 86 100 100 100 41 66 14 5
100 47 16 18 5 5 92 100 100 100 100 100 100 100 100 100 100 81 87 100 59 71 94 77 10 36 58 50 59 100 100 100 76 96 10 80 100 100 52 8 5 3 100
100 59 78 77 100 100 100 100 100 100 100 100 100 100 100 100 100 100 99 91 97 99 100 99 90 36 100 94 98 31 94 83 86 5 94 100 99 1 2 7 7 80 100
100 100 94 100 100 100 100 100 100 100 100 100 100 100 100 100 100 100 100 96 92 100 99 43 94 10 5 18 100 93 100 100 98 11 94 83 100 33 4 41 100 100 100
100 100 100 100 100 100 100 100 100 100 100 100 100 100 100 100 99 100 71 100 94 99 53 99 81 88 12 9 5 10 95 100 13 98 87 29 88 100 100 100 100 72 55
100 100 100 100 100 100 100 100 97 99 100 100 100 100 100 100 100 100 100 100 87 100 100 98 46 37 20 30 52 99 4 66 27 83 99 98 100 100 100 100 13 46 95
100 100 100 100 100 100 100 100 100 100 100 100 100 100 100 100 100 100 100 100 99 47 100 100 77 28 55 99 84 74 61 96 100 45 67 100 100 100 81 31 100 23 4
100 100 100 100 100 100 100 100 100 100 100 100 100 100 100 100 100 100 100 86 100 100 100 100 100 86 100 87 100 100 100 91 81 17 8 64 25 36 5 92 5 5 5
100 100 100 100 100 100 100 100 100 100 100 100 100 100 100 100 100 100 100 100 100 100 100 100 98 100 100 100 100 100 100 52 100 47 26 36 27 8 96 12 19 8 68
100 100 100 100 100 100 100 100 100 100 100 100 100 100 100 100 100 100 100 100 100 100 79 100 100 100 100 98 98 38 79 92 57 22 5 90 100 100 8 5 1 5 0
100 100 100 100 100 100 100 100 100 100 100 100 100 100 100 100 100 100 100 100 100 91 100 100 100 100 100 21 94 100 100 62 20 97 71 39 7 3 5 4 16 2 0
100 100 100 100 100 100 100 100 100 100 100 100 100 100 100 100 100 100 100 100 100 100 100 100 100 100 100 100 100 100 100 100 100 100 79 30 5 5 3 0 9 31 20
84 100 100 100 100 100 100 100 100 100 100 100 100 100 100 100 100 100 100 100 100 100 100 100 100 100 100 100 100 97 98 100 30 5 5 5 4 0 0 8 33 26 39
66 98 81 100 100 100 100 100 100 100 100 100 100 100 100 100 100 100 100 100 100 100 100 100 100 100 100 100 100 53 82 74 66 20 9 1 0 0 0 0 0 0 3
100 90 100 85 99 67 98 46 97 100 75 100 100 100 100 100 100 100 100 100 100 100 100 100 100 100 100 100 34 46 78 57 4 0 0 0 0 0 0 0 0 0 0
100 100 100 100 92 100 100 100 100 100 100 100 100 100 100 100 100 100 100 100 100 100 100 100 97 100 96 52 30 13 2 0 0 0 0 0 0 0 0 0 0 0 0
100 100 100 100 100 100 100 100 100 100 100 100 100 100 100 100 100 100 100 100 100 95 36 15 49 54 24 3 0 0 0 0 0 0 0 0 0 0 0 0 0 0 0
100 100 100 100 100 100 100 100 100 100 100 100 100 100 100 100 39 97 98 22 5 6 36 25 2 0 0 0 0 0 0 0 0 0 0 0 0 0 0 0 0 0 0
100 100 100 100 100 100 100 98 97 93 88 14 20 24 5 12 29 6 5 5 5 2 0 0 0 0 0 0 0 0 0 0 0 0 0 0 0 0 0 0 0 0 0
100 100 38 13 7 13 5 4 5 5 5 5 24 67 36 5 5 4 1 0 0 0 4 1 2 3 12 5 0 0 0 2 1 2 0 3 5 13 5 3 2 0 0
14 54 92 40 14 5 5 4 5 5 5 49 86 72 81 5 5 5 5 5 5 5 12 68 92 69 17 5 34 5 5 6 9 8 2 4 5 6 5 34 1 2 5
69 12 35 33 3 0 8 6 6 22 5 32 97 96 43 5 5 5 5 5 5 5 52 66 71 90 27 5 9 5 5 5 5 5 5 4 5 42 50 37 100 100 100
6 0 1 2 2 100 100 100 69 5 11 5 75 47 5 9 83 14 5 5 5 97 99 91 33 17 60 88 94 18 76 14 87 53 5 5 19 98 100 100 100 100 100

GFSSE_prec_cloud_024.txt.gz
Cloud_Cover
82 64 16 5 5 5 5 5 5 7 65 5 96 82 74 11 5 26 16 5 5 0 0 5 0 0 0 0 0 5 5 18 37 5 22 6 5 3 4 0 0 0 0
82 65 5 5 0 0 5 6 98 63 98 97 100 94 77 72 99 88 12 5 5 5 5 4 2 5 2 2 97 91 91 6 9 5 10 10 5 45 2 5 5 1 41
100 99 30 5 3 5 7 5 6 80 90 100 76 96 35 80 49 5 5 5 26 26 88 97 7 5 5 5 0 5 3 0 2 21 100 66 97 69 23 70 68 90 36
68 94 56 39 8 5 14 99 85 100 90 100 71 89 97 25 21 7 99 99 89 82 87 100 67 5 5 6 5 16 67 9 9 83 60 80 100 100 52 100 52 4 96
56 37 13 10 5 0 41 100 100 100 95 100 100 94 98 68 36 100 100 100 100 100 100 73 70 5 14 5 4 33 5 5 2 23 18 96 94 100 3 1 6 4 4
57 85 66 35 67 61 100 100 100 33 100 100 100 91 99 100 100 100 99 100 100 100 99 100 90 80 5 5 5 4 3 1 0 34 4 64 18 33 36 5 4 1 2
100 100 86 100 100 100 100 100 99 100 100 100 100 100 100 100 100 100 100 100 100 100 91 17 6 5 5 5 4 5 1 0 0 3 0 0 5 5 6 2 10 96 80
100 100 100 100 100 100 100 100 100 100 100 100 100 100 100 100 100 100 100 97 96 21 5 5 5 5 0 0 0 0 0 1 0 0 0 4 3 14 4 82 91 72 44
100 100 100 100 100 100 100 100 92 100 100 100 100 100 100 100 100 100 100 94 24 40 38 41 28 4 5 4 1 5 0 0 93 100 89 57 6 48 100 45 20 4 4
100 100 94 100 100 100 100 100 100 100 100 100 100 100 100 100 100 100 100 95 100 100 100 24 100 96 5 5 3 11 42 99 100 83 96 100 4 5 12 5 5 2 5
100 100 100 100 100 100 100 100 100 100 100 100 100 100 100 100 100 100 100 100 100 100 100 93 96 100 37 64 100 100 96 24 5 80 91 5 48 32 5 4 11 5 5
100 100 100 100 100 100 100 100 100 100 100 100 100 100 100 100 100 100 100 97 100 100 99 98 100 97 100 100 100 85 100 66 94 96 18 5 2 1 25 5 14 98 5
100 100 100 100 100 100 100 100 100 100 100 100 100 100 100 100 100 100 100 100 100 100 99 100 99 66 100 67 88 100 87 42 8 5 4 56 61 35 40 10 5 0 3
100 100 100 100 100 100 100 100 100 100 100 100 100 100 100 100 100 100 100 100 100 100 100 98 100 100 100 100 17 6 96 100 7 99 51 5 69 4 5 1 19 11 0
100 100 100 100 100 100 100 100 100 100 100 100 100 100 100 100 100 100 100 100 100 100 100 100 90 10 28 93 13 100 98 100 100 48 38 92 24 27 27 1 9 26 24
100 100 100 100 100 100 100 100 100 100 100 100 100 100 100 100 100 100 100 100 100 100 100 100 100 100 98 100 100 57 87 87 91 22 15 21 54 2 0 0 0 19 22
100 100 100 100 100 100 100 100 100 100 100 100 100 100 100 100 100 100 100 100 100 100 71 100 100 100 100 100 100 100 95 98 21 5 4 0 0 0 0 0 0 1 6
100 100 100 100 100 100 100 100 100 100 100 100 100 100 100 100 100 100 100 100 100 100 100 100 100 100 99 92 100 72 19 21 2 0 0 0 0 0 0 0 0 0 0
100 100 100 100 100 100 100 100 100 100 100 100 100 100 100 96 100 100 100 100 100 100 100 100 100 59 62 28 8 3 0 0 0 0 0 0 0 0 0 0 0 0 0
63 84 100 74 96 75 18 80 100 100 100 100 100 78 96 100 100 100 100 100 76 100 86 96 72 32 7 2 0 0 0 0 0 0 0 0 0 0 0 0 0 0 0
100 100 87 36 100 100 100 100 100 96 33 59 100 100 76 100 89 100 100 90 35 48 5 17 11 0 0 1 0 0 5 5 2 0 0 0 0 0 0 0 0 0 0
100 100 100 100 96 100 100 100 97 100 100 100 100 92 88 66 30 54 15 26 22 5 6 0 5 5 5 5 72 48 1 0 0 0 0 5 5 5 4 5 5 5 5
100 100 100 100 100 100 100 100 100 82 55 82 42 9 40 6 5 16 72 14 3 0 2 5 60 80 94 25 27 5 19 5 5 5 6 1 4 5 73 56 23 5 5
99 100 100 100 100 99 61 41 23 24 49 7 5 5 5 12 40 10 5 5 5 14 5 90 97 100 95 5 22 5 48 28 5 5 5 5 5 5 5 5 5 5 24
55 83 49 17 78 99 21 16 93 70 5 44 49 20 96 75 60 5 7 5 59 52 41 100 100 100 93 20 69 5 82 71 5 5 5 5 5 5 20 66 72 5 10
5 17 18 67 93 25 7 100 100 5 10 46 12 5 82 79 94 49 5 8 91 100 100 56 95 53 74 15 5 5 16 22 5 5 5 5 5 5 6 76 74 85 31

GFSSE_prec_cloud_027.txt.gz
Cloud_Cover
58 10 5 5 5 5 1 2 1 15 29 85 94 5 5 5 5 5 5 5 5 4 1 0 2 5 2 4 0 4 0 1 0 0 0 0 0 0 0 5 5 5 15
63 28 5 5 46 5 5 5 2 5 63 81 62 8 5 5 5 5 17 5 5 5 5 5 8 3 0 0 0 0 5 3 0 0 0 0 1 20 8 59 100 82 38
77 51 13 14 19 5 5 5 5 5 49 5 92 87 5 5 68 65 90 62 15 77 11 3 5 5 4 3 5 5 5 3 2 2 5 5 5 18 5 3 31 100 24
93 89 35 8 5 32 5 5 72 95 82 24 82 82 85 14 88 95 100 90 100 74 20 83 74 9 63 56 8 18 5 5 1 2 4 3 5 3 19 5 100 97 100
98 74 46 14 35 60 27 20 92 58 60 30 42 88 100 68 82 100 98 97 98 64 57 6 100 100 100 96 82 13 2 0 0 0 0 0 5 31 5 5 78 73 27
100 91 56 25 91 100 100 100 100 89 7 82 90 100 100 18 100 100 86 91 77 62 99 100 99 22 100 92 24 5 8 0 0 0 0 0 0 0 0 1 1 5 4
81 62 87 100 100 100 100 100 100 28 56 64 97 98 44 99 100 100 93 98 6 60 91 90 53 64 86 48 13 4 2 0 0 0 0 0 0 0 0 0 0 0 2
97 100 100 100 100 100 100 100 100 100 99 100 100 99 76 100 100 100 99 88 52 96 85 73 55 35 5 3 0 0 0 0 0 0 0 0 0 0 42 50 5 1 5
100 100 100 100 100 100 100 100 100 98 100 100 98 100 100 100 100 100 6 69 37 34 49 9 5 5 2 0 0 3 4 5 0 12 26 100 96 59 92 1 4 5 3
100 100 100 100 100 100 100 100 100 100 100 100 100 100 100 100 98 100 32 5 23 35 5 56 5 48 2 1 5 5 4 22 100 13 68 44 1 2 31 5 5 5 8
100 100 100 100 100 100 100 100 100 100 100 100 100 100 100 100 100 98 72 96 44 18 5 5 5 4 61 23 100 100 67 100 99 90 4 16 17 4 3 1 5 17 21
100 100 100 100 100 100 100 100 100 100 100 100 100 100 100 98 99 100 98 78 48 30 21 96 11 75 100 100 100 54 100 42 3 0 2 2 3 2 2 3 5 1 1
100 100 100 100 100 100 100 100 100 100 100 100 100 100 100 98 100 100 94 100 100 100 100 100 100 100 100 100 100 98 100 20 5 4 0 2 0 5 5 10 5 0 0
100 100 100 100 100 100 100 100 100 100 100 100 100 100 100 97 100 71 100 100 100 93 100 100 100 100 100 100 55 92 24 5 5 5 5 26 5 4 5 9 6 20 1
100 100 100 100 100 100 100 100 100 100 100 100 100 99 60 93 92 100 100 100 99 100 100 100 100 72 84 50 85 55 5 6 7 5 23 15 20 5 5 4 17 19 16
100 100 100 100 100 100 100 100 100 100 100 100 100 100 100 100 100 100 100 100 100 100 99 99 90 97 98 6 46 14 88 95 92 63 20 5 5 2 0 0 0 26 25
100 100 100 100 100 100 100 100 100 100 100 100 100 100 100 100 100 100 100 100 100 100 100 100 100 100 6 8 76 100 78 63 6 29 6 2 0 0 0 0 0 0 0
100 100 100 100 100 100 100 100 100 100 100 100 100 100 100 100 100 100 100 100 100 100 100 100 5 30 94 100 100 80 47 27 7 4 0 0 0 0 0 0 0 0 0
100 100 100 100 100 100 100 100 100 100 100 100 100 100 100 100 100 100 100 100 100 100 74 5 48 100 86 100 90 53 12 0 0 0 0 0 0 0 0 0 0 0 0
100 100 100 100 100 100 100 100 100 100 100 100 100 100 100 100 100 100 100 100 100 30 3 58 86 79 26 18 19 4 0 0 0 0 0 0 0 0 0 0 0 0 0
100 100 100 43 74 100 100 100 100 100 100 100 100 100 45 98 78 40 10 4 4 20 25 17 50 5 5 3 5 5 5 0 0 0 0 0 0 0 0 0 0 0 0
75 96 100 99 100 100 100 100 100 98 100 98 87 100 100 94 100 90 66 54 5 5 5 5 5 4 5 5 75 60 5 2 4 0 2 2 0 0 0 0 0 0 0
100 100 71 38 34 32 12 57 100 89 100 100 100 49 38 35 56 80 27 5 5 5 5 5 51 83 86 52 42 15 6 4 0 0 4 2 0 0 0 0 0 0 0
100 100 100 100 100 100 100 100 100 100 100 100 86 21 25 5 17 5 5 38 5 5 5 27 46 100 97 86 80 5 5 1 1 1 0 5 5 1 0 0 0 0 0
100 100 100 100 100 84 54 25 17 32 64 100 72 100 100 82 79 99 63 50 6 74 81 94 100 100 100 98 5 3 0 5 5 5 5 5 0 0 1 0 0 0 0
32 54 49 40 39 17 13 91 100 90 100 100 91 100 95 100 85 51 80 81 82 62 70 71 33 72 94 61 3 5 5 4 5 5 3 1 1 0 3 0 0 0 0

GFSSE_prec_cloud_030.txt.gz
Cloud_Cover
97 70 78 100 62 8 5 5 5 0 3 5 5 5 5 5 5 5 5 3 1 0 0 0 0 0 0 0 0 0 0 0 0 0 0 0 0 0 0 0 11 5 12
90 72 40 93 73 54 61 2 4 4 5 5 5 5 42 73 11 5 5 5 5 0 0 0 1 0 0 0 0 0 0 0 0 0 0 0 0 0 0 0 9 5 5
100 80 5 29 76 28 5 5 5 3 4 5 5 3 100 97 6 5 5 5 5 5 2 0 12 5 5 5 3 5 4 5 3 0 0 3 0 0 0 0 0 0 4
90 98 79 80 5 5 5 5 5 5 5 5 3 5 99 100 92 5 5 58 5 5 3 3 5 4 52 45 72 41 5 5 5 5 5 5 0 0 0 0 0 0 4
100 100 100 91 5 5 36 98 56 24 78 7 8 8 100 43 93 5 18 35 5 5 5 34 17 5 46 82 50 10 39 25 5 5 5 2 0 0 0 0 0 0 2
100 100 100 100 81 18 95 93 100 100 85 6 99 87 97 94 76 68 69 63 37 37 9 21 5 19 5 99 99 78 38 5 26 28 11 2 0 1 0 0 0 0 0
100 88 100 98 67 91 64 100 100 39 43 91 100 100 100 98 100 100 96 44 100 44 6 56 94 100 75 5 9 5 5 4 0 2 0 0 0 0 0 0 0 2 4
100 100 100 100 100 100 100 97 35 68 89 100 100 100 100 99 98 95 7 55 89 24 24 50 42 84 89 6 5 5 4 0 0 0 0 0 1 4 5 5 2 2 1
100 100 100 100 100 100 100 100 100 100 100 100 100 100 100 100 100 72 82 44 24 6 97 47 96 74 5 2 0 0 0 0 0 4 33 19 2 3 5 5 0 5 1
100 100 100 100 100 100 100 100 100 100 100 100 100 100 98 100 94 100 88 44 7 32 99 93 50 5 5 0 0 0 3 6 8 81 54 9 20 89 5 2 0 2 5
100 100 100 100 100 100 100 100 100 100 100 100 100 100 100 100 100 100 100 95 64 91 81 5 5 9 10 2 25 51 90 100 100 81 95 87 97 4 0 0 0 0 0
100 100 100 100 100 100 100 100 100 100 100 100 100 100 100 100 100 100 100 100 85 5 31 10 31 96 58 18 98 100 96 90 10 5 75 74 2 0 0 0 0 4 0
100 100 100 100 100 100 100 100 100 100 100 100 100 100 100 100 100 100 100 100 95 73 99 100 84 96 78 94 25 97 5 16 86 81 2 0 0 0 1 12 17 11 6
100 100 100 100 100 100 100 100 100 100 100 100 100 100 100 100 100 100 100 100 100 100 100 100 100 100 100 68 55 100 82 37 37 4 0 1 0 2 0 21 23 9 4
100 100 100 100 100 100 100 100 100 100 100 100 100 100 100 100 100 100 100 87 100 96 100 100 100 100 96 100 100 84 90 81 5 5 5 5 5 26 5 39 5 2 18
100 100 100 100 100 100 100 100 100 100 100 100 100 100 100 100 100 100 100 100 100 98 61 73 100 100 98 68 8 88 70 33 5 3 4 5 5 5 5 0 12 26 30
100 100 100 100 100 100 100 100 100 100 100 100 100 100 100 100 100 100 100 100 97 100 100 100 100 100 100 100 100 38 71 26 0 3 3 5 3 0 0 0 0 0 0
100 95 100 100 100 100 100 100 100 100 100 100 100 100 100 100 100 100 100 98 100 100 100 100 100 100 100 84 61 15 6 5 2 5 2 0 0 0 1 0 0 0 0
100 100 100 100 100 100 100 100 100 100 100 100 100 100 100 100 100 100 94 100 100 100 100 100 100 100 92 6 7 3 3 5 1 0 0 0 0 0 0 0 0 0 0
100 100 100 100 100 100 100 100 100 100 100 100 100 100 100 100 100 100 100 100 100 99 99 30 17 8 2 3 4 5 4 1 0 0 0 0 0 0 0 0 0 0 0
100 100 100 100 91 100 100 100 100 100 100 100 100 100 100 100 100 100 100 100 100 99 5 5 5 4 0 5 5 2 0 0 2 0 0 0 0 0 0 0 0 0 0
100 100 100 100 100 95 100 100 100 100 100 100 100 100 100 100 100 100 98 82 5 2 5 5 7 5 5 5 5 6 47 18 2 0 0 0 2 0 0 0 0 0 0
100 100 70 18 16 28 87 73 74 94 100 100 100 100 100 100 100 52 6 5 5 5 5 8 15 5 34 30 96 93 64 11 1 4 3 2 4 3 1 2 5 4 2
100 64 97 100 88 16 5 7 68 42 62 9 95 100 67 34 19 6 6 12 54 51 95 100 77 68 97 55 5 5 5 5 5 5 0 0 3 5 5 5 3 5 5
100 97 100 100 100 98 100 100 100 100 100 61 64 98 72 78 89 76 48 100 100 100 92 99 67 100 44 70 54 31 5 5 0 0 5 4 1 3 3 5 5 1 5
25 32 6 23 64 56 39 16 93 83 89 52 48 100 100 63 96 100 100 100 82 96 91 94 100 100 100 75 95 5 5 0 3 3 0 3 5 5 5 5 5 5 5

GFSSE_prec_cloud_033.txt.gz
Cloud_Cover
73 79 85 85 100 93 23 8 2 0 0 5 5 5 5 5 5 5 1 2 2 1 0 0 0 0 0 0 0 0 0 0 0 0 0 0 0 0 0 0 0 7 16
24 5 89 100 91 43 89 48 5 5 5 0 5 5 5 5 45 17 4 5 5 1 0 0 0 4 0 0 0 0 0 0 0 0 0 0 0 0 0 0 0 0 0
52 52 91 98 80 33 75 6 5 5 5 10 11 4 5 60 12 37 5 5 5 4 0 0 0 0 0 0 0 0 3 4 5 0 0 0 3 0 0 0 0 0 0
100 100 100 100 76 65 39 5 5 3 5 5 5 4 5 5 6 35 25 5 5 5 2 5 5 5 5 3 2 5 31 5 5 73 28 4 2 4 0 0 0 0 0
95 96 100 100 100 98 89 10 5 12 5 5 5 34 5 5 5 54 5 5 5 15 5 5 5 5 5 5 3 1 3 4 3 18 2 12 5 5 3 2 0 0 0
100 100 100 100 100 100 99 20 5 59 95 65 5 17 28 5 18 66 5 5 5 5 30 32 7 5 5 5 5 5 5 4 9 38 2 2 0 0 0 0 0 0 0
100 100 96 99 100 84 50 35 71 83 99 97 98 84 84 87 46 59 23 63 74 80 35 20 5 4 22 13 22 30 14 5 3 1 5 0 0 0 0 0 0 0 0
100 100 100 100 97 100 100 97 100 81 100 100 82 100 100 100 100 95 92 88 41 39 26 33 5 4 5 4 2 4 18 1 0 4 18 1 0 1 4 39 8 16 5
100 100 100 100 100 100 100 100 100 100 99 57 98 100 100 100 100 100 100 95 58 86 8 5 5 2 5 4 1 0 0 0 0 0 12 4 80 78 9 0 3 2 2
100 100 100 100 100 100 100 100 100 100 100 100 100 100 100 100 100 100 100 82 89 76 66 5 5 5 3 0 5 2 5 5 25 14 11 82 27 8 3 0 11 92 15
100 100 100 100 100 100 100 100 100 100 100 100 100 100 100 100 100 100 100 100 100 100 31 60 24 4 5 4 5 11 15 3 51 100 100 88 62 1 5 5 4 5 0
100 100 100 100 100 100 100 100 100 100 100 100 100 100 100 100 100 100 100 100 100 95 60 45 5 19 16 77 94 100 100 100 100 100 100 100 48 50 61 5 14 2 0
100 100 100 100 100 100 100 100 100 100 100 100 100 100 100 100 100 100 100 100 100 100 100 67 97 56 78 94 100 100 100 100 100 100 95 5 76 12 5 12 5 2 0
100 100 100 100 100 100 100 100 100 100 100 100 100 100 100 100 100 100 100 100 100 100 100 71 100 97 100 100 99 99 100 69 75 82 4 3 5 2 2 18 7 11 11
100 100 100 100 100 100 100 100 100 100 100 100 100 100 100 100 100 100 100 100 96 100 100 100 100 100 82 79 100 5 60 100 5 59 34 2 0 0 1 10 18 14 30
100 100 100 100 100 100 100 100 100 100 100 100 100 100 100 100 100 100 100 100 100 100 100 100 100 100 98 7 5 45 98 100 7 5 5 5 4 0 0 26 11 19 30
100 100 100 100 100 100 100 100 100 100 100 100 100 100 100 100 100 100 100 100 100 100 100 100 100 98 100 99 97 100 36 7 8 2 1 0 0 0 0 0 0 0 0
100 100 100 100 100 100 100 100 100 100 100 100 100 100 100 100 100 100 100 100 100 100 100 99 95 100 88 67 73 26 82 8 2 0 2 0 0 0 0 0 0 0 0
100 100 100 100 100 100 100 100 100 100 100 100 100 100 100 100 100 100 100 100 100 100 100 52 77 100 98 100 40 23 37 3 4 1 0 0 0 0 0 0 0 0 0
100 100 100 100 100 100 100 100 100 100 100 100 100 100 100 100 100 100 100 100 100 100 100 83 73 98 100 93 42 90 6 5 1 5 5 0 0 0 0 0 0 0 0
100 100 100 100 100 77 100 100 100 100 100 100 100 100 100 100 100 100 100 100 100 100 100 100 36 42 100 55 5 5 4 5 5 0 0 0 0 0 0 0 0 0 0
100 98 96 100 100 100 100 100 100 100 100 100 100 100 100 100 100 100 100 100 82 100 100 100 88 6 6 22 36 33 8 11 6 3 4 0 0 0 2 1 2 0 0
100 100 98 100 100 100 100 100 100 92 100 100 100 100 100 100 100 100 97 100 100 100 74 86 56 100 100 62 41 5 5 37 29 5 2 0 0 1 5 5 5 5 5
100 100 100 100 100 42 8 12 13 15 77 100 100 100 100 100 96 100 100 98 7 38 100 100 100 100 69 33 41 75 96 98 100 66 4 2 0 0 4 4 5 5 5
100 94 65 100 100 99 98 99 100 77 86 20 18 56 69 94 100 100 78 58 86 100 100 100 100 100 100 98 99 100 89 90 100 71 9 5 5 4 5 5 67 6 5
100 100 92 29 5 5 5 3 16 5 25 34 65 63 100 100 100 100 100 100 99 100 98 97 100 99 99 100 100 100 100 68 48 49 20 5 5 50 10 5 5 5 5

GFSSE_prec_cloud_036.txt.gz
Cloud_Cover
96 100 64 2 5 6 12 26 76 26 5 4 3 5 5 0 5 5 1 3 1 0 0 0 0 0 0 0 0 0 0 0 0 0 0 0 0 0 0 0 0 14 13
100 100 100 61 61 2 9 5 12 32 94 97 30 14 26 5 5 5 5 5 5 5 0 0 0 0 0 0 0 0 0 0 0 0 0 0 0 0 0 0 0 1 0
100 100 100 100 37 13 5 5 59 54 28 5 2 5 5 5 5 6 5 4 5 3 2 0 2 0 3 0 0 0 0 0 10 7 4 0 0 5 0 3 1 0 0
100 100 100 100 32 55 5 5 5 87 55 25 28 5 4 3 5 31 5 5 5 5 5 1 0 5 5 0 0 0 0 3 74 84 4 0 4 4 27 0 0 0 32
100 100 100 100 93 97 56 44 23 5 5 6 7 8 5 5 2 5 5 5 5 5 22 5 5 5 2 0 0 0 2 4 0 4 2 5 5 0 0 0 0 0 0
100 100 100 100 100 100 100 100 84 12 43 70 54 7 8 44 5 5 5 5 5 5 7 5 5 5 5 5 5 3 1 66 5 5 0 5 0 0 4 0 0 0 0
100 100 100 100 100 100 100 100 100 89 100 93 73 5 5 5 5 5 5 5 57 98 51 69 5 3 5 4 0 0 0 0 0 1 2 0 0 0 0 0 0 4 0
100 100 100 100 100 100 100 100 100 100 90 100 70 98 74 54 64 100 88 77 78 20 43 38 5 5 5 0 0 0 0 0 0 0 0 0 0 0 0 0 0 1 0
100 100 100 100 100 100 100 100 100 100 98 98 100 100 100 100 100 100 77 100 87 72 99 20 21 5 5 0 0 0 0 0 0 4 3 0 5 5 0 1 69 33 5
100 100 100 100 100 100 100 100 100 100 100 100 100 100 100 100 100 100 100 100 88 98 92 48 59 5 5 5 2 0 5 1 33 2 0 0 0 10 74 15 100 23 5
100 100 100 100 100 100 100 100 100 90 100 100 100 100 100 100 100 100 100 100 100 100 100 91 97 50 5 5 4 5 5 24 39 19 19 20 100 82 76 100 96 17 7
100 100 100 100 100 100 100 100 100 100 100 100 100 100 100 100 100 100 100 100 100 100 100 100 67 90 5 5 51 48 7 7 37 75 100 100 100 46 62 24 15 2 3
100 100 100 100 100 100 100 100 100 100 100 100 100 100 100 100 100 100 100 100 100 100 100 100 91 58 67 75 100 100 99 100 100 31 8 4 2 5 7 8 14 6 1
100 100 100 100 100 100 100 100 100 100 100 100 100 100 100 100 100 100 100 100 100 100 100 92 69 100 100 100 100 100 100 79 60 40 7 5 14 29 17 21 66 35 15
100 100 100 100 100 100 100 100 100 100 100 100 100 100 100 100 100 100 100 100 100 100 100 100 100 100 100 100 100 99 82 100 100 76 75 53 6 5 5 15 23 40 27
100 100 100 100 100 100 100 100 100 100 100 100 100 100 100 100 100 100 100 100 100 100 100 100 100 100 77 37 89 58 94 100 100 28 100 4 11 4 5 14 18 21 31
100 100 100 100 100 100 100 100 100 100 100 100 100 100 100 100 100 100 100 100 100 100 100 100 100 100 100 100 100 98 98 13 5 13 8 93 5 5 3 0 0 0 0
100 99 100 100 100 100 100 100 100 100 100 100 100 100 100 100 100 100 100 100 100 100 100 100 100 97 100 70 99 64 100 91 19 100 92 4 5 4 4 0 0 0 0
100 97 78 97 100 100 100 100 100 100 100 100 100 100 100 100 100 100 100 100 100 100 100 100 100 100 89 100 100 89 46 98 84 84 6 5 1 1 0 0 0 0 0
21 86 48 74 100 100 100 100 100 100 100 100 100 100 100 100 100 99 100 100 100 100 100 100 65 91 100 100 30 44 31 85 70 25 5 5 3 3 0 0 0 0 0
100 100 100 100 100 100 100 100 100 100 100 100 100 100 100 100 100 100 100 100 100 100 97 100 100 100 100 97 99 88 81 61 66 10 26 16 5 5 0 0 0 0 0
100 99 95 100 100 100 100 100 97 95 96 100 100 100 100 100 100 100 100 100 100 100 100 94 74 90 86 69 59 76 5 6 39 5 80 100 18 0 1 0 2 0 0
100 100 99 92 100 100 100 100 100 92 92 70 90 100 100 100 100 100 100 100 100 55 96 73 79 61 85 100 100 100 80 55 36 33 23 5 4 5 5 0 0 0 0
13 8 78 100 100 93 12 76 91 13 5 89 21 40 59 100 100 100 90 84 98 82 99 99 97 76 92 65 100 100 99 100 100 98 5 5 5 4 5 0 0 0 1
100 100 100 100 76 100 100 85 100 71 81 8 70 70 5 9 6 78 96 99 100 100 100 100 100 100 100 100 96 54 100 100 100 100 100 86 8 8 5 5 1 0 5
56 66 54 100 100 39 15 71 96 79 83 41 63 79 44 72 69 100 81 92 99 100 100 100 100 100 100 100 100 100 100 100 100 83 57 62 100 73 22 5 5 5 5

GFSSE_prec_cloud_039.txt.gz
Cloud_Cover
100 100 100 100 100 100 100 100 100 22 5 5 6 20 36 77 88 44 2 0 0 0 0 0 0 2 0 0 0 0 0 0 0 0 0 0 0 0 0 0 0 65 82
100 100 100 100 100 97 19 10 9 5 3 16 48 9 37 81 100 92 66 5 5 5 4 0 0 1 0 0 0 0 0 0 0 0 0 0 0 2 0 0 0 4 57
100 100 100 100 100 100 100 100 6 10 2 0 0 0 2 2 5 4 5 15 32 16 5 5 0 0 0 0 0 0 3 0 0 0 0 0 0 6 8 1 0 0 0
100 100 100 100 100 97 100 100 100 67 59 84 90 38 43 8 5 4 5 5 5 4 5 5 1 0 0 0 0 3 3 5 0 0 0 0 0 63 74 3 1 60 96
100 100 100 100 100 100 100 100 100 100 72 100 53 5 25 10 2 14 14 5 5 5 5 5 3 0 0 2 4 13 5 5 0 0 0 0 3 94 37 0 0 0 70
100 100 100 100 100 100 100 100 100 87 8 80 43 67 34 68 67 53 5 5 2 5 5 5 5 5 5 5 64 74 3 5 0 0 0 0 0 0 1 0 0 24 99
100 100 100 100 100 100 100 100 97 100 40 98 81 100 100 100 49 72 66 70 1 5 6 48 38 28 5 5 4 5 0 0 0 0 0 0 0 0 0 0 0 0 0
100 100 100 100 100 100 100 100 100 100 95 100 100 35 100 75 88 7 41 8 11 86 85 42 56 76 11 16 5 5 2 0 0 0 0 0 0 0 0 0 0 0 0
100 100 100 100 100 100 100 100 100 100 100 100 100 98 81 88 91 100 100 100 100 100 100 97 100 92 5 5 5 5 7 2 0 0 0 0 0 0 0 1 0 1 2
100 100 100 100 100 100 100 100 100 100 100 100 100 100 100 100 100 100 100 100 100 100 100 100 100 96 6 5 5 5 0 5 4 0 0 0 0 1 4 91 6 13 0
100 100 100 100 100 100 100 100 100 100 100 100 100 99 100 100 100 100 100 100 100 100 100 100 100 100 48 5 71 12 1 0 7 1 0 3 4 43 25 7 1 3 0
100 100 100 100 100 100 100 100 100 100 100 100 65 100 100 100 100 100 100 100 100 100 100 100 100 83 56 10 46 72 4 58 12 5 4 67 99 58 45 85 58 37 23
100 100 100 100 100 100 100 100 100 100 100 100 97 100 100 100 100 100 100 90 100 100 100 100 100 100 85 100 85 10 99 100 87 53 100 100 87 63 100 58 78 27 8
100 100 100 100 100 100 100 100 100 100 92 100 100 100 100 100 100 100 100 100 100 100 100 100 100 100 100 99 100 100 100 76 71 100 75 5 41 7 26 7 30 53 13
100 100 100 100 100 100 100 100 100 100 100 100 100 100 100 100 100 100 100 100 100 100 100 100 100 100 100 100 100 100 97 100 66 88 71 88 100 100 53 35 52 91 28
100 100 100 100 97 100 100 100 100 100 100 100 100 92 100 97 100 100 100 100 100 100 100 100 100 100 100 100 100 100 100 100 100 100 100 63 58 6 18 64 40 46 25
100 100 100 100 100 100 100 100 100 100 100 100 100 100 100 100 100 100 100 100 100 100 100 100 100 100 100 100 100 100 100 100 100 99 23 98 10 95 5 5 5 58 4
100 100 100 100 100 100 100 100 100 100 100 100 100 100 100 100 100 100 100 100 100 100 100 100 100 100 100 100 100 100 100 86 92 100 98 50 96 6 15 36 5 0 0
100 100 100 100 100 100 100 100 100 100 100 100 100 100 100 100 100 99 91 100 100 100 100 100 100 100 100 100 100 100 100 100 27 26 98 95 88 45 6 5 5 4 0
100 100 100 98 100 100 100 100 100 99 86 100 100 100 100 100 100 100 100 100 100 100 100 100 100 100 100 100 100 100 100 100 100 100 63 24 30 6 45 5 5 5 4
74 100 77 99 100 100 100 100 100 87 56 77 100 100 100 100 100 100 97 35 97 100 100 100 100 100 100 100 100 100 100 100 33 5 6 68 40 100 77 99 96 25 5
96 44 94 80 67 90 42 58 92 70 71 73 99 100 100 100 100 100 100 100 100 100 100 100 100 100 100 100 100 96 21 41 73 63 5 30 100 100 100 100 74 83 36
46 88 100 95 39 100 98 87 75 87 56 18 10 81 100 100 100 100 100 100 100 100 100 100 76 96 90 98 55 62 44 74 59 95 90 100 100 100 88 8 99 11 28
99 49 11 50 64 100 100 100 100 100 100 100 84 23 60 93 94 94 76 100 100 90 100 100 100 100 100 95 100 100 99 100 100 99 100 100 46 42 97 99 65 93 82
100 100 100 100 100 100 100 100 100 100 9 44 100 100 100 100 95 100 100 100 74 74 42 61 99 100 100 100 100 100 100 100 100 100 82 100 60 34 76 24 26 5 5
100 100 78 27 24 59 43 84 80 74 41 100 97 90 89 80 57 97 100 100 100 12 24 60 96 100 100 99 100 100 100 100 100 100 93 73 100 96 16 14 6 5 5

GFSSE_prec_cloud_042.txt.gz
Cloud_Cover
89 33 66 100 100 100 100 100 82 71 93 96 46 18 5 5 5 5 5 5 5 11 45 47 15 3 4 4 0 0 0 0 0 0 0 0 0 6 90 48 1 66 100
18 16 39 100 100 100 100 100 99 100 100 94 65 6 0 1 33 85 94 96 63 3 4 0 4 5 5 5 0 0 0 0 0 0 0 4 18 0 0 0 7 78 4
76 92 100 100 100 100 100 100 100 100 100 100 50 0 0 1 4 0 4 24 52 3 2 0 0 0 2 0 0 0 0 0 0 0 0 0 100 95 88 37 9 99 100
21 100 100 100 100 100 100 100 100 100 100 100 100 40 6 58 44 52 7 5 7 5 5 1 0 2 0 0 1 0 0 2 5 5 0 0 93 100 98 12 53 90 96
39 100 100 100 100 100 100 100 100 100 100 100 100 100 100 100 100 98 99 97 44 51 5 5 2 0 3 5 5 5 4 5 5 5 2 9 98 93 20 15 7 5 100
100 100 100 100 100 100 100 100 100 100 100 100 100 100 100 100 91 63 100 100 100 98 96 5 5 5 5 18 5 32 46 52 5 5 5 0 0 0 0 1 38 42 12
100 100 100 100 100 100 100 100 100 100 100 100 100 100 100 100 100 100 100 100 100 100 10 5 5 10 100 45 5 40 5 4 5 1 0 0 0 0 0 0 0 0 0
100 100 100 100 100 100 100 100 100 100 100 100 100 100 71 59 100 100 100 100 100 71 58 5 9 70 100 90 54 93 8 5 5 1 0 0 0 0 1 0 0 0 0
100 100 93 100 100 100 100 100 100 98 95 55 26 99 70 98 100 100 93 100 100 100 98 90 100 100 100 100 97 12 5 5 5 1 0 0 0 2 0 0 0 0 0
100 100 100 100 100 100 100 100 100 100 100 59 100 86 97 91 56 100 96 100 100 100 100 100 100 100 100 100 83 21 36 5 4 0 0 0 41 13 16 50 0 2 4
100 100 100 100 100 100 100 100 100 100 100 100 100 58 100 89 77 100 99 100 100 100 100 100 100 100 100 100 100 100 90 51 5 4 8 6 18 92 100 100 13 44 3
100 100 100 100 100 100 100 100 100 100 100 100 100 93 87 81 86 99 100 100 90 100 100 100 100 100 100 100 64 100 58 62 85 92 100 62 37 100 86 92 100 50 41
100 100 100 100 100 100 100 100 100 100 100 100 100 100 99 93 99 100 73 100 100 98 100 92 92 100 100 100 91 100 100 100 100 100 48 91 100 100 100 100 94 87 80
100 100 100 100 100 100 100 100 100 100 100 100 95 100 89 92 98 74 80 100 100 100 100 100 100 100 100 100 100 100 100 100 100 99 100 100 100 100 100 96 100 88 5
100 100 100 100 100 100 100 100 100 100 94 57 44 52 100 93 89 91 100 99 94 88 100 100 100 100 100 100 100 100 100 85 100 100 100 100 100 100 100 100 96 100 60
100 100 100 100 100 100 100 100 100 100 100 100 60 100 100 99 75 74 99 100 96 92 91 89 100 100 100 87 100 100 100 100 100 100 100 100 100 100 100 62 100 97 71
100 100 100 100 100 100 100 100 100 100 100 100 100 100 100 98 92 100 57 100 100 87 100 100 100 100 100 100 100 100 100 100 100 100 100 100 100 100 28 100 100 30 76
100 100 100 100 100 100 100 98 100 100 100 100 100 79 100 98 86 91 100 58 69 88 95 99 100 100 100 100 100 100 100 100 100 100 91 88 100 100 100 83 100 44 31
100 100 100 100 100 100 100 100 100 100 100 100 100 100 100 90 79 97 80 93 100 100 95 99 98 99 100 100 100 100 100 97 70 100 100 100 97 100 96 98 17 8 40
100 100 100 100 100 100 100 100 100 100 100 100 74 99 99 100 100 100 98 100 100 100 100 100 100 100 100 100 100 100 100 100 100 100 66 82 97 90 100 100 99 100 100
100 100 100 100 100 100 100 100 100 100 94 100 100 100 100 100 80 49 100 81 100 100 100 100 100 100 100 100 100 100 100 100 100 100 100 100 100 100 69 51 95 100 100
100 100 100 100 100 100 100 100 100 100 100 100 100 100 100 100 100 98 91 100 100 100 100 100 100 100 100 100 100 100 100 100 95 77 57 68 97 100 100 100 58 74 98
100 100 100 100 100 100 100 100 100 100 100 84 92 100 100 26 97 84 100 98 100 100 100 100 100 100 100 100 100 100 100 100 86 91 70 78 100 100 90 100 29 100 88
100 100 100 100 100 100 100 100 100 100 100 99 91 100 94 100 100 80 83 58 89 51 28 86 100 77 87 100 98 100 100 100 100 96 28 90 100 100 95 30 16 60 8
100 100 100 100 100 100 98 5 13 93 9 99 10 10 100 99 100 100 100 100 100 100 100 90 100 96 60 11 83 96 100 100 93 100 100 100 100 100 100 91 29 20 13
100 100 100 46 15 6 16 78 10 5 5 19 87 100 100 100 78 81 100 100 98 100 99 90 81 52 34 51 88 89 100 100 100 80 100 100 100 100 100 95 80 58 73

GFSSE_prec_cloud_045.txt.gz
Cloud_Cover
100 99 100 76 5 67 100 100 100 100 100 90 11 20 82 81 6 0 3 1 5 11 4 4 0 4 4 0 0 6 0 0 0 0 0 29 98 100 77 0 100 7 17
98 98 94 97 5 6 100 100 100 100 100 98 92 100 100 94 99 92 32 5 9 64 31 89 100 5 5 3 0 0 0 0 0 0 0 0 11 25 9 0 0 16 13
100 99 76 35 5 62 100 100 100 100 100 100 100 100 100 100 100 100 26 5 7 71 100 15 85 56 0 0 0 0 0 0 0 13 100 100 100 36 3 26 95 92 70
100 74 100 5 3 93 100 100 100 100 100 100 100 100 100 100 100 100 45 4 3 92 60 63 84 5 1 0 3 2 0 0 0 0 57 100 100 100 100 100 100 92 75
100 100 100 55 25 80 100 100 100 100 100 100 100 100 100 100 100 100 31 31 14 46 40 60 100 100 6 3 4 2 4 3 5 39 44 92 100 100 49 55 100 86 30
100 100 45 78 100 100 100 100 100 100 100 100 100 100 100 100 100 98 16 25 6 5 99 100 90 48 5 99 3 5 86 29 78 5 44 7 36 8 38 33 91 30 54
100 60 100 100 100 100 100 100 100 100 100 100 100 100 100 100 100 100 81 44 70 20 42 100 100 100 100 8 5 72 5 5 5 0 0 4 2 2 2 80 100 100 100
47 87 100 100 100 100 100 100 100 100 100 100 100 100 100 100 99 100 96 48 33 9 47 21 92 77 5 32 89 32 5 45 5 5 5 3 4 4 49 29 2 47 1
82 100 100 100 100 100 100 100 100 100 100 100 100 100 100 100 99 99 83 5 5 5 33 98 100 46 14 96 100 100 81 99 25 6 5 7 7 9 100 92 19 1 1
100 100 100 100 100 100 100 100 100 100 100 100 100 100 100 45 64 99 64 5 5 51 16 100 100 99 100 100 100 100 100 100 94 91 54 66 14 10 33 30 5 0 0
100 100 100 100 100 100 100 100 100 100 100 100 100 93 99 56 65 14 14 36 26 65 67 100 100 71 60 99 100 98 97 100 100 99 57 12 100 100 100 38 5 5 2
100 100 100 100 100 100 100 100 100 100 100 100 100 100 98 31 11 4 7 82 36 90 23 99 100 100 15 44 95 70 100 100 98 88 95 94 100 100 100 45 100 83 16
100 100 100 100 100 100 100 100 100 100 100 100 100 100 67 43 92 5 26 72 51 70 68 100 99 99 44 62 18 63 78 92 97 100 100 100 100 100 22 100 100 100 100
100 100 100 100 100 100 100 100 100 100 100 100 100 100 99 99 37 63 84 99 89 98 69 96 99 100 96 93 99 86 47 84 100 100 100 100 83 100 100 100 100 100 100
100 100 100 100 100 100 100 100 100 100 100 100 100 100 100 80 96 31 46 100 76 93 100 96 98 100 100 100 100 100 100 100 100 100 100 100 99 100 100 100 100 100 100
100 100 100 100 100 100 100 100 100 100 100 100 100 81 100 92 97 44 94 97 98 64 49 81 98 100 100 99 100 100 100 100 100 100 100 100 97 100 100 100 100 100 100
100 100 100 100 100 100 100 100 100 100 100 100 100 100 94 98 88 100 97 100 70 100 98 100 90 100 100 100 100 100 96 100 100 100 100 100 100 100 100 100 100 100 100
100 100 100 100 100 100 100 100 100 100 100 100 100 100 100 76 100 98 100 94 97 100 100 100 100 100 100 100 100 100 93 81 100 100 100 100 100 100 100 100 100 100 100
100 100 100 100 100 100 100 100 100 100 100 100 100 100 100 96 73 100 96 100 100 89 100 100 100 100 100 100 100 100 100 100 100 100 100 100 100 100 100 100 100 100 72
100 100 100 100 100 100 100 100 100 100 100 100 100 100 100 99 100 87 90 100 100 100 100 100 100 100 100 100 100 100 100 100 100 100 100 100 100 100 100 100 100 34 27
100 100 100 100 100 100 100 100 100 100 100 100 100 100 100 97 74 100 100 100 96 97 100 100 96 51 100 100 100 100 100 100 100 100 100 100 100 96 79 93 100 24 13
98 100 100 100 100 100 100 100 100 100 100 100 100 100 100 99 93 100 100 81 81 74 100 100 100 100 100 100 100 100 100 100 100 100 100 100 98 82 72 92 37 70 100
64 67 100 100 100 100 100 100 100 100 100 100 100 100 100 100 100 100 100 98 100 100 100 100 100 98 100 98 100 74 100 42 27 68 24 52 97 100 100 100 100 100 100
40 36 100 100 100 100 100 100 100 100 100 100 100 100 100 100 100 100 100 100 100 40 46 99 92 66 99 100 100 99 52 100 8 94 96 84 92 99 100 100 100 100 100
53 73 92 100 100 100 100 100 100 100 100 100 86 100 100 95 91 100 100 100 92 11 67 77 62 96 99 91 87 63 100 82 79 100 100 86 95 92 100 100 100 100 100
1 58 94 82 100 100 100 100 100 100 100 100 100 93 100 100 98 33 84 52 7 33 100 95 97 100 100 100 77 100 73 39 100 92 83 58 100 100 100 100 100 100 100

GFSSE_prec_cloud_048.txt.gz
Cloud_Cover
20 45 96 100 100 46 57 8 78 100 96 100 100 100 100 93 70 94 71 29 44 93 52 34 11 9 14 12 2 10 0 0 2 3 55 94 75 82 2 21 3 45 61
29 40 94 100 100 99 6 5 56 100 100 99 100 98 42 60 81 92 97 100 100 100 100 44 3 35 66 24 4 3 24 1 0 11 45 100 92 100 36 14 18 100 100
94 80 93 86 100 53 5 4 100 100 100 100 100 75 100 100 100 100 97 100 100 100 100 72 9 5 22 11 87 95 0 2 16 58 20 2 4 3 91 71 5 2 9
100 67 56 99 100 100 66 2 42 100 100 100 100 100 100 100 100 100 100 96 100 87 98 53 77 19 0 2 4 4 40 57 36 95 85 96 100 100 87 90 100 100 98
69 100 100 94 69 81 100 5 59 100 100 100 80 100 100 100 100 100 100 100 95 93 64 61 12 5 5 33 100 99 40 5 0 23 97 100 94 97 100 93 96 100 100
97 100 91 97 76 100 100 100 99 100 100 100 100 100 100 100 100 100 94 100 100 95 51 5 8 80 52 98 100 98 96 6 0 1 42 63 72 20 87 100 100 100 100
100 100 94 100 100 43 27 99 100 100 100 100 100 100 100 100 100 100 67 96 52 9 88 85 31 5 5 5 20 94 73 5 5 37 37 6 0 44 90 100 100 100 100
100 100 99 98 100 61 100 100 100 100 100 100 100 100 100 100 100 100 95 99 13 38 47 100 44 18 32 5 8 5 50 12 5 67 79 93 62 50 11 5 2 4 5
100 100 100 80 89 100 100 100 100 100 100 100 100 100 100 100 100 100 48 20 5 100 88 9 70 45 55 13 5 92 78 62 100 100 100 100 65 86 54 16 27 80 5
100 92 100 99 100 100 100 100 100 100 100 100 100 100 100 100 100 100 30 40 83 100 77 67 99 100 75 23 40 100 98 89 69 100 100 100 100 84 66 100 99 100 100
100 100 100 100 100 100 100 100 100 100 100 100 91 100 100 91 79 100 62 92 99 100 96 35 98 100 100 94 32 100 100 100 99 94 94 100 90 100 100 74 76 41 77
100 100 100 100 100 100 100 100 100 100 100 100 100 100 100 99 100 100 97 5 60 100 100 98 100 70 100 99 73 100 100 100 100 100 100 100 100 100 100 100 98 93 29
100 100 100 100 100 100 100 100 100 100 100 100 100 100 100 96 100 100 44 53 27 100 100 77 62 55 100 100 100 100 84 74 100 100 100 100 100 100 100 100 100 100 100
100 100 100 100 100 100 100 100 100 100 100 100 100 100 100 100 100 92 98 61 42 100 100 100 18 66 100 100 100 100 100 100 100 100 100 100 100 100 100 100 100 100 100
100 100 100 100 100 100 100 100 100 100 100 100 100 100 100 100 100 100 91 98 57 99 99 100 67 64 100 100 88 92 96 88 95 98 98 100 100 100 100 100 100 100 100
100 100 100 100 100 100 100 100 100 100 100 100 100 100 100 100 93 96 100 93 99 96 98 100 100 100 100 100 100 100 100 98 100 94 100 100 100 100 100 100 100 100 100
100 100 100 100 100 100 100 100 100 100 100 100 100 100 100 100 100 87 100 92 100 97 66 96 100 100 100 100 100 100 100 99 100 85 98 100 98 100 100 100 100 100 100
100 100 100 100 100 100 100 100 100 100 100 100 100 96 100 100 95 100 100 100 100 97 96 97 100 100 100 100 100 100 100 96 100 100 99 100 100 100 100 100 100 100 100
100 100 100 100 100 100 100 100 100 100 100 100 100 100 100 100 100 100 100 100 100 100 100 100 100 100 100 98 100 100 100 100 100 85 100 100 100 100 100 100 100 100 100
100 100 100 100 100 100 100 100 100 100 100 100 98 99 100 100 100 100 98 100 100 99 100 96 86 100 99 100 100 100 100 100 100 100 100 100 100 100 100 100 100 100 100
100 100 100 100 100 100 100 100 100 100 100 100 100 100 99 100 100 100 100 100 68 56 88 72 99 100 100 97 100 100 100 100 100 100 100 100 100 100 100 35 74 78 99
100 100 100 100 100 100 100 100 100 100 100 100 100 100 100 100 100 100 96 100 100 100 92 64 100 88 100 100 100 100 100 99 98 98 50 57 6 5 66 57 100 100 100
100 100 100 100 100 100 100 100 100 100 100 100 100 100 100 100 100 100 100 100 100 100 93 100 79 100 90 100 100 77 55 88 54 100 100 35 65 27 5 94 98 82 100
100 83 100 100 100 100 100 100 100 100 100 100 100 100 100 100 100 100 100 100 100 90 100 71 98 96 100 70 39 46 90 50 66 18 5 5 33 100 61 100 93 95 100
100 100 84 100 100 100 100 100 100 100 100 100 100 100 100 100 100 100 100 100 84 98 100 98 99 100 90 85 17 68 100 100 100 100 96 100 96 13 54 100 100 100 100
80 88 51 35 34 100 100 100 100 100 100 100 100 100 100 100 100 100 100 100 100 86 100 79 100 71 94 24 65 100 100 100 100 100 100 100 88 100 94 87 95 59 100

GFSSE_prec_cloud_051.txt.gz
Cloud_Cover
0 0 0 0 48 100 100 100 100 84 93 25 99 97 100 100 100 100 98 99 100 100 100 100 100 100 100 100 30 2 0 0 0 1 20 44 62 78 25 11 100 58 38
0 0 0 3 89 100 100 100 100 47 12 22 99 100 100 100 100 100 100 100 100 100 100 92 98 99 19 2 1 3 4 2 0 0 3 8 61 86 55 69 28 69 59
0 13 2 0 100 100 100 100 100 88 29 13 98 100 100 100 100 100 100 100 100 100 82 11 4 4 50 62 9 32 96 2 85 56 2 7 84 100 47 10 100 100 99
13 37 10 5 10 100 100 100 100 15 51 100 100 100 100 100 100 100 100 100 100 99 27 16 11 4 6 0 2 5 3 2 25 50 60 2 7 63 69 48 63 78 67
85 86 22 3 9 7 78 86 100 97 100 89 100 100 97 96 100 100 100 100 100 100 90 100 39 38 5 13 42 42 22 73 43 25 69 90 20 100 44 69 5 7 3
88 66 23 100 49 70 98 91 37 27 100 100 100 100 100 100 100 100 100 100 71 100 100 81 5 3 8 6 5 7 5 13 5 5 6 6 33 91 67 33 99 14 10
99 57 45 5 100 77 100 81 6 40 100 100 100 100 97 100 100 100 100 100 100 63 6 30 62 51 5 5 5 4 5 5 5 5 5 97 40 53 80 98 92 87 39
100 92 26 26 79 100 100 25 97 61 56 99 100 95 100 100 100 100 100 100 79 83 96 5 5 5 43 20 20 23 10 72 14 20 5 39 94 88 7 8 16 5 6
88 100 100 100 100 100 100 100 100 100 70 100 100 100 100 100 100 100 100 100 100 94 93 54 14 27 85 68 52 100 82 100 100 100 93 77 99 47 31 91 51 12 13
100 100 100 100 100 100 100 100 100 39 89 100 100 100 100 100 100 100 100 100 100 54 59 79 100 99 100 99 100 100 100 76 100 100 98 100 42 81 85 55 99 98 41
100 100 99 100 100 100 100 100 100 98 100 100 100 100 100 100 100 100 100 100 100 9 95 99 32 99 98 34 74 100 100 73 99 100 100 99 91 100 56 76 95 66 96
100 100 100 100 100 100 100 100 100 100 100 100 100 100 100 100 100 100 100 100 100 99 99 95 45 100 98 48 76 99 91 99 100 100 100 100 96 100 100 100 100 91 73
97 100 100 100 100 100 100 100 100 100 100 100 100 100 100 100 100 79 99 84 81 25 96 80 32 96 97 98 92 81 35 76 100 95 100 100 100 100 81 52 81 98 100
100 100 100 100 100 100 100 100 100 100 100 100 100 100 100 100 100 80 99 96 76 70 86 80 99 82 100 71 24 69 100 80 87 80 96 73 100 100 100 100 100 100 100
100 100 100 100 100 100 100 100 100 100 100 100 98 100 100 100 100 100 75 70 92 95 95 97 92 34 100 91 86 78 94 98 64 94 100 100 100 100 100 100 100 100 97
100 100 100 100 100 100 100 100 100 100 100 100 100 100 100 100 100 100 100 100 100 83 86 61 69 100 100 98 91 100 93 91 100 100 100 100 100 100 100 100 100 100 100
100 100 100 100 100 100 100 100 100 100 100 100 100 100 100 100 100 100 100 100 84 97 96 89 67 85 88 72 68 100 84 100 98 86 99 100 100 97 100 100 100 100 100
100 100 100 100 100 100 100 100 100 100 100 100 100 99 100 100 100 100 100 100 100 93 63 86 87 67 38 12 55 86 100 100 78 94 100 100 100 100 100 100 100 100 100
100 100 100 100 100 100 100 100 100 100 100 100 100 100 100 100 100 100 98 69 98 86 93 80 100 92 86 88 96 100 100 83 98 100 100 100 94 100 100 100 100 100 100
100 100 100 100 100 100 100 100 100 100 100 100 100 100 100 100 100 88 66 90 99 83 96 94 100 81 93 98 100 100 100 100 74 100 100 100 100 100 100 100 100 97 5
93 100 100 100 100 100 100 100 100 100 100 100 100 100 100 100 100 100 100 100 95 100 94 94 94 99 90 100 100 99 95 88 72 100 100 100 100 100 24 96 7 23 99
78 100 100 100 100 100 100 100 100 100 100 100 100 100 100 100 100 100 90 100 87 96 80 100 99 64 74 77 63 71 99 100 100 100 100 100 90 100 43 28 14 5 94
74 99 100 100 100 100 100 100 100 100 100 100 100 100 100 100 100 100 100 100 92 100 94 98 98 71 74 98 87 91 79 84 30 53 50 61 100 73 5 16 11 6 58
15 76 100 100 100 100 100 100 100 100 100 100 100 100 100 100 100 100 100 100 100 100 100 100 100 100 87 49 100 95 100 76 90 81 99 64 40 5 92 35 23 76 23
53 44 92 100 100 100 100 100 100 100 100 100 100 100 100 100 100 100 100 100 100 100 100 100 100 100 100 98 99 50 78 36 99 59 98 90 98 100 5 83 9 89 29
54 100 96 96 100 100 100 100 100 100 100 100 100 100 100 100 100 100 100 100 100 100 100 100 100 100 76 64 27 90 5 30 99 91 100 100 100 100 73 96 100 75 100

GFSSE_prec_cloud_054.txt.gz
Cloud_Cover
89 84 0 2 0 0 5 64 80 100 65 72 52 58 89 75 100 100 96 87 100 88 30 92 100 100 100 100 94 74 32 0 0 0 0 78 83 35 0 15 67 82 79
97 42 10 13 78 2 5 26 95 100 72 59 51 100 70 100 100 100 100 96 77 49 100 100 100 94 54 89 11 5 1 0 1 0 1 82 79 64 58 98 44 74 48
53 66 0 0 0 0 5 100 100 100 100 97 91 59 75 98 100 88 100 100 100 100 100 100 62 24 10 14 0 0 0 4 9 1 10 97 96 100 73 24 61 91 53
45 68 29 0 0 34 6 93 100 100 100 95 61 65 91 98 100 100 100 100 100 100 100 98 78 75 1 2 1 0 0 0 0 1 4 7 99 93 100 95 100 99 73
33 68 40 4 0 13 90 20 98 100 100 8 30 97 100 100 100 100 100 100 100 100 99 36 66 24 5 4 4 2 47 31 3 1 0 0 6 91 72 32 36 3 40
37 90 92 2 5 5 86 87 38 100 100 97 98 100 94 99 100 100 100 100 100 100 96 54 14 5 5 6 0 3 0 5 5 5 5 5 5 5 5 0 5 5 8
59 86 94 8 64 76 100 81 67 84 59 100 100 100 100 100 100 100 100 100 100 100 100 100 100 98 36 32 6 3 5 5 5 5 16 80 15 20 30 5 6 5 5
37 73 96 91 100 96 95 100 100 66 48 100 100 100 100 100 100 84 99 100 100 100 100 100 100 87 9 33 94 21 6 27 8 10 5 69 76 18 6 47 7 5 8
37 100 100 100 100 96 100 97 100 39 69 54 100 100 100 100 100 98 100 100 100 100 100 100 88 100 54 65 42 6 45 48 46 14 15 37 7 62 40 76 89 92 35
63 100 100 100 100 100 100 100 100 100 91 17 83 100 100 100 100 100 100 100 100 100 100 100 100 25 86 98 76 20 8 58 96 68 99 92 91 73 90 5 24 48 13
75 100 100 100 100 100 100 100 100 100 100 93 99 100 100 100 100 100 100 100 100 100 99 100 46 5 18 6 55 5 30 77 99 99 94 98 87 83 100 82 83 13 93
97 100 100 100 100 100 90 100 100 99 100 88 100 100 100 100 100 100 100 100 100 100 100 100 100 12 95 29 5 22 95 100 99 100 96 100 100 98 99 100 93 78 100
77 100 100 100 100 100 100 100 100 100 100 100 100 100 100 100 100 100 100 100 100 100 100 73 30 95 8 43 95 78 73 100 100 100 100 82 100 100 82 56 100 96 100
100 100 100 100 100 100 100 100 100 100 100 100 100 100 100 100 100 100 100 100 100 100 23 5 31 45 64 97 100 100 100 100 11 71 67 94 100 100 100 100 100 100 100
100 100 100 100 100 100 100 100 100 100 100 100 100 100 100 100 100 100 100 100 100 60 75 53 75 51 72 66 100 100 100 100 95 71 74 100 100 100 100 100 100 100 100
100 100 100 100 100 100 100 100 100 100 100 100 100 100 100 100 100 100 100 100 63 49 58 76 42 35 23 77 100 98 84 90 98 92 86 90 100 100 100 100 100 100 100
100 100 100 100 100 100 100 100 100 100 100 100 100 100 100 100 100 100 100 100 46 7 73 65 92 98 92 100 100 100 91 85 94 83 49 88 99 100 100 100 100 97 100
100 100 100 100 100 100 100 100 100 100 100 100 100 100 100 100 100 100 100 100 95 100 31 84 100 100 98 94 30 64 97 100 99 93 80 94 100 100 100 100 100 100 100
100 100 100 100 100 100 100 100 100 100 100 100 100 100 100 100 100 100 100 100 94 94 89 76 54 54 75 29 75 53 73 96 99 85 93 100 100 100 100 95 100 100 100
100 100 100 100 100 100 100 100 100 100 100 100 100 100 100 100 100 100 100 100 100 100 95 70 86 32 5 50 100 66 78 100 73 97 100 71 91 100 100 100 100 100 100
89 100 100 100 100 100 100 100 100 100 100 100 100 100 100 100 100 100 100 100 100 98 100 91 100 70 29 42 93 95 69 73 100 90 100 100 100 100 100 100 100 100 100
88 100 100 100 100 100 100 100 100 100 100 100 100 100 100 100 100 100 100 100 90 89 100 92 92 41 72 97 47 100 58 92 50 99 59 100 100 100 100 100 100 100 100
91 99 100 100 100 100 100 100 100 100 100 100 100 100 100 100 100 100 97 98 96 61 88 100 92 100 80 96 100 76 74 65 78 100 97 99 100 94 90 99 100 100 72
3 100 96 100 100 100 100 100 100 100 100 100 100 100 100 100 100 100 100 100 100 100 100 100 96 100 100 100 100 100 98 61 64 68 75 51 93 93 78 73 6 5 5
0 31 100 97 100 100 100 100 100 100 100 100 100 100 100 100 100 100 100 100 100 100 100 100 100 100 100 100 100 100 100 100 100 96 100 99 91 52 100 100 50 71 37
0 4 84 100 100 100 100 100 100 100 100 100 100 100 100 100 100 100 100 100 100 100 100 100 100 100 100 100 100 100 100 100 89 100 84 92 38 44 100 100 100 96 50

GFSSE_prec_cloud_057.txt.gz
Cloud_Cover
0 0 0 0 15 0 1 5 52 65 4 2 5 5 5 6 94 100 71 100 94 97 95 100 54 88 79 92 44 98 21 5 5 0 0 0 28 36 0 6 70 81 54
0 5 11 8 16 0 11 2 2 30 30 7 5 5 5 13 80 94 99 100 100 57 100 99 12 100 95 100 91 100 26 19 7 2 0 97 100 98 35 33 68 61 29
7 39 0 10 48 17 28 42 18 4 95 99 38 22 37 17 57 24 100 100 100 100 81 95 14 86 100 22 5 81 0 0 1 0 28 99 82 60 51 5 14 6 87
0 37 0 4 91 2 0 2 0 18 54 100 80 66 72 68 84 100 53 100 100 100 96 100 86 100 95 99 62 0 0 0 0 1 5 95 84 77 66 34 100 100 100
16 33 45 0 0 0 0 0 0 1 62 100 100 96 100 100 100 100 91 100 94 100 100 100 100 100 100 5 10 3 0 0 0 29 1 20 99 100 97 100 98 29 2
5 36 100 0 0 0 1 0 29 58 78 99 100 97 100 64 88 27 44 100 100 100 100 100 100 100 66 2 20 0 0 0 0 2 8 1 17 97 81 4 1 0 2
22 72 99 52 1 1 0 28 86 100 80 85 99 100 67 94 84 94 94 100 100 97 100 100 100 100 100 98 7 14 5 1 4 0 1 9 14 27 4 13 5 5 6
48 32 100 100 100 83 1 100 100 100 100 100 100 94 100 100 86 91 100 100 100 100 100 100 100 100 100 95 91 22 6 20 39 3 1 3 51 4 5 5 6 6 7
80 68 100 100 100 93 63 100 100 100 100 100 100 100 100 100 100 100 100 100 100 100 100 100 100 100 100 100 100 100 10 4 5 5 5 5 4 5 40 85 24 46 29
50 93 100 100 100 90 100 100 100 100 100 100 100 100 100 100 100 89 81 98 100 100 100 100 100 100 100 100 100 95 96 98 79 10 5 46 33 100 100 99 100 100 51
55 100 100 100 99 97 94 100 100 100 100 100 100 100 100 100 98 100 81 87 100 100 100 100 100 100 100 100 79 99 97 12 42 39 81 100 70 100 100 84 78 100 100
100 100 100 100 94 66 100 100 100 100 100 100 92 100 100 100 100 100 100 100 100 100 100 100 100 93 22 29 61 64 7 42 64 65 93 97 97 100 100 96 98 100 99
54 100 100 100 100 90 42 100 100 100 100 100 100 96 100 100 100 100 100 100 100 100 100 100 100 100 100 100 41 19 12 27 22 94 81 100 100 85 98 100 97 100 100
78 100 100 100 100 100 7 100 100 100 100 100 100 100 100 100 100 100 100 100 100 100 100 100 100 99 100 100 64 22 67 82 33 100 100 99 100 83 40 82 100 100 100
96 100 100 100 100 100 86 70 100 100 100 100 100 100 100 100 100 100 100 100 100 100 100 100 100 100 100 66 12 62 82 91 95 100 100 100 99 87 67 100 100 100 100
93 100 100 100 100 99 93 98 100 100 100 100 100 100 100 100 100 100 100 100 100 100 100 100 100 100 60 79 16 48 48 92 100 99 100 100 91 96 83 100 100 100 100
100 100 100 100 100 100 100 100 100 100 100 100 100 100 100 100 100 100 100 100 100 100 100 100 100 56 94 20 76 100 100 100 100 100 92 34 95 100 100 100 100 100 100
85 100 100 100 100 100 100 100 100 100 100 100 100 100 100 100 100 100 100 100 100 100 100 100 98 11 9 92 100 100 96 86 96 84 92 76 95 95 100 100 100 100 100
96 100 100 100 100 100 100 100 100 100 100 100 100 100 100 100 100 100 100 100 100 100 100 100 76 13 38 92 49 100 100 36 49 82 42 12 62 100 100 100 100 100 100
99 100 100 100 100 100 100 100 100 100 100 100 100 100 100 100 100 100 100 100 100 100 98 93 77 70 92 100 86 38 43 47 66 23 62 71 100 98 100 95 100 100 100
100 100 100 100 100 100 100 100 100 100 100 100 100 100 100 100 100 100 100 100 100 100 100 99 100 98 59 100 95 80 96 62 95 66 93 100 81 100 67 100 100 100 100
81 100 100 100 100 100 100 100 100 100 100 100 100 100 100 100 100 100 100 100 100 100 100 89 76 100 100 86 98 100 51 63 78 83 100 79 97 100 100 100 100 100 100
35 71 100 100 100 100 100 100 100 100 100 100 100 100 100 100 100 100 100 100 100 100 100 99 100 100 100 100 100 33 64 62 97 100 100 100 100 100 100 100 85 94 45
0 88 99 100 100 100 100 100 100 100 100 100 100 100 100 100 100 100 100 100 100 100 100 100 100 99 100 72 88 100 100 100 100 100 100 100 100 100 100 100 96 81 95
0 32 81 100 100 100 100 100 100 100 100 100 100 100 100 100 100 100 100 100 100 100 100 100 100 97 100 100 100 100 100 100 100 100 100 100 100 100 100 100 100 100 100
0 4 81 85 100 100 100 100 100 100 100 100 100 100 100 100 100 100 99 100 100 100 100 100 100 100 100 100 100 100 100 100 100 100 100 100 100 100 100 100 26 100 100

GFSSE_prec_cloud_060.txt.gz
Cloud_Cover
0 0 0 0 0 0 11 29 1 16 2 0 0 0 3 0 6 12 5 5 5 12 24 5 2 8 27 32 25 72 70 93 5 5 5 50 81 56 2 18 81 85 18
0 0 2 0 10 0 64 20 4 5 65 34 6 1 2 2 1 65 82 5 5 36 69 93 97 100 100 94 100 29 31 82 10 6 46 99 100 100 64 46 100 99 100
0 0 0 0 0 0 0 1 2 1 0 2 75 6 5 2 5 5 100 90 49 71 73 100 100 100 100 33 17 9 88 100 28 5 44 96 100 100 89 37 0 18 57
0 0 0 0 23 1 0 0 1 0 2 11 40 7 5 20 4 5 12 100 100 59 100 100 100 100 47 11 99 100 100 66 1 2 94 100 100 100 97 94 100 72 98
0 10 0 0 2 36 0 0 18 0 5 87 81 88 97 97 13 92 100 100 100 100 97 100 100 100 86 90 100 100 100 0 32 0 100 100 100 100 100 100 100 99 43
0 43 0 0 0 17 13 1 5 2 0 1 87 79 100 100 100 100 100 100 100 52 99 100 98 100 100 99 100 100 100 58 100 64 0 100 100 100 100 100 99 92 93
0 4 0 3 0 0 2 1 6 58 100 100 95 100 100 100 100 100 100 100 100 85 100 100 100 100 100 100 100 100 100 62 57 0 1 12 100 98 9 51 0 0 9
0 0 7 79 83 92 69 70 100 100 100 100 100 100 100 99 100 91 100 100 85 48 100 100 100 94 93 100 100 100 100 78 21 4 6 63 50 14 0 2 5 1 3
0 28 55 34 100 97 92 96 100 100 100 100 100 100 100 100 100 78 100 87 100 100 73 100 100 100 100 100 100 100 100 100 100 53 5 8 20 5 62 17 75 64 86
26 5 19 78 100 100 84 100 100 100 100 100 100 100 100 100 100 100 100 100 100 100 94 97 93 100 100 100 100 100 100 100 13 16 22 25 0 28 33 78 76 74 100
55 48 90 100 100 99 100 100 100 100 100 100 100 100 100 100 100 100 100 100 100 100 100 100 100 100 100 100 100 99 91 58 32 38 4 23 9 92 100 100 100 100 63
3 83 100 76 99 100 100 100 100 100 100 100 100 100 100 100 100 99 100 94 100 100 100 100 100 100 100 100 100 100 100 100 34 5 4 100 100 98 68 100 94 51 33
8 88 100 74 93 100 100 100 100 100 100 100 100 100 100 100 100 100 100 100 93 100 100 100 100 100 100 100 100 100 100 45 5 8 51 96 100 100 100 99 80 97 25
79 100 100 99 99 96 100 100 100 100 100 100 100 100 100 100 100 100 100 100 100 100 100 100 100 100 100 100 100 96 100 68 6 5 15 98 100 100 98 99 98 97 52
51 86 100 98 99 79 100 100 100 100 100 100 100 100 100 100 100 100 100 100 100 100 100 100 100 100 100 100 100 92 96 76 70 37 98 100 100 100 100 80 24 95 50
28 76 92 100 100 100 84 100 100 100 100 100 100 89 100 100 100 100 100 100 100 100 100 100 100 100 100 100 100 100 100 100 100 100 100 100 98 78 47 100 100 100 95
35 59 100 100 100 100 87 98 100 100 100 100 100 100 100 100 100 100 100 100 100 100 100 100 100 100 100 100 82 74 6 16 100 100 100 100 99 40 99 100 100 81 87
87 47 100 74 100 88 100 99 100 100 98 99 100 100 100 100 100 100 100 100 100 100 100 100 100 100 100 100 100 66 94 82 100 100 98 97 100 99 72 78 72 65 100
85 99 72 98 100 94 100 100 100 100 100 100 100 100 100 100 100 100 100 100 100 100 100 100 100 100 100 100 100 100 100 100 100 100 100 60 44 64 85 98 97 100 100
6 100 100 88 100 100 100 100 100 100 100 100 100 100 100 100 100 100 100 100 100 100 100 100 100 100 100 100 100 100 100 100 16 75 85 51 66 87 75 97 100 100 100
4 82 100 100 100 100 100 100 100 100 100 100 100 100 100 100 100 100 100 100 100 100 100 100 100 100 100 100 100 100 100 65 94 68 96 47 87 9 92 100 100 100 100
5 98 100 100 100 100 100 100 100 100 100 100 100 100 100 100 100 100 100 100 100 100 100 100 100 100 100 100 100 100 86 71 97 86 28 20 6 91 100 100 100 100 100
0 88 100 100 100 100 77 100 100 100 100 100 100 100 100 100 100 94 100 100 100 100 100 100 100 100 100 100 100 94 75 100 37 16 53 43 100 100 100 100 100 100 100
0 18 100 100 100 100 99 100 92 100 99 100 100 100 100 100 100 99 100 100 100 100 100 100 100 98 100 100 100 100 99 39 65 100 96 100 100 100 100 100 100 100 100
0 1 100 100 100 100 100 100 100 100 98 86 100 100 100 100 100 100 100 100 100 100 100 100 94 100 100 100 100 99 61 67 26 100 100 100 100 100 100 100 100 100 100
0 0 50 100 100 100 100 100 99 100 100 100 100 100 100 100 100 100 100 100 100 100 100 100 100 100 100 100 100 97 100 100 100 100 100 100 100 100 100 100 100 100 100

GFSSE_prec_cloud_066.txt.gz
Cloud_Cover
79 54 0 0 1 0 0 0 0 0 0 0 0 4 6 4 5 5 1 2 4 5 2 13 0 0 20 100 36 0 0 0 0 2 88 89 93 100 86 85 76 16 41
2 46 0 0 13 8 0 0 0 0 0 0 0 0 33 19 5 5 5 5 67 51 22 5 5 94 100 94 5 2 47 3 60 85 96 73 91 99 98 89 95 23 4
4 50 3 0 0 1 9 0 0 13 4 0 0 2 87 11 1 5 5 5 82 99 97 42 8 100 100 11 5 5 38 5 100 100 65 100 100 100 100 100 100 100 57
0 24 47 0 1 12 7 0 0 6 58 52 0 5 5 5 4 5 5 5 5 41 100 92 100 100 68 37 25 6 100 100 91 80 100 98 100 100 100 100 100 100 100
0 1 45 1 0 2 0 0 0 14 13 18 2 4 4 5 5 5 5 84 97 85 37 100 100 97 6 81 98 100 100 83 20 100 100 100 100 100 100 100 100 100 100
0 0 11 12 0 0 0 0 0 15 20 56 38 72 42 6 5 5 5 5 6 83 87 100 75 21 31 28 100 100 7 92 100 100 100 100 100 100 74 16 98 100 60
0 0 21 20 12 0 0 0 58 100 88 100 98 37 100 79 100 100 40 5 5 5 97 11 10 100 100 34 99 55 24 92 100 100 100 100 97 100 46 96 69 98 74
0 0 0 53 33 0 0 12 76 100 100 100 92 95 100 100 100 100 87 93 100 71 51 34 8 17 44 97 100 70 30 98 100 100 100 100 100 100 77 100 100 100 100
0 0 0 98 55 5 0 8 100 100 100 100 100 100 100 100 100 100 100 100 100 100 98 100 97 76 29 100 100 65 41 100 100 100 100 100 100 100 79 36 92 50 38
0 0 0 88 100 100 97 100 100 100 100 100 100 100 100 100 100 100 100 100 95 90 100 100 100 51 100 100 98 100 100 99 100 100 100 100 100 51 96 5 4 16 100
2 0 0 0 44 100 100 87 100 100 100 100 100 100 100 100 100 100 100 100 100 100 100 76 92 55 100 100 100 100 100 38 100 100 100 100 100 69 96 24 30 92 100
11 1 0 11 58 80 99 95 100 100 98 100 100 100 100 100 100 100 100 90 100 91 96 73 99 58 100 100 100 100 100 100 100 100 100 100 100 100 29 56 97 100 100
0 14 17 55 87 96 100 100 100 100 100 100 100 100 100 100 100 100 100 100 68 100 100 100 100 98 100 100 100 51 100 100 100 100 100 100 100 18 32 99 95 100 92
25 18 38 68 100 100 100 100 100 100 100 100 100 100 100 100 100 100 100 100 100 100 99 73 30 52 81 100 100 100 100 100 100 100 100 100 100 100 88 93 100 100 71
19 23 40 98 100 100 100 100 100 100 100 100 100 100 100 100 100 100 100 100 98 100 78 85 96 82 100 100 100 100 100 100 100 100 100 100 100 100 97 100 100 100 99
21 17 42 48 100 100 100 100 100 100 100 100 100 100 100 100 100 100 81 100 100 100 97 100 99 92 100 100 100 100 99 100 100 100 100 100 100 100 100 100 100 100 100
3 6 10 39 100 100 100 100 100 100 100 100 100 100 100 100 100 100 96 100 100 100 100 100 100 74 100 100 100 99 90 100 100 100 100 100 100 100 100 100 100 100 100
4 6 21 33 85 92 100 100 100 100 100 100 100 100 100 100 100 100 100 100 100 100 100 100 100 98 98 100 100 100 100 100 100 100 100 100 100 100 100 100 100 100 100
13 23 64 55 100 100 100 100 100 100 100 100 100 100 100 100 100 100 100 100 100 100 100 100 100 96 87 98 100 100 89 100 100 100 100 100 100 100 100 100 100 100 100
46 13 21 100 100 98 100 88 100 100 100 100 100 100 100 100 100 100 100 100 100 100 98 100 100 100 88 100 100 100 100 100 100 100 100 100 100 100 100 100 100 100 100
74 58 35 93 100 100 100 100 100 100 100 100 100 100 100 100 100 100 100 100 100 100 100 100 100 100 100 100 100 100 100 100 100 100 100 100 100 100 100 76 100 86 100
88 37 26 80 100 100 100 100 100 100 100 100 100 100 100 100 100 100 100 100 100 100 100 100 100 95 100 100 100 100 100 100 100 100 100 100 88 92 82 76 91 100 100
98 55 42 71 100 100 100 100 100 100 100 100 100 100 100 100 100 100 100 100 100 100 100 100 98 100 100 100 100 100 100 100 100 100 100 93 100 100 92 87 100 100 100
68 44 35 37 99 100 100 100 71 100 100 100 100 100 100 100 100 100 100 100 100 100 100 100 100 100 100 100 100 100 100 100 100 100 100 100 94 84 100 99 96 100 100
42 66 45 45 81 100 100 98 71 80 100 100 100 100 100 100 100 100 100 100 100 100 100 100 100 100 100 100 100 100 100 100 91 98 100 100 100 100 100 100 100 86 41
57 81 69 46 50 100 100 100 72 99 100 100 100 100 100 100 100 100 100 100 100 100 100 100 100 100 100 100 100 100 100 100 100 100 100 100 100 93 100 100 100 100 100

GFSSE_prec_cloud_069.txt.gz
Cloud_Cover
16 51 1 0 4 39 14 1 0 28 16 27 2 0 0 0 0 0 2 5 5 5 4 0 0 0 6 17 32 0 0 0 0 0 2 43 100 100 97 76 94 5 1
2 51 1 3 41 23 13 14 0 0 32 62 24 0 0 0 3 14 5 5 5 5 53 5 4 4 97 84 1 1 5 5 3 5 78 100 100 99 100 75 100 12 0
40 57 26 0 39 0 12 7 3 0 0 4 33 36 2 0 5 5 3 5 5 5 99 6 5 5 72 12 43 5 5 79 79 30 99 100 93 100 95 100 71 7 93
32 71 36 2 13 1 0 3 1 0 0 0 20 80 46 0 2 5 0 3 5 5 42 6 17 100 98 94 100 88 74 91 100 58 96 88 100 100 100 100 100 100 13
25 92 33 11 0 0 1 3 0 0 89 62 0 6 69 0 5 5 0 0 3 5 5 36 75 65 46 94 100 97 83 50 100 5 82 78 100 100 100 100 100 100 100
1 63 75 5 0 1 0 0 0 37 100 100 99 4 2 0 4 3 4 5 5 5 5 6 7 92 100 100 81 100 69 84 100 22 26 100 100 100 100 100 100 100 100
0 9 86 20 1 10 21 12 1 47 100 87 28 100 90 25 5 12 5 8 2 4 5 5 5 5 100 100 65 82 97 94 81 93 100 100 100 100 100 100 40 25 39
0 3 47 94 37 6 12 0 19 95 100 100 100 38 99 98 56 99 100 100 100 64 3 2 5 7 99 84 10 97 90 84 100 100 100 100 100 100 95 100 95 100 82
0 20 35 91 100 67 4 1 75 100 100 100 100 100 100 100 100 67 100 100 100 49 19 5 29 36 97 15 72 8 100 100 96 100 100 95 100 100 100 100 100 100 100
0 0 19 57 44 10 17 4 76 100 100 100 100 100 100 100 100 100 100 100 100 100 100 94 98 100 95 5 5 11 100 100 98 100 100 100 100 100 100 100 60 69 5
24 14 1 11 19 97 100 82 81 100 100 100 100 100 100 100 100 100 100 94 100 55 72 100 96 100 88 6 10 29 100 100 100 100 100 100 100 100 100 100 88 100 47
31 6 4 34 55 49 86 100 100 100 100 100 100 100 100 100 100 100 100 100 87 88 92 100 100 99 54 86 81 100 100 100 100 100 100 100 100 100 100 100 98 100 100
2 22 24 74 100 98 100 100 100 100 100 100 100 100 100 100 100 100 100 84 96 100 49 70 100 100 92 87 91 100 100 100 100 100 100 100 100 100 100 100 100 84 100
22 25 75 100 100 100 100 100 100 100 100 100 100 100 100 100 100 100 100 99 100 98 53 90 85 100 100 100 100 100 100 100 100 100 100 100 100 100 100 100 100 100 100
28 43 100 100 100 100 100 100 100 100 100 100 100 100 100 100 100 100 100 91 100 100 91 35 89 100 93 73 99 100 100 100 100 100 100 100 100 100 100 100 100 100 100
15 63 100 100 100 100 100 100 93 75 100 100 100 100 100 100 100 100 100 89 100 100 92 77 98 100 98 70 99 100 100 100 100 100 92 100 100 100 100 100 100 100 100
6 48 100 100 100 97 100 100 100 97 100 100 100 100 100 100 99 100 100 100 100 94 60 80 100 100 98 15 90 100 100 100 100 100 100 100 100 100 100 100 100 100 100
16 64 88 99 100 100 100 99 100 100 100 100 100 100 100 100 100 100 100 100 77 51 100 100 100 99 100 67 95 100 100 100 100 100 100 100 100 100 100 100 100 100 100
3 12 95 100 100 89 100 100 82 100 100 100 100 100 100 100 100 100 100 100 100 100 100 100 100 93 100 100 100 100 100 100 100 100 100 100 100 100 100 100 100 100 100
9 11 85 100 97 100 100 100 99 100 100 100 100 100 100 100 100 100 100 100 100 100 100 100 100 95 100 100 94 93 87 100 100 100 100 100 100 100 100 100 100 100 100
43 49 100 100 100 100 100 100 100 100 100 100 100 100 100 100 100 100 100 100 100 94 98 100 100 98 99 100 95 100 94 100 100 100 100 100 100 100 100 100 100 100 100
100 64 100 100 100 100 100 100 100 100 100 100 100 100 100 100 100 100 100 100 100 100 100 100 82 99 100 100 100 100 100 100 100 100 100 100 100 100 100 100 100 100 100
100 100 72 95 100 100 100 100 100 100 100 100 100 100 100 100 100 100 100 100 100 100 100 100 100 99 91 99 100 100 100 100 100 100 100 100 100 100 100 100 100 100 100
100 73 34 87 100 100 99 100 100 100 100 100 100 100 100 100 100 100 100 100 100 100 100 100 98 94 100 100 100 100 100 100 100 100 100 100 100 100 100 100 84 98 100
100 98 75 100 100 64 92 100 100 100 100 100 100 100 100 100 100 100 100 100 100 100 100 100 100 100 95 100 100 100 100 100 100 100 100 100 100 100 100 100 90 100 100
100 100 100 100 72 19 38 98 100 97 100 100 98 100 100 100 100 100 100 100 100 100 100 100 100 100 100 100 100 100 100 100 100 100 100 100 100 100 85 100 100 98 96

GFSSE_prec_cloud_072.txt.gz
Cloud_Cover
1 23 0 95 100 8 0 2 4 2 0 0 0 0 42 2 0 0 0 0 0 0 0 0 0 0 6 18 10 0 0 0 0 3 21 81 100 100 97 100 11 98 61
10 95 1 48 100 8 0 0 9 26 8 0 8 4 0 5 4 53 2 5 5 5 5 5 0 0 31 93 18 0 0 4 0 5 33 100 100 99 100 100 87 5 3
6 90 41 92 100 17 0 1 16 20 23 21 5 0 3 2 83 91 96 17 99 25 44 6 5 6 44 82 8 5 2 5 3 57 92 53 95 91 58 54 100 50 2
1 84 60 33 100 84 0 0 39 86 77 5 4 0 0 0 62 83 44 5 4 100 83 19 5 32 80 86 94 99 97 5 19 33 49 52 70 79 61 100 96 5 5
31 66 54 18 98 80 0 0 1 79 100 84 13 2 1 0 92 5 1 0 0 4 5 14 96 68 98 94 94 18 48 100 52 88 6 52 72 98 98 100 100 50 5
60 62 35 26 11 65 4 0 0 0 49 100 39 24 2 14 0 5 1 4 0 0 0 56 50 100 59 100 63 6 5 95 90 88 30 93 100 100 100 100 100 100 99
61 90 94 43 24 63 20 1 0 0 11 87 100 100 100 36 33 17 4 5 5 1 1 1 35 24 38 95 100 38 78 100 79 85 100 100 100 100 100 100 100 100 100
9 65 97 96 48 24 100 0 0 77 82 100 99 100 100 100 100 100 100 5 32 96 68 22 16 4 19 78 66 100 100 100 55 100 100 100 100 100 99 98 94 100 86
0 19 59 100 99 20 22 0 66 100 100 100 100 100 100 100 100 100 100 100 100 100 100 100 40 32 33 20 100 5 45 95 100 98 100 100 100 100 100 100 100 100 100
1 2 48 99 100 87 52 56 100 100 100 100 100 100 100 100 100 100 100 100 100 100 100 100 18 97 89 5 87 67 97 100 99 57 100 100 100 100 100 100 100 100 100
25 11 48 100 100 71 8 53 12 100 100 100 100 100 100 100 100 100 100 100 100 100 100 100 100 87 29 43 99 100 98 79 62 80 100 100 100 100 100 100 100 100 84
52 40 26 66 72 40 45 79 20 24 100 100 100 100 100 100 100 100 100 100 100 100 100 49 69 94 41 23 100 96 94 94 100 100 100 100 100 100 100 100 100 100 100
1 23 34 84 100 100 100 100 98 98 100 100 100 100 100 100 100 100 100 100 100 100 100 14 50 36 100 100 89 89 94 100 100 100 100 100 100 100 100 100 100 100 100
20 14 36 100 100 100 100 100 100 99 100 100 100 100 100 100 100 100 100 100 100 100 100 57 90 84 98 84 68 100 72 100 100 100 100 100 100 100 100 100 100 100 100
20 26 100 100 100 100 100 100 100 100 100 100 100 100 100 100 100 89 100 100 100 100 100 38 96 76 99 88 57 100 100 96 99 100 100 100 100 100 100 100 100 100 100
6 57 100 100 100 100 100 94 100 100 100 100 100 100 100 100 100 100 100 100 100 100 100 94 100 92 98 69 79 82 98 100 100 100 100 100 100 100 100 100 100 100 100
5 64 100 100 100 100 100 96 100 100 100 100 100 100 100 100 100 100 100 100 100 100 100 100 75 98 72 6 62 90 99 100 100 100 100 99 100 98 100 100 100 100 100
23 91 100 100 100 100 100 100 98 100 100 100 100 100 100 100 100 100 100 100 100 100 100 100 100 65 67 66 82 74 100 100 100 100 62 12 95 100 100 100 100 100 100
6 98 100 100 100 100 100 98 100 100 100 100 100 100 100 100 100 100 100 100 100 100 100 100 100 95 100 91 100 79 96 100 100 99 98 100 100 100 100 100 100 100 100
23 63 100 100 100 85 59 100 100 100 100 100 100 100 100 100 100 100 100 100 100 100 100 100 100 100 96 73 93 75 91 100 100 95 35 92 100 100 100 100 100 100 100
36 77 100 100 99 100 91 100 100 100 100 100 100 100 100 100 100 100 100 100 100 100 100 100 100 100 100 70 63 92 90 100 100 100 96 96 95 96 100 100 100 100 100
61 79 100 100 100 100 100 99 100 100 100 100 100 100 100 100 100 100 100 100 100 100 100 100 100 100 88 100 100 100 84 85 88 100 100 100 100 100 100 100 100 100 100
45 86 100 100 100 100 100 100 100 96 100 100 100 100 100 100 100 100 100 100 100 100 100 100 100 100 100 100 100 70 96 100 100 100 100 100 100 100 100 100 100 100 100
68 88 100 100 100 100 100 100 100 100 91 100 100 100 100 100 100 100 100 100 100 100 100 100 100 100 100 100 97 85 100 99 100 100 100 100 100 100 100 100 100 100 99
94 100 100 99 100 100 100 100 100 100 73 100 100 100 100 100 100 100 100 100 100 100 100 100 100 100 100 100 100 85 100 99 100 100 100 100 100 100 100 100 100 100 100
99 100 65 100 100 100 100 100 100 100 100 90 98 100 100 100 100 100 100 100 100 100 100 100 100 100 100 100 100 100 100 100 100 100 100 100 100 100 100 100 100 100 100

GFSSE_prec_cloud_075.txt.gz
Cloud_Cover
1 1 57 100 43 0 0 0 0 0 0 0 1 0 0 0 14 54 2 0 0 4 7 13 3 14 64 17 0 0 0 0 0 0 0 0 24 94 50 5 6 45 5
0 0 0 69 54 0 8 0 0 0 0 0 0 0 0 0 1 5 5 12 14 3 9 5 5 5 22 12 0 0 0 0 5 5 12 92 100 100 46 5 16 21 5
0 29 6 90 98 0 5 29 23 5 1 3 0 0 0 4 0 4 27 7 99 64 9 47 69 18 100 15 5 5 5 5 81 3 26 100 84 98 35 5 40 87 19
1 31 0 70 100 4 0 2 84 95 13 12 16 1 11 0 0 0 4 7 34 89 23 15 6 100 91 61 50 100 5 29 48 43 91 84 79 36 6 37 37 92 54
0 15 8 58 100 42 0 0 36 100 98 14 28 1 6 0 1 7 46 5 0 1 100 83 34 99 7 80 22 5 5 5 95 19 64 98 78 24 46 6 41 100 30
0 17 95 35 100 100 0 0 0 80 88 66 14 5 7 76 59 0 40 5 1 2 2 98 86 28 10 8 5 33 5 29 100 35 58 24 53 43 40 16 97 89 18
41 39 77 34 100 100 17 0 0 43 58 100 31 7 68 87 21 100 8 67 0 4 4 3 91 52 13 59 12 2 94 9 18 46 32 65 86 99 100 100 100 100 81
26 79 86 98 100 100 84 0 0 1 69 100 100 90 63 98 100 100 100 29 7 5 5 19 19 23 98 100 99 2 57 22 78 8 95 41 70 100 100 100 100 100 100
0 37 100 100 98 100 100 24 0 2 97 100 100 100 100 100 100 100 100 95 57 10 51 97 99 39 10 51 100 98 100 71 99 87 29 41 100 100 97 100 100 90 100
0 6 88 100 100 100 59 61 1 4 100 100 100 100 100 100 100 100 100 100 100 100 100 100 100 99 81 5 99 91 73 5 16 26 91 37 100 100 100 50 100 100 100
30 22 85 100 99 100 73 96 7 5 100 100 100 100 100 100 100 100 100 100 100 100 100 100 100 76 100 42 99 89 18 5 0 13 96 84 83 100 100 100 100 100 100
2 35 62 88 57 100 69 93 30 0 57 100 100 100 100 100 100 100 100 100 100 100 100 100 100 100 94 76 8 45 93 89 87 11 91 60 100 100 100 100 100 100 100
0 24 44 94 100 100 100 100 94 61 25 94 100 100 100 100 100 100 100 100 100 100 100 100 100 29 88 12 5 82 28 96 99 78 90 96 100 100 100 100 100 100 100
0 4 42 100 100 100 100 100 100 97 100 100 99 98 100 100 100 100 100 100 100 100 98 89 98 97 14 26 11 57 47 70 98 100 100 100 100 100 100 100 100 100 100
5 5 66 100 92 100 100 100 100 100 73 89 100 100 100 100 100 100 100 100 100 100 100 99 90 88 25 72 88 94 100 98 100 100 100 100 100 100 100 100 100 100 100
5 2 97 100 100 100 100 100 100 100 72 92 100 100 100 100 100 100 100 100 100 100 100 100 92 95 70 40 100 100 100 90 98 100 100 99 100 100 100 100 100 100 100
5 4 100 98 100 100 100 100 100 100 100 100 100 100 100 98 100 100 100 100 100 100 100 100 92 54 40 11 100 100 52 99 100 100 81 100 100 100 100 100 88 100 100
4 32 97 100 100 100 100 100 100 100 100 100 100 100 100 99 100 100 100 100 100 100 100 100 100 83 84 83 69 64 97 100 100 100 97 67 100 78 100 100 100 100 100
5 12 98 100 100 100 100 100 100 100 100 100 100 100 100 100 100 100 100 100 100 100 100 100 100 67 100 78 97 97 100 100 84 100 100 100 100 100 99 100 100 100 100
48 10 86 100 100 100 100 100 100 100 100 100 100 98 100 100 100 100 100 100 100 100 100 100 86 100 100 100 71 26 100 100 100 100 100 99 100 99 100 91 100 100 100
26 86 100 100 100 100 100 100 100 100 100 100 100 100 100 100 100 100 100 100 100 100 100 100 100 100 100 100 99 81 100 100 78 94 100 100 88 82 86 98 100 100 100
25 87 100 90 90 97 50 61 100 100 100 100 100 100 100 100 100 100 100 100 100 100 100 100 100 100 100 100 83 99 96 91 98 100 99 100 100 100 100 100 100 100 92
83 69 97 76 100 74 100 100 100 100 100 100 100 100 100 100 100 100 100 100 100 100 100 100 100 100 100 99 78 71 85 99 100 100 100 100 100 100 100 100 100 100 100
99 91 70 95 100 100 100 100 100 100 100 100 100 100 100 100 100 100 100 100 100 100 100 100 100 100 100 100 100 98 94 100 100 100 98 100 100 100 100 100 100 100 100
56 79 100 100 97 100 100 100 100 100 88 100 100 100 100 100 100 100 100 100 100 100 100 100 100 100 100 100 100 88 99 100 100 100 100 100 100 100 100 100 100 100 100
98 100 100 100 99 100 100 79 100 100 100 88 100 100 100 100 100 100 100 100 100 100 100 100 100 100 100 100 100 100 100 100 100 100 100 100 100 100 100 100 100 100 100

GFSSE_prec_cloud_078.txt.gz
Cloud_Cover
0 0 0 0 0 0 0 0 0 0 0 0 0 0 0 0 0 0 4 0 0 0 2 56 13 100 82 50 3 2 0 0 0 0 0 0 14 20 0 0 0 34 5
0 0 0 0 0 0 5 0 0 0 0 0 0 0 0 0 0 1 4 0 5 0 5 5 5 9 54 5 5 0 0 0 0 4 0 0 18 7 0 0 69 25 5
0 0 0 14 0 0 8 10 0 0 0 0 0 0 0 0 3 0 0 5 5 5 5 5 5 11 17 12 5 0 2 5 5 5 3 85 83 15 2 0 1 5 5
0 0 0 0 0 0 0 1 0 0 0 0 0 0 1 4 4 0 3 4 1 73 5 5 20 12 16 5 5 5 9 6 5 5 44 92 81 34 9 5 10 13 6
0 0 0 0 16 0 3 0 0 0 9 4 12 0 1 9 0 0 0 0 5 7 74 7 5 31 6 5 5 83 91 34 28 63 100 100 100 26 21 12 12 10 24
0 0 40 15 99 2 0 0 0 96 86 100 12 0 1 1 1 0 2 96 11 2 0 4 14 55 69 11 5 6 26 11 11 100 100 100 100 10 24 6 86 22 5
0 0 0 20 50 24 0 0 0 66 100 100 64 3 0 0 2 30 76 82 93 90 0 0 25 53 80 5 5 5 5 13 100 94 100 84 55 71 51 40 16 31 62
0 0 0 18 1 0 0 0 0 2 28 100 80 96 38 42 97 100 100 100 99 97 16 8 34 99 22 5 65 5 5 21 92 100 100 95 23 70 60 93 73 96 24
0 0 5 85 35 1 4 0 0 6 0 5 78 100 100 100 100 100 100 100 100 80 71 86 26 38 10 13 56 5 1 2 92 100 100 100 66 69 100 100 100 100 100
0 0 98 100 100 53 74 48 0 0 0 0 88 100 100 100 100 100 100 100 100 100 96 24 26 100 40 32 6 31 29 2 63 89 99 98 84 71 100 100 91 100 100
1 0 76 100 100 43 96 72 63 0 0 1 98 100 100 100 100 100 100 100 100 100 100 100 98 100 100 100 100 33 89 50 58 63 58 7 38 98 91 100 66 93 100
0 0 32 100 100 70 89 88 29 27 9 8 100 100 100 100 100 100 100 100 100 100 100 100 85 100 85 59 41 24 100 66 16 7 34 28 62 86 77 100 100 100 100
0 0 0 54 7 35 49 99 37 53 56 73 100 100 100 100 100 100 100 100 100 100 100 100 89 99 96 48 79 43 57 54 15 5 15 14 54 98 91 96 100 100 100
0 0 0 16 14 67 100 100 68 30 53 50 100 100 100 100 100 100 100 100 100 100 100 100 98 100 92 100 78 92 38 17 73 32 99 100 100 100 100 100 100 100 100
0 0 0 84 91 100 100 100 100 50 100 100 100 97 100 98 100 100 100 100 100 100 100 100 100 100 97 80 60 34 95 58 16 100 100 54 77 100 92 100 100 100 100
1 0 0 13 99 55 82 92 100 100 97 100 100 68 91 92 100 100 100 100 100 100 100 100 83 92 99 88 65 85 98 100 100 99 100 73 100 99 100 100 100 100 100
0 0 3 28 100 81 31 97 100 100 100 100 100 96 99 68 100 100 100 100 100 100 100 100 90 100 99 100 58 94 98 100 100 98 84 100 100 100 93 100 100 100 100
0 0 17 25 82 59 54 100 100 100 100 100 100 100 100 100 100 100 100 100 100 100 100 100 100 100 97 100 100 90 94 88 100 100 100 99 98 100 100 100 100 100 100
2 5 64 3 67 68 90 100 99 100 100 100 100 100 100 100 100 83 100 100 100 100 100 100 100 99 100 99 100 100 88 89 92 100 100 79 80 100 76 96 100 100 100
5 78 100 52 64 73 100 86 100 100 100 100 100 100 100 98 100 100 100 100 100 100 100 100 100 100 100 90 100 96 98 88 89 85 100 100 100 100 100 43 37 94 89
32 100 99 76 100 95 97 100 100 100 100 100 100 100 100 100 100 100 100 100 100 100 100 100 100 100 100 100 100 100 100 100 99 100 100 86 100 94 89 100 61 8 20
84 97 66 47 100 100 80 100 100 100 100 100 93 100 82 94 82 100 100 100 100 100 100 100 100 100 100 100 95 100 100 100 100 95 98 87 97 91 100 100 99 100 99
100 87 49 33 100 58 78 99 97 85 100 99 95 100 100 100 96 100 100 100 100 100 100 100 100 100 100 100 100 100 100 85 100 100 100 100 92 86 100 100 79 88 100
100 99 86 100 82 42 42 44 39 51 100 75 100 100 100 100 100 100 100 100 100 100 100 100 100 100 100 100 100 100 100 90 96 100 100 100 99 98 97 99 98 100 100
100 100 100 100 94 33 36 8 20 86 100 76 98 100 100 100 100 100 100 100 100 100 100 100 100 100 100 100 100 100 100 100 100 99 99 100 100 100 100 100 100 97 100
100 100 100 95 95 39 45 35 47 50 100 95 100 100 100 100 100 100 100 100 100 100 100 100 100 100 100 100 100 100 100 100 100 100 100 100 100 100 100 100 100 100 100

GFSSE_prec_cloud_081.txt.gz
Cloud_Cover
0 0 0 0 0 0 0 0 0 0 0 0 0 0 0 0 0 0 0 0 0 0 0 0 0 0 0 0 0 0 2 1 0 0 0 0 20 0 0 0 0 25 7
0 0 15 0 0 0 0 0 0 0 0 0 0 12 0 0 0 0 0 0 0 0 0 0 3 100 98 6 0 5 0 0 0 0 0 0 6 0 0 0 3 22 0
0 0 1 0 0 0 0 0 0 0 0 0 0 4 0 0 0 0 0 0 0 3 1 11 5 5 4 8 2 4 0 0 0 0 0 44 44 12 0 0 0 2 20
0 0 0 0 0 0 0 0 0 0 0 0 0 1 0 0 0 0 0 0 5 2 4 5 5 22 17 5 1 2 0 0 0 0 70 100 87 29 0 0 18 32 23
0 0 0 0 0 0 0 0 0 0 0 0 0 0 0 0 0 0 0 16 14 5 5 5 19 27 5 5 5 0 3 0 0 95 66 71 61 22 10 5 1 1 5
0 0 40 0 0 0 0 0 0 0 29 15 4 0 0 0 0 0 49 14 67 4 98 83 10 20 5 5 5 5 3 2 1 38 99 81 77 43 19 5 5 5 5
0 0 0 0 0 0 0 0 0 0 10 49 45 18 0 0 2 15 68 99 63 96 100 100 100 32 89 6 5 5 5 3 36 98 95 64 56 71 96 51 14 5 5
0 0 0 0 0 0 0 0 0 0 100 100 98 6 5 99 100 100 100 100 100 100 100 100 100 88 100 100 88 28 8 34 100 89 39 59 40 100 100 87 22 5 22
0 0 0 0 1 0 0 0 0 0 1 20 9 4 97 100 100 100 100 100 100 100 99 100 42 13 16 47 18 5 6 95 95 97 42 44 5 72 25 43 6 62 22
0 0 5 5 6 3 8 3 0 0 0 0 0 2 100 100 100 100 100 100 100 100 100 100 86 15 40 11 5 5 3 0 75 85 100 39 5 100 100 100 100 99 87
0 0 30 54 0 0 47 31 50 4 0 7 1 0 100 100 100 100 100 100 100 100 100 100 100 5 9 56 100 100 50 2 51 91 30 2 5 5 55 100 100 100 100
5 0 25 95 1 0 3 96 65 85 2 2 1 1 93 100 100 100 100 100 100 100 100 100 88 28 57 100 100 100 76 91 69 100 8 4 5 5 5 5 73 42 96
5 5 6 72 10 3 0 97 41 100 89 58 81 29 74 100 100 100 100 100 100 100 100 100 100 100 30 42 96 6 78 100 86 88 5 6 5 45 50 15 95 100 100
54 5 1 21 0 0 0 70 8 84 100 68 59 27 100 100 100 100 100 100 100 100 100 100 100 100 91 68 90 5 100 25 99 99 18 29 37 12 70 13 94 98 92
6 0 0 7 0 0 42 54 66 21 89 83 90 23 100 100 100 100 100 100 100 100 100 100 100 100 100 94 62 13 99 94 100 97 84 100 95 100 9 92 97 95 100
0 0 0 22 1 33 59 100 100 42 77 40 76 52 100 100 100 100 100 100 100 100 100 100 100 100 100 64 100 98 91 66 97 100 100 96 60 100 84 98 82 100 100
0 0 0 44 21 6 0 95 100 60 100 94 100 93 33 100 100 100 100 100 100 100 100 100 100 100 86 97 97 100 70 75 100 100 100 100 85 92 85 60 100 100 100
0 0 0 28 22 0 0 56 100 98 100 100 94 81 77 49 67 100 100 100 100 100 100 100 100 100 100 100 100 89 100 52 100 100 100 100 61 100 100 41 92 100 96
0 0 1 44 14 4 1 89 100 100 100 97 100 100 91 70 71 61 88 100 100 100 100 100 100 100 100 100 100 97 100 60 98 100 91 100 100 90 100 100 100 82 98
0 0 5 30 25 22 28 100 91 100 100 100 100 100 69 75 93 100 51 100 100 100 100 100 100 100 100 100 100 100 100 100 100 98 91 100 100 97 100 91 100 100 100
0 0 0 20 27 17 1 53 100 94 100 100 97 99 85 89 74 87 100 100 100 100 100 100 100 100 100 100 100 100 100 100 100 99 69 97 100 100 100 100 38 67 100
0 0 0 26 40 9 34 91 100 70 49 57 92 89 92 64 94 52 87 100 100 100 100 100 100 100 100 100 100 100 99 99 99 79 98 100 100 96 92 83 96 64 89
2 0 0 54 99 7 78 100 100 41 70 95 100 74 99 55 71 70 100 100 100 100 100 100 100 100 100 100 100 100 100 96 81 100 100 100 99 100 100 87 98 100 92
0 0 4 100 40 31 98 100 86 92 63 76 72 58 46 100 100 100 100 100 100 100 100 100 100 100 100 100 100 100 100 100 100 100 100 100 96 70 94 100 100 97 100
0 0 99 100 89 100 100 100 31 5 86 64 91 64 100 98 100 92 100 100 100 100 100 100 100 100 100 100 100 100 100 100 100 100 99 100 100 99 100 100 98 100 71
0 27 100 93 100 100 100 35 6 13 53 67 100 88 100 100 100 100 100 100 100 100 100 100 100 100 100 100 100 100 100 100 100 100 100 100 100 98 88 98 100 100 100

GFSSE_prec_cloud_084.txt.gz
Cloud_Cover
0 0 0 0 0 0 0 0 0 0 0 0 0 0 0 0 0 0 0 0 0 0 0 0 0 0 0 0 0 0 0 1 0 0 0 0 0 0 0 0 0 20 0
0 0 1 0 0 0 0 0 0 0 0 0 0 0 0 0 0 0 0 0 0 0 0 14 3 0 0 0 0 0 5 0 0 0 0 0 0 0 0 13 0 6 0
0 0 0 0 0 0 0 0 0 0 0 0 0 0 0 0 0 0 0 0 0 0 7 11 0 3 0 1 0 1 4 0 0 0 0 0 0 0 0 0 0 0 12
0 0 0 0 0 0 0 0 0 0 0 0 0 0 0 0 0 0 0 0 0 0 4 12 2 6 12 4 0 5 3 0 0 0 0 0 26 0 0 6 9 16 25
0 0 0 0 0 0 0 0 0 0 0 0 0 2 0 0 0 0 0 0 0 1 0 7 9 33 50 15 4 0 0 0 0 1 22 0 11 24 22 25 13 2 0
0 0 18 0 0 0 0 0 0 0 2 0 0 0 0 0 0 0 0 0 3 5 97 100 100 100 100 18 28 4 0 0 27 34 89 17 15 8 7 5 5 5 2
6 5 3 0 0 0 0 0 0 0 6 0 0 0 0 0 0 10 92 100 100 97 100 100 100 94 96 100 100 8 0 7 0 23 4 2 28 100 100 59 26 0 1
89 96 81 48 55 3 0 0 0 0 1 0 18 67 0 0 9 100 100 100 100 100 100 100 100 100 100 100 100 54 0 0 17 38 51 4 99 100 100 95 20 0 5
55 46 67 51 27 1 0 0 0 0 0 84 75 11 0 2 98 100 100 100 100 100 100 100 100 100 100 100 53 4 0 0 27 2 9 7 97 100 100 90 18 4 12
55 76 31 5 0 0 0 3 0 0 0 0 0 0 0 1 100 91 100 100 100 100 100 100 100 100 65 58 25 5 5 2 35 18 1 1 7 8 66 82 90 99 66
98 91 94 33 5 0 0 0 0 0 0 5 5 0 37 0 97 100 100 100 100 100 100 100 100 100 100 41 5 5 47 79 24 41 1 7 0 12 93 100 100 100 100
100 94 99 67 5 4 3 0 0 0 0 0 0 0 0 0 82 100 100 100 100 100 100 100 100 100 100 95 7 5 86 100 100 98 3 3 5 30 6 100 100 100 100
98 100 100 100 86 5 2 3 0 0 0 0 0 0 0 3 67 100 100 100 100 100 100 100 100 100 99 14 19 91 94 18 72 96 93 5 17 8 15 12 98 100 100
100 97 100 100 90 65 74 0 0 0 0 0 0 0 0 33 97 100 100 100 100 100 100 100 100 100 100 66 16 6 34 83 97 59 100 73 46 22 8 72 71 26 97
100 100 100 99 18 3 0 0 0 0 0 26 0 0 8 19 30 100 100 100 100 100 100 100 100 100 100 96 100 32 34 98 73 74 75 98 98 100 91 100 70 98 80
100 100 83 8 0 2 0 0 0 0 1 0 0 9 10 2 25 100 100 100 100 100 100 100 100 100 100 100 100 100 42 88 72 82 61 70 100 100 52 94 100 100 91
100 12 100 3 0 0 0 17 0 0 0 2 0 0 6 67 90 100 100 100 100 100 100 100 100 100 100 100 100 100 96 72 100 45 94 100 100 94 89 100 92 96 9
100 100 42 5 0 0 3 2 20 95 28 0 5 99 20 11 88 100 100 100 100 100 100 100 100 100 100 100 100 100 100 99 100 10 100 100 100 100 100 100 100 100 49
100 100 100 41 2 0 2 1 5 92 3 0 92 100 57 34 12 94 100 100 100 100 100 100 100 100 100 100 100 100 100 97 97 98 85 99 100 100 100 100 74 100 100
100 100 100 9 13 8 42 4 7 93 89 35 27 73 55 33 11 23 100 100 100 100 100 100 100 100 100 100 100 100 100 100 77 100 100 100 99 100 100 100 100 100 92
100 99 100 79 18 0 36 5 44 74 100 52 95 100 96 15 9 33 62 57 100 100 100 100 100 100 100 100 100 100 100 100 100 100 100 100 100 100 98 100 100 100 52
100 84 100 58 4 8 23 5 2 0 3 18 60 93 100 39 85 54 65 96 100 100 100 100 100 100 100 100 100 100 100 100 100 100 100 100 98 69 100 100 100 100 100
100 97 63 6 0 6 5 4 37 17 15 100 100 50 20 96 100 37 99 100 100 97 100 100 100 100 100 100 100 100 100 100 100 99 100 100 100 66 100 100 100 100 99
26 1 0 0 0 26 5 79 7 5 37 84 99 12 20 50 45 35 98 100 82 100 100 100 100 100 100 100 100 100 100 99 99 100 100 100 90 100 100 100 100 100 100
3 0 0 0 0 12 100 88 5 54 100 75 6 28 100 99 50 59 92 99 100 100 100 100 100 100 100 100 100 100 100 100 100 98 91 98 100 100 100 100 100 100 99
0 0 0 0 0 98 100 56 92 100 100 5 44 100 100 100 100 100 92 100 100 100 100 100 100 100 100 100 100 100 100 100 100 100 100 100 100 100 100 100 100 93 100

GFSSE_prec_cloud_087.txt.gz
Cloud_Cover
0 0 0 0 0 0 0 0 0 0 0 0 0 0 0 0 0 0 0 0 0 0 0 0 0 0 0 0 0 2 0 0 0 0 0 0 5 5 3 2 0 0 0
0 0 0 0 0 0 0 0 0 0 0 0 0 0 0 0 0 0 0 0 0 0 0 0 0 0 0 0 0 0 0 3 0 0 0 0 0 0 0 0 0 3 0
0 0 0 0 0 0 0 0 0 0 0 0 0 0 0 0 0 0 0 0 0 0 7 2 1 5 1 0 0 0 1 5 0 0 0 0 0 3 0 0 0 0 10
0 0 0 0 0 0 0 0 0 0 0 0 0 0 0 0 0 0 0 0 0 0 1 9 11 30 34 2 1 0 0 2 0 0 0 0 11 10 1 6 22 24 18
0 1 2 0 0 0 0 0 0 0 0 0 0 0 0 0 0 0 0 0 0 0 0 62 100 100 93 56 100 60 5 4 2 0 0 0 1 9 33 45 24 20 5
2 41 54 5 2 0 0 0 0 0 0 0 0 0 0 0 0 0 0 0 0 2 38 100 100 99 80 100 54 98 7 9 5 0 0 0 20 45 47 34 14 29 8
0 6 82 8 20 3 0 0 5 5 4 0 0 0 0 0 0 0 0 2 94 100 100 100 100 100 100 56 7 51 97 44 5 0 0 4 10 93 100 74 58 7 11
2 29 17 3 87 50 40 59 30 5 4 0 0 0 0 0 0 0 1 100 100 100 100 100 100 100 100 100 72 100 100 42 3 0 0 1 94 100 100 100 100 98 94
0 7 7 8 100 100 96 32 5 4 3 4 1 69 0 0 0 0 40 100 100 100 100 100 100 100 100 100 100 70 12 4 3 3 1 37 41 84 100 100 100 100 100
5 1 6 97 100 44 94 6 6 5 2 0 0 3 0 0 0 0 69 100 100 100 100 100 100 100 100 100 97 8 4 5 60 33 0 0 5 95 100 98 80 90 15
2 7 100 100 100 37 100 24 24 19 5 5 1 0 0 2 0 9 69 100 100 100 100 100 100 100 100 100 100 100 5 4 2 32 55 4 0 12 5 4 100 100 100
5 79 100 87 100 100 100 58 93 67 26 7 1 0 4 16 29 47 69 100 100 100 100 100 100 100 100 100 100 100 99 50 0 10 82 32 5 83 4 4 100 100 100
5 100 100 77 93 100 83 100 98 37 50 6 0 0 13 40 61 95 80 100 100 100 100 100 100 100 100 100 100 100 100 90 39 33 8 22 62 52 6 26 100 100 100
5 91 100 93 100 96 100 100 100 100 72 4 0 0 40 95 66 98 53 100 100 100 100 100 100 100 100 100 60 100 78 100 100 21 5 98 85 90 96 87 100 100 100
14 100 100 44 92 11 100 100 100 88 2 0 0 0 16 48 39 34 20 100 100 100 100 100 100 100 100 100 100 100 100 92 77 4 55 96 85 94 36 100 99 100 100
82 20 54 61 40 97 100 100 52 1 0 0 0 0 7 28 4 17 21 75 100 100 100 100 100 100 100 100 100 100 74 100 83 49 63 45 25 88 19 94 100 75 100
100 77 5 54 100 100 100 38 7 0 4 0 0 0 0 0 0 27 37 29 100 100 100 100 100 100 100 100 100 100 93 100 67 54 57 6 26 100 93 100 94 100 100
100 100 6 68 100 100 100 93 59 3 24 3 3 0 0 0 2 100 44 100 100 100 100 100 100 100 100 100 100 100 100 100 86 76 18 5 74 91 100 100 93 100 100
100 100 99 100 100 100 100 100 100 5 18 35 1 0 0 0 12 96 53 100 100 100 100 100 100 100 100 100 100 100 100 100 100 99 96 30 100 100 80 100 100 85 76
100 100 100 100 100 100 100 100 96 6 81 24 17 0 0 70 66 44 56 82 100 100 100 100 100 100 100 100 100 100 100 100 100 99 86 82 99 100 100 100 100 86 71
100 100 100 100 100 100 100 88 91 100 100 80 32 0 0 8 27 55 93 100 99 100 100 100 100 100 100 100 100 100 100 100 100 100 100 90 72 98 100 77 100 100 100
100 100 100 100 100 100 92 52 100 95 100 50 20 2 0 9 30 48 91 100 94 74 100 100 100 100 100 100 100 100 100 100 100 100 100 100 100 100 100 82 86 100 100
100 100 100 100 93 100 32 85 46 3 19 39 16 2 14 36 18 50 90 100 89 85 100 100 100 100 100 100 100 100 100 100 100 100 100 100 100 100 100 98 100 87 98
100 100 100 100 100 100 100 54 29 27 76 33 0 6 16 23 30 69 93 91 92 96 95 100 99 100 100 100 100 100 100 100 100 100 100 100 100 100 100 95 89 100 100
100 100 100 100 58 8 5 5 5 5 95 25 5 97 23 33 50 59 79 100 100 100 86 98 100 100 100 100 100 100 100 100 100 100 100 100 100 95 100 100 100 100 100
87 18 100 100 100 73 2 1 78 50 45 9 5 22 46 95 91 61 80 89 81 100 100 98 100 100 100 100 100 100 100 100 100 100 100 100 100 99 100 100 100 100 100

GFSSE_prec_cloud_090.txt.gz
Cloud_Cover
7 12 1 0 0 0 0 0 0 0 0 0 0 0 0 0 0 0 0 0 0 0 0 1 0 0 0 0 0 11 0 0 0 0 0 0 23 21 7 53 52 74 15
0 21 0 0 0 0 0 0 0 0 0 0 0 0 0 0 0 0 0 0 0 0 0 0 0 0 0 0 3 2 2 5 5 0 0 0 2 100 38 3 11 23 6
0 8 13 0 0 0 0 0 0 0 0 0 0 0 0 0 0 0 0 0 0 0 3 6 0 8 0 0 3 1 4 0 5 0 0 2 4 95 48 6 0 4 24
0 1 2 0 0 2 0 0 0 0 0 0 0 0 0 0 0 0 0 0 0 0 25 39 19 45 52 99 76 73 26 17 5 2 0 0 17 100 85 19 7 12 10
0 0 0 0 5 5 4 0 0 0 0 0 0 0 0 0 0 0 0 0 6 0 2 57 72 100 100 100 100 100 80 77 5 5 13 5 6 58 60 15 10 19 5
0 0 2 0 0 0 1 5 0 0 0 0 0 0 0 0 0 0 0 0 0 0 0 28 100 100 100 100 100 99 5 6 56 3 0 2 8 63 100 46 5 5 30
0 0 8 0 0 2 5 2 4 5 1 0 2 5 5 1 0 0 0 0 0 0 11 100 100 100 100 100 100 100 6 5 27 92 5 5 7 100 100 45 32 98 98
1 1 16 3 0 0 5 4 5 6 5 20 5 5 4 0 0 0 0 0 0 5 100 100 100 100 100 100 100 98 71 8 5 73 5 2 6 100 100 99 36 98 100
6 12 42 41 22 4 5 5 5 14 13 24 9 36 18 5 5 0 0 0 0 9 100 100 100 100 100 100 100 100 100 80 7 4 0 0 14 14 98 100 100 100 100
100 100 75 68 43 60 49 5 16 23 20 12 49 9 5 2 5 0 0 0 0 66 100 100 100 100 100 100 100 100 100 38 37 4 46 2 0 100 100 100 100 92 99
25 100 100 81 45 50 76 17 5 26 74 100 97 84 6 6 11 0 0 0 0 100 100 100 93 100 100 100 100 100 100 86 30 56 20 38 38 100 98 61 16 30 20
100 100 100 88 100 41 38 50 82 29 55 100 100 100 100 36 31 5 0 0 4 100 100 100 86 100 100 100 100 100 99 88 48 48 3 6 13 72 74 56 5 100 100
45 64 98 48 40 24 14 48 66 89 89 85 69 99 90 82 87 43 38 37 20 58 100 100 100 100 100 100 100 100 100 100 100 98 11 41 15 100 92 17 11 54 100
4 74 100 76 5 16 25 97 57 99 56 100 66 100 87 100 100 94 99 100 58 65 100 100 100 100 100 100 100 100 100 100 10 18 60 24 9 65 100 68 82 99 100
3 22 94 70 5 11 20 96 71 36 52 100 100 68 100 100 100 100 100 100 100 72 100 100 100 100 100 100 100 100 100 100 100 100 56 84 6 100 100 100 91 100 100
3 10 96 78 12 4 8 65 85 56 34 100 81 66 65 97 97 100 96 100 99 100 100 100 100 100 100 100 100 100 100 100 100 100 8 8 5 100 81 100 100 100 100
16 11 73 100 65 8 5 5 8 51 100 100 90 43 52 44 45 42 61 100 100 100 100 100 100 100 100 100 100 100 100 100 100 100 100 88 74 100 100 100 95 98 100
5 8 96 98 100 44 47 8 13 100 100 100 54 31 46 36 26 36 36 20 71 99 100 100 100 100 100 100 100 100 100 100 93 100 97 100 87 18 84 100 99 98 100
100 100 100 63 100 81 10 22 44 97 100 100 80 18 32 44 35 53 67 53 50 100 100 100 100 100 100 100 100 100 100 100 100 95 96 100 100 82 59 99 100 97 100
37 100 97 93 97 100 99 96 57 100 100 98 30 11 6 18 15 39 68 80 81 99 100 100 100 100 100 100 100 100 100 100 100 99 81 90 100 49 96 70 99 99 90
98 100 5 5 78 100 100 100 100 100 97 100 100 69 5 5 4 73 54 86 100 100 100 100 100 100 100 100 100 100 100 100 100 100 100 97 100 100 100 90 100 100 53
98 99 21 90 100 100 100 100 100 89 21 78 65 76 6 8 16 24 23 87 100 100 100 100 100 100 100 100 100 100 100 100 100 100 100 100 100 100 100 74 100 100 50
31 8 45 100 100 86 41 100 100 15 47 67 98 50 22 7 22 34 35 87 100 100 100 100 100 100 100 100 100 100 100 100 100 100 100 100 100 100 100 100 100 100 81
1 10 100 100 100 71 100 100 54 17 96 97 89 67 15 13 45 76 92 95 73 100 100 100 100 100 100 100 100 100 100 100 100 100 100 100 100 100 100 100 100 100 100
10 96 100 100 100 100 90 99 100 100 100 70 60 53 16 28 42 72 100 100 100 97 100 100 100 60 100 100 100 100 100 100 100 100 100 100 100 100 100 100 100 100 100
100 100 52 100 100 100 100 100 63 100 100 69 94 44 70 67 69 98 100 100 100 100 100 100 100 91 82 100 100 100 100 100 100 100 100 100 100 100 100 100 100 100 100

GFSSE_prec_cloud_093.txt.gz
Cloud_Cover
0 11 0 0 30 11 0 0 0 0 0 0 0 0 0 0 0 0 0 0 0 0 0 3 1 0 0 0 0 0 0 3 3 5 0 2 5 1 10 5 3 6 3
0 7 0 7 75 8 0 0 0 0 0 0 0 0 0 5 0 0 0 0 0 0 2 1 0 0 0 0 0 0 3 9 29 5 5 5 54 89 30 5 5 8 0
0 0 1 1 46 14 0 0 0 0 0 0 0 0 0 0 0 0 0 0 0 0 5 1 0 0 0 0 0 81 24 89 40 80 5 5 98 100 54 4 5 1 1
0 3 12 2 6 11 0 0 0 0 0 0 0 0 0 0 0 0 0 0 0 0 37 4 0 2 0 22 100 98 20 5 72 5 5 5 89 100 98 15 9 5 12
1 19 30 11 10 9 0 2 2 0 0 0 0 0 0 0 0 0 0 0 0 0 0 64 99 59 33 100 100 97 91 73 35 48 19 5 100 100 86 38 2 10 1
10 13 41 6 0 0 0 0 2 0 0 0 0 0 0 0 0 0 0 0 0 0 0 50 18 56 100 100 100 100 100 99 42 25 36 6 75 98 95 25 0 5 5
12 19 33 10 2 0 0 0 0 0 0 0 0 0 0 0 0 0 0 0 0 0 0 3 34 100 100 100 100 100 100 100 22 26 23 16 65 100 100 36 5 6 38
6 30 38 16 13 8 1 0 0 0 0 0 0 0 4 3 5 5 5 3 0 0 0 2 80 87 100 100 100 100 100 100 100 33 25 62 38 98 100 59 5 9 65
37 27 50 56 32 10 13 12 16 7 3 0 0 0 1 5 5 5 0 0 0 0 0 2 10 37 100 100 100 100 100 100 92 36 19 9 1 61 100 100 15 77 100
98 100 100 100 65 65 44 10 15 26 25 20 9 1 6 83 21 4 0 0 0 0 0 2 31 100 100 100 100 100 100 100 100 10 8 14 4 100 99 100 99 91 99
64 100 100 100 100 100 100 80 21 23 35 32 23 16 100 99 59 25 94 32 3 0 0 0 3 100 100 100 100 100 100 100 100 32 16 21 5 71 100 100 85 94 100
77 91 100 100 100 100 96 56 59 79 85 57 36 32 100 100 96 9 5 55 6 0 0 4 1 100 100 100 100 100 100 100 100 100 64 3 5 100 100 100 47 98 100
80 93 73 100 100 100 75 100 100 99 45 37 25 27 100 86 79 36 67 56 29 9 34 16 5 100 100 100 100 100 100 100 100 100 8 5 84 100 100 100 94 100 100
10 16 99 100 100 100 47 95 100 100 98 93 49 34 98 100 100 100 86 73 34 50 48 82 98 100 100 100 100 100 100 100 100 100 100 47 83 100 96 82 84 100 100
0 5 91 100 100 100 87 62 94 99 100 62 56 67 100 100 100 100 100 100 90 99 78 82 69 100 100 100 100 100 100 100 100 100 100 85 22 68 5 95 96 100 100
0 0 22 64 100 100 88 45 45 51 52 56 64 99 100 100 100 100 100 100 100 100 47 40 62 100 100 100 100 100 100 100 100 100 100 100 95 16 48 24 75 100 100
0 0 2 59 69 92 100 94 76 42 43 44 55 98 100 100 100 100 100 100 100 100 99 40 43 100 100 100 100 100 100 100 100 100 100 100 100 87 5 87 100 92 100
11 0 5 18 61 100 100 100 41 78 46 45 53 85 100 100 100 100 100 100 100 100 100 85 63 100 100 100 100 100 100 100 100 100 100 100 92 87 70 67 93 100 97
97 10 3 5 35 100 100 100 13 31 47 66 56 100 100 100 100 58 99 100 100 100 100 100 67 100 100 100 100 100 100 100 100 100 100 100 53 67 96 74 87 100 100
88 100 54 63 98 93 100 71 48 54 57 87 100 98 100 100 100 81 100 100 100 100 100 100 100 100 100 100 100 100 100 100 100 100 100 100 78 91 97 81 100 100 100
6 70 100 81 100 83 100 100 98 61 72 100 100 100 100 100 100 100 100 100 100 100 100 100 100 100 100 100 100 100 100 100 100 100 100 100 100 98 100 100 96 100 100
73 100 47 100 100 100 100 100 31 18 98 100 100 100 99 54 92 99 100 100 100 100 100 100 100 100 100 100 100 100 100 100 100 100 100 100 100 100 100 91 100 100 100
38 97 70 100 100 100 100 100 57 76 100 100 100 100 100 82 65 90 74 100 100 100 100 100 100 100 100 100 100 100 100 100 100 100 100 100 100 100 100 100 100 100 98
100 100 46 100 100 100 100 98 20 89 87 100 100 100 100 86 63 48 88 90 100 100 100 100 100 100 100 100 100 100 100 100 100 100 100 100 100 100 100 100 100 100 100
80 56 100 100 78 100 75 19 29 94 100 100 100 100 100 84 86 100 100 100 100 100 100 100 100 100 100 100 100 100 100 100 100 100 100 100 100 100 100 100 100 100 100
100 100 100 100 100 100 100 93 99 100 100 100 100 100 98 100 100 100 100 89 86 100 100 100 100 100 100 100 100 100 100 100 100 100 100 100 100 100 100 100 100 100 100

GFSSE_prec_cloud_096.txt.gz
Cloud_Cover
0 1 0 4 11 3 0 0 0 0 0 0 0 0 0 0 0 0 0 0 0 0 0 24 0 0 0 0 0 0 0 0 2 3 5 4 5 5 10 5 10 55 5
0 11 0 0 12 0 0 0 0 0 0 0 0 0 0 0 0 0 0 0 0 0 1 7 0 0 0 0 0 0 0 1 5 35 24 28 5 5 22 6 19 70 16
0 14 0 3 2 17 2 0 0 0 0 0 0 10 2 0 0 0 0 0 0 0 8 11 0 0 0 0 0 0 6 19 53 96 94 100 74 60 45 7 74 57 5
0 1 1 1 100 22 1 0 0 0 0 0 0 3 21 7 0 0 0 0 0 0 0 0 1 0 0 0 0 52 100 77 43 100 96 99 92 100 97 6 5 5 4
0 0 4 10 56 28 1 0 0 0 0 0 0 0 6 7 0 0 0 0 0 0 0 24 2 0 0 2 18 100 100 100 100 100 70 100 100 100 86 2 8 74 96
27 11 17 12 27 20 13 0 0 0 0 0 0 0 0 0 0 0 0 0 0 0 0 0 88 0 24 100 99 100 100 100 100 100 100 100 100 100 18 19 5 37 40
33 29 43 16 26 20 14 1 0 0 0 0 0 0 0 0 0 0 0 0 0 0 0 0 0 94 100 100 100 100 100 100 100 100 100 24 100 91 100 96 54 6 5
10 36 39 44 25 18 10 2 0 1 2 0 0 0 0 0 0 0 0 0 0 0 0 0 0 0 5 94 100 100 100 100 100 100 100 12 56 100 100 48 1 4 8
14 59 70 78 36 5 5 14 2 0 2 4 1 0 0 0 0 0 0 1 0 0 0 0 0 0 0 2 97 100 100 100 100 100 64 8 31 93 100 38 25 5 94
80 98 100 100 99 67 29 9 5 5 7 45 72 2 4 0 0 0 100 99 2 0 0 0 0 0 0 12 97 100 100 100 100 100 40 5 100 15 100 100 84 90 100
62 98 100 100 100 100 96 99 100 99 100 100 86 6 30 19 6 0 84 61 2 0 4 0 0 0 33 63 18 100 100 100 100 86 65 5 98 31 100 100 100 50 100
100 100 100 100 100 100 100 99 81 100 100 100 100 60 41 36 27 11 100 5 4 0 1 2 0 0 13 44 29 100 100 100 100 100 100 82 5 16 99 100 31 74 100
2 6 99 100 100 100 100 100 100 100 100 100 100 68 57 71 69 41 89 35 35 21 65 34 16 15 29 25 50 100 100 100 100 100 100 98 71 8 81 94 5 98 100
5 9 10 89 100 100 100 100 100 100 100 100 100 53 100 100 100 96 100 73 44 54 82 43 32 13 29 32 97 100 100 100 100 100 100 100 100 100 97 100 100 54 97
35 56 5 21 72 97 100 100 100 100 100 100 100 87 100 100 100 100 100 83 48 46 75 100 99 82 34 60 90 100 100 100 100 100 100 100 100 100 100 100 100 50 35
4 4 4 10 6 31 100 100 100 100 100 100 100 100 100 100 100 100 100 100 100 64 94 100 100 100 74 59 100 100 100 100 100 100 100 100 100 100 100 100 70 24 66
5 100 100 4 39 9 44 43 93 100 100 100 100 100 100 100 100 100 100 100 100 100 100 76 100 100 100 100 98 100 100 100 100 100 100 100 100 100 100 21 92 86 69
23 84 10 5 32 15 2 11 100 68 78 97 100 100 100 100 100 100 100 100 100 100 100 87 100 100 99 56 100 100 100 100 100 100 100 100 100 100 100 75 50 98 99
0 4 5 5 17 73 21 7 61 100 68 67 100 100 100 100 100 100 100 100 100 100 100 100 100 100 100 76 100 100 100 100 100 100 100 100 100 100 96 99 98 99 100
5 6 1 96 5 45 64 91 97 100 100 97 100 100 100 100 100 100 100 100 100 100 100 96 95 100 100 100 100 100 100 100 100 100 100 100 100 100 100 100 100 100 100
24 0 0 5 2 49 89 100 100 100 100 100 100 100 100 100 100 100 100 100 100 100 100 100 100 100 100 100 100 100 100 100 100 100 100 100 100 100 98 100 99 83 100
0 0 0 0 1 30 8 99 100 100 100 100 100 100 100 100 100 100 100 100 100 100 100 100 100 100 100 100 100 100 100 100 100 100 100 100 100 100 100 99 96 85 59
0 0 0 6 0 28 65 100 81 81 98 100 100 100 100 100 100 100 100 100 100 100 100 100 100 100 100 100 100 100 100 100 100 100 100 100 100 100 100 100 92 99 90
29 43 0 14 92 100 78 100 100 30 75 100 100 97 100 100 100 100 100 100 100 85 100 100 100 100 100 100 100 100 100 100 100 100 100 100 100 100 100 100 99 100 100
89 100 58 100 100 100 100 100 100 85 100 100 60 100 100 100 100 100 100 100 100 100 100 100 100 100 100 100 100 100 100 100 100 100 100 100 100 100 100 100 100 100 100
100 100 92 100 100 100 100 100 100 13 100 91 90 99 100 100 100 100 100 100 100 100 100 93 100 100 100 100 100 100 100 100 100 100 100 100 100 100 100 100 100 100 100

GFSSE_prec_cloud_099.txt.gz
Cloud_Cover
0 0 12 0 0 0 0 0 0 0 0 0 0 0 0 0 0 0 0 0 0 0 3 32 0 0 0 0 0 0 0 0 0 1 2 2 25 5 13 54 87 71 100
0 0 9 1 1 0 0 0 0 0 0 0 0 0 0 0 0 0 0 0 0 0 0 0 0 0 0 0 0 0 0 0 4 5 2 5 31 37 35 5 5 53 85
0 0 4 0 1 0 0 0 0 0 0 0 0 0 0 0 0 0 0 0 0 1 0 0 0 0 0 0 0 0 0 0 5 51 100 72 90 100 50 29 80 100 100
0 0 0 10 0 0 0 0 0 0 0 0 0 0 0 0 0 0 0 0 0 0 0 3 1 0 0 0 0 0 0 5 46 99 100 100 100 92 87 90 53 99 53
0 0 0 0 0 2 0 0 0 0 0 0 11 19 13 0 0 0 0 0 0 0 0 2 1 0 0 0 0 0 5 64 100 100 100 97 100 100 82 100 13 16 5
0 0 22 0 0 3 0 0 0 0 0 0 0 19 47 1 0 0 0 0 0 0 0 0 0 0 0 0 2 91 12 100 100 100 100 100 92 100 75 6 5 5 5
7 1 5 12 19 1 0 0 0 0 0 0 0 0 3 0 0 0 0 0 0 0 0 0 0 0 0 0 2 59 99 100 100 100 100 97 100 33 26 24 63 6 5
27 54 8 31 30 8 0 0 0 0 0 0 0 0 0 0 0 0 2 0 0 0 0 0 0 0 0 0 0 3 95 100 100 100 100 96 97 6 24 96 37 5 2
63 75 59 39 60 39 22 7 1 4 5 66 56 27 0 0 0 38 9 0 0 1 1 0 0 0 0 0 0 0 8 100 100 100 100 83 45 11 99 39 13 5 4
50 91 99 99 100 97 66 15 1 0 0 5 61 100 100 33 5 76 65 3 0 0 68 0 0 0 0 0 6 0 29 100 100 100 100 100 71 100 100 69 30 7 5
39 80 100 100 100 100 100 86 38 12 3 6 3 12 68 79 83 100 16 2 2 0 44 3 3 1 0 17 8 27 8 53 100 100 100 100 100 100 100 100 70 75 74
5 88 100 100 100 100 100 100 82 81 44 55 48 34 30 84 32 94 9 5 2 1 0 4 5 1 36 8 32 41 19 90 100 100 100 100 100 100 100 100 99 99 94
11 5 56 100 100 100 100 100 100 100 100 100 98 100 89 61 23 26 50 31 23 1 2 17 9 0 7 22 8 33 68 84 100 100 100 100 100 100 99 100 100 100 87
5 1 5 45 33 97 100 100 100 100 100 100 100 100 100 100 100 74 67 57 60 42 76 57 78 77 23 22 22 37 59 45 100 100 100 100 100 100 100 42 86 94 100
15 34 32 38 5 18 100 100 100 100 100 100 100 100 100 100 100 82 93 89 58 61 70 76 95 77 59 46 65 55 5 22 100 100 100 100 100 100 100 100 99 99 34
89 73 90 36 39 27 98 30 77 100 100 100 100 100 100 100 100 100 100 100 74 90 95 94 97 98 77 74 96 95 71 69 100 100 100 100 100 100 100 100 100 87 54
98 98 65 14 7 30 29 7 60 80 96 100 100 100 100 100 100 100 100 100 100 98 100 100 100 100 98 98 96 100 100 57 100 100 100 100 100 100 100 100 100 100 92
100 87 81 30 5 27 71 88 98 60 70 100 100 100 100 100 100 100 100 100 100 50 100 100 100 100 100 74 85 100 94 77 100 100 100 100 100 100 100 100 100 100 99
93 6 5 5 25 96 100 83 47 66 69 89 100 100 100 100 100 100 100 100 100 96 100 100 100 99 100 100 100 100 99 100 100 100 100 100 100 100 100 100 100 100 96
40 5 30 95 92 87 5 34 86 95 94 91 77 100 100 94 100 100 100 100 100 100 100 100 100 100 100 100 100 100 100 100 100 100 100 100 100 100 100 100 100 100 100
6 5 58 5 5 35 72 23 49 100 100 85 53 100 100 97 100 100 100 100 100 100 100 100 100 100 100 100 100 100 100 100 100 100 100 100 100 100 100 100 100 100 100
18 80 91 16 0 8 44 0 0 36 100 98 100 100 100 94 100 100 100 100 100 100 100 100 100 100 100 100 100 100 100 100 100 100 100 100 100 100 100 100 100 100 100
4 4 17 33 9 0 0 0 34 93 100 100 100 100 100 100 100 100 100 100 100 100 100 100 100 100 100 100 96 100 100 100 100 100 100 100 100 100 100 100 100 100 100
5 84 100 100 70 24 25 13 76 69 100 100 100 100 100 100 100 100 100 100 100 100 100 100 90 100 100 100 100 95 100 100 100 100 100 100 100 100 100 100 100 100 100
80 95 100 100 100 100 99 0 26 100 100 86 100 100 100 100 100 100 100 100 100 100 100 99 100 100 100 100 100 100 100 100 100 100 100 100 100 100 100 100 100 100 100
100 100 100 100 100 100 100 70 99 100 93 100 99 100 100 98 100 100 100 100 100 100 100 95 76 100 100 100 100 100 100 100 100 100 100 100 100 100 100 100 100 100 100

GFSSE_prec_cloud_102.txt.gz
Cloud_Cover
0 0 0 0 0 0 0 0 0 0 0 0 0 0 0 0 0 0 0 0 0 0 5 0 0 0 0 0 0 0 0 0 0 0 1 4 4 44 5 79 78 90 59
0 0 20 0 0 0 0 0 0 0 0 0 0 0 0 0 0 0 0 0 0 0 0 52 3 4 0 0 0 0 0 0 0 0 0 4 78 99 100 92 63 40 100
0 0 5 0 0 0 0 0 0 0 0 0 0 0 0 0 0 0 0 0 0 5 3 3 0 0 0 0 0 0 0 0 0 0 5 38 73 100 100 9 36 62 62
0 0 0 4 0 0 0 0 0 0 0 0 0 0 0 0 0 0 0 0 0 0 0 2 0 0 0 0 0 0 0 0 0 5 33 75 88 94 98 58 100 58 94
0 0 0 5 0 0 0 0 0 0 0 0 0 0 0 0 0 0 0 0 0 17 0 1 0 0 0 0 0 0 0 2 5 6 100 53 76 99 100 94 100 94 77
0 0 40 7 0 0 0 0 0 0 0 0 0 0 0 0 0 0 0 0 0 0 0 0 0 0 0 0 0 0 4 5 5 48 70 100 98 73 99 18 8 57 28
0 0 1 41 11 0 0 0 0 0 0 0 0 0 0 0 0 0 0 0 0 0 0 0 0 0 0 0 0 0 5 5 5 71 77 100 99 100 31 71 62 61 95
0 3 9 31 35 0 0 0 0 0 0 0 0 0 0 0 0 0 0 0 0 0 5 1 0 0 0 0 0 0 2 5 5 34 61 100 100 100 70 96 98 99 67
16 2 13 36 19 54 0 0 1 0 0 0 0 0 0 0 1 0 5 4 5 4 4 5 0 3 84 52 0 0 0 4 5 22 79 100 100 100 90 80 71 92 57
52 30 37 88 100 23 1 20 1 0 0 0 0 3 1 9 0 4 13 10 62 50 5 0 0 0 0 5 0 0 0 11 5 74 93 100 100 100 100 89 100 98 95
37 36 96 100 100 100 55 18 53 22 1 9 5 2 68 26 47 5 0 1 10 91 53 1 1 1 0 12 20 14 26 20 20 20 97 100 100 100 100 100 100 100 100
23 11 0 53 75 100 100 96 41 26 2 4 2 0 0 11 19 2 1 0 4 4 24 4 5 1 41 99 74 54 62 96 31 17 55 100 100 100 100 100 100 100 99
5 5 0 12 100 44 78 92 100 100 80 56 33 11 18 8 14 35 71 15 8 12 56 20 14 2 6 31 100 15 21 27 40 12 98 100 100 100 100 100 100 100 92
4 1 8 100 89 10 4 23 63 73 100 100 100 96 34 48 5 6 9 90 94 99 100 76 98 63 70 87 80 73 75 59 95 55 100 100 100 100 100 100 100 100 100
44 38 86 19 17 5 4 5 6 46 32 92 98 100 100 100 54 5 8 50 92 100 100 94 69 100 74 75 98 65 100 73 74 39 100 100 100 100 100 100 100 100 100
6 16 32 80 66 7 45 92 21 5 5 43 99 100 100 100 100 100 100 91 12 100 100 100 89 92 84 100 100 100 94 95 92 40 77 100 100 100 100 100 100 100 100
94 100 100 100 32 67 100 98 59 7 24 73 100 100 100 100 90 42 100 100 99 100 100 100 97 79 64 76 98 95 66 87 70 61 12 100 100 100 100 100 100 100 100
100 99 97 80 100 100 100 78 42 20 21 74 100 100 100 100 100 100 100 92 100 99 100 100 100 88 99 78 99 93 67 97 84 87 16 100 100 100 100 100 100 100 100
90 100 100 100 100 100 100 100 85 97 98 86 100 100 100 100 99 100 100 100 100 100 100 100 100 100 100 85 99 98 70 7 100 98 80 100 100 100 100 100 100 100 100
24 59 95 100 100 96 100 100 100 58 100 100 99 100 100 100 85 100 100 100 100 100 100 100 100 100 100 100 95 99 84 100 98 94 100 100 100 100 100 100 100 100 100
6 5 5 5 5 8 32 6 65 12 15 98 100 100 97 100 100 100 100 100 100 100 100 100 100 100 100 100 99 100 100 81 79 100 100 100 100 100 100 100 100 100 100
28 7 6 5 2 4 38 43 23 76 100 100 86 46 75 100 100 100 100 94 100 100 100 100 100 100 100 100 100 100 100 100 100 100 100 100 100 100 100 100 100 100 100
100 94 100 23 37 10 20 4 49 100 100 100 100 77 72 99 100 100 100 92 100 100 100 100 100 100 100 100 84 76 100 96 100 100 100 100 100 100 100 100 100 100 100
5 14 16 61 40 38 83 49 4 4 5 9 2 18 100 99 100 98 95 100 100 100 100 100 100 100 100 100 100 98 96 67 100 100 100 100 100 100 100 100 100 100 100
6 24 41 78 94 70 100 100 86 0 0 0 3 87 100 100 100 100 100 100 100 94 98 100 100 100 90 99 100 95 99 96 100 100 100 100 100 100 100 100 100 99 100
12 54 80 64 98 100 100 100 100 76 5 9 4 100 100 100 100 100 96 100 100 100 100 100 100 100 98 95 100 100 100 100 88 100 100 100 100 100 100 100 100 100 100

GFSSE_prec_cloud_105.txt.gz
Cloud_Cover
0 0 0 0 0 0 0 0 0 0 0 0 0 0 0 0 0 0 0 0 0 0 0 0 0 0 0 0 0 0 0 0 0 0 0 2 1 1 12 28 100 49 89
0 0 21 0 0 0 0 0 0 0 0 0 0 0 0 0 0 0 0 0 0 0 0 1 0 1 0 0 0 0 0 0 0 0 0 0 6 7 11 94 18 97 56
0 0 1 0 0 0 0 0 0 0 0 0 0 0 0 0 0 0 0 0 0 30 1 0 0 2 0 0 0 0 0 0 0 0 0 10 48 5 30 88 81 5 82
0 0 0 0 0 0 0 0 0 0 0 0 0 0 0 0 0 0 0 0 0 11 30 66 12 6 0 0 0 0 0 0 0 0 2 86 16 63 99 100 87 12 92
0 0 0 0 0 0 0 0 0 0 0 0 0 0 0 0 0 0 0 0 0 0 28 7 1 0 0 0 0 0 0 0 0 0 94 95 88 44 84 100 99 59 84
0 0 40 0 0 0 0 0 0 0 0 0 0 0 0 0 0 0 0 0 0 0 0 0 0 0 0 0 0 0 0 1 30 1 9 84 22 7 100 100 100 59 16
0 0 0 0 0 0 0 0 0 0 0 0 0 0 0 0 0 0 0 0 0 0 0 0 0 0 0 0 0 0 0 1 4 28 94 100 6 39 100 100 100 87 52
0 0 0 20 0 0 0 0 0 0 0 0 0 0 0 0 0 0 0 0 0 0 0 2 4 3 5 3 0 0 0 2 4 66 100 100 23 21 100 100 100 100 79
2 20 17 21 7 27 0 0 0 0 0 0 4 0 0 0 0 0 0 4 3 2 0 0 5 5 4 5 0 0 0 0 0 34 100 100 90 73 100 100 100 98 100
4 98 60 93 24 7 2 7 0 4 5 26 4 0 3 7 0 4 1 6 5 28 5 17 2 0 5 5 0 1 0 46 0 37 100 32 99 100 100 100 98 100 100
1 70 100 100 100 26 17 8 53 24 4 12 3 2 68 0 2 0 0 0 0 24 40 5 6 41 4 8 0 0 24 100 43 34 2 9 23 100 100 100 98 100 100
0 46 100 100 100 100 51 94 8 2 14 10 0 0 0 1 2 0 0 0 0 2 0 0 0 1 48 8 12 48 90 100 69 80 100 36 99 100 100 100 100 100 100
0 35 87 99 97 100 92 72 86 81 87 12 13 11 9 5 13 13 10 4 3 12 2 18 14 10 25 9 47 28 26 100 70 98 96 95 61 100 100 100 100 100 100
0 5 93 97 100 100 65 68 93 59 72 10 8 15 8 1 0 0 5 42 25 40 26 81 1 7 100 100 90 57 5 97 100 65 97 86 88 100 100 100 100 100 100
5 5 5 44 16 75 97 56 46 40 36 82 35 40 15 5 3 0 5 48 100 100 91 50 52 70 88 77 98 76 31 47 100 94 100 87 85 100 100 100 100 100 100
9 2 5 5 6 2 8 68 73 100 100 81 8 98 100 100 44 5 6 67 100 100 100 74 45 94 10 22 43 98 46 86 100 100 45 100 100 100 100 100 100 100 100
6 5 89 52 54 28 86 99 100 86 22 34 100 90 99 100 100 99 100 100 28 2 53 22 7 21 68 88 39 56 56 100 100 99 77 97 72 100 92 100 100 100 100
5 4 5 14 98 98 100 96 95 39 92 91 100 100 100 100 100 100 100 100 100 3 4 9 42 10 94 93 100 100 44 80 100 97 87 100 96 100 94 100 100 100 100
73 34 5 5 5 11 87 100 100 100 100 100 100 100 100 100 100 100 100 100 100 5 14 80 68 73 86 68 96 99 76 99 100 92 99 96 97 73 100 100 100 100 100
100 98 5 5 5 5 2 7 100 100 100 100 100 100 97 71 100 91 96 100 100 91 91 75 98 72 100 96 100 99 100 99 99 30 51 100 86 87 91 100 100 100 100
11 65 54 5 1 5 5 7 49 46 81 62 22 57 35 72 100 73 95 100 100 95 100 81 99 100 78 100 100 76 100 67 28 86 99 100 70 11 100 100 100 100 100
59 12 14 8 15 17 87 100 100 100 100 95 100 100 98 84 100 100 100 100 99 93 97 33 100 100 100 96 100 100 100 100 100 86 80 88 76 100 100 100 100 100 100
100 100 69 72 99 99 88 35 16 10 10 51 10 5 8 5 4 90 89 100 100 98 100 18 100 97 100 58 100 100 100 100 100 75 98 93 100 100 100 100 100 100 100
4 5 5 8 8 12 56 67 66 17 1 0 0 1 0 1 15 98 55 100 100 100 100 41 74 96 100 80 99 100 100 80 50 100 100 100 100 100 100 100 100 100 100
0 0 3 40 40 63 89 86 88 98 42 0 0 0 0 0 12 100 100 100 100 100 99 70 100 100 88 87 97 100 96 39 70 99 99 100 100 100 100 100 100 100 100
0 16 73 81 71 100 93 100 100 100 100 21 1 0 0 0 1 96 100 100 96 100 67 99 100 86 90 17 34 100 62 95 87 100 98 100 100 100 100 100 100 100 100

GFSSE_prec_cloud_108.txt.gz
Cloud_Cover
0 0 0 0 0 0 0 0 0 0 0 0 0 0 0 0 0 0 0 0 0 0 0 0 0 0 0 0 0 0 0 0 0 0 0 0 0 2 1 5 14 50 8
0 0 13 0 0 0 0 0 0 0 0 0 0 0 0 0 0 0 0 0 0 0 0 0 0 0 0 0 0 0 0 0 0 0 0 0 0 2 5 22 83 52 51
0 0 0 0 0 0 0 0 0 0 0 0 0 0 0 0 0 0 0 0 0 0 0 8 0 0 0 0 0 0 0 0 0 0 0 0 0 9 47 94 58 27 93
0 0 0 0 0 0 0 0 0 0 0 0 0 0 0 0 0 0 0 0 0 0 0 0 2 2 0 0 0 0 0 0 0 0 0 35 97 100 96 41 7 5 6
0 0 0 0 0 0 0 0 0 0 0 0 0 0 0 0 0 0 0 0 0 0 0 7 0 1 0 0 0 0 0 0 0 0 0 36 100 100 100 21 5 95 45
0 0 29 0 0 0 0 0 0 0 0 0 0 0 0 0 0 0 0 0 0 0 0 0 0 0 0 0 0 0 0 0 10 0 0 84 100 100 100 73 90 30 69
0 0 0 0 0 0 0 0 0 0 0 0 0 0 0 0 0 0 0 0 0 0 0 0 0 0 0 0 0 0 0 0 0 0 8 17 100 100 100 49 98 58 97
0 5 0 6 0 0 0 0 0 0 0 0 0 0 0 0 0 1 0 0 0 0 0 0 0 0 0 1 0 0 0 1 0 0 49 48 100 100 100 92 80 96 82
4 14 1 0 0 0 0 0 3 5 3 0 0 0 0 0 4 2 0 0 0 0 0 0 2 5 4 5 5 4 0 0 0 0 32 73 100 100 99 37 91 95 83
0 0 78 83 0 13 1 5 1 0 1 0 0 0 0 6 5 0 0 0 0 0 0 0 0 0 0 0 2 5 6 0 0 0 0 33 47 100 100 98 76 100 100
12 4 0 100 100 0 2 5 15 1 0 3 2 6 90 19 6 0 0 0 0 0 0 0 0 0 0 2 0 0 11 1 0 0 3 35 80 26 68 96 100 100 100
25 5 5 19 100 89 1 2 5 0 0 0 0 5 8 44 37 5 0 0 0 0 0 0 0 0 24 0 9 50 5 0 0 3 97 45 4 5 66 100 100 100 100
9 14 5 4 25 100 68 99 24 4 0 2 5 35 100 85 5 4 4 0 1 5 5 20 43 0 0 0 0 0 0 0 0 2 98 10 19 29 62 99 100 100 100
100 34 82 13 61 3 92 40 91 13 9 71 95 49 3 0 11 100 58 0 100 6 5 5 0 0 0 4 6 4 0 2 5 5 6 94 11 7 64 100 100 100 100
85 41 5 43 51 88 37 21 84 96 100 100 95 99 89 100 100 100 88 5 5 4 76 5 5 2 5 11 99 75 0 2 47 53 100 100 48 48 87 100 100 100 100
32 22 4 2 1 83 20 3 16 41 100 100 100 100 100 100 68 80 96 5 42 100 99 98 10 5 5 8 79 5 0 0 9 100 100 92 92 17 100 100 100 100 100
5 2 31 11 0 5 5 5 2 30 28 87 100 100 85 27 5 60 100 100 100 8 99 15 8 83 17 3 5 5 3 0 5 78 99 100 100 45 100 100 100 100 100
5 1 7 10 12 3 5 5 4 0 22 6 60 74 47 99 100 100 99 100 100 100 78 5 16 65 1 0 5 10 3 0 1 18 100 99 94 53 72 100 100 100 100
3 5 22 80 100 98 34 6 12 5 2 10 5 7 71 83 100 100 100 100 100 80 46 59 0 0 2 1 5 98 100 38 1 18 98 100 86 100 48 100 100 100 100
2 0 0 6 7 49 98 100 92 21 5 0 3 42 7 6 9 11 43 14 97 70 10 5 5 4 0 5 13 100 100 20 12 66 88 100 97 100 34 100 100 100 100
4 2 1 3 48 73 49 14 30 10 11 5 5 5 64 70 66 69 69 40 80 67 90 100 86 5 4 16 24 100 100 99 100 98 100 98 57 15 28 100 100 100 100
4 12 99 62 86 29 27 22 14 20 87 98 100 100 100 100 83 76 61 61 87 100 100 100 100 100 74 32 57 100 100 82 98 99 81 89 100 58 22 32 50 98 100
4 95 81 98 100 98 68 35 44 54 61 12 5 5 5 5 5 2 4 3 86 100 100 100 100 100 50 87 100 28 88 36 35 63 100 97 11 80 65 32 45 100 100
5 1 5 88 99 75 5 3 18 57 91 4 43 50 5 20 83 0 0 0 9 4 100 100 100 100 65 95 96 100 4 2 1 95 97 88 64 88 42 66 100 100 100
9 5 7 100 91 5 5 67 74 61 71 34 1 0 0 0 94 2 0 2 18 0 0 88 54 100 100 23 96 100 31 99 10 6 33 62 94 47 53 100 100 100 100
20 32 86 63 100 34 50 96 76 100 100 100 96 22 0 0 0 97 78 62 26 10 8 3 93 100 100 37 42 100 67 5 21 6 8 14 89 96 100 100 100 100 100

GFSSE_prec_cloud_111.txt.gz
Cloud_Cover
0 0 0 0 0 0 0 0 0 0 0 0 0 0 0 0 0 0 0 0 0 0 0 0 0 0 0 0 0 0 0 0 0 0 0 0 0 0 4 11 18 38 99
0 0 0 0 0 0 0 0 0 0 0 0 0 0 0 0 0 0 0 0 0 0 0 0 0 0 0 0 0 0 0 0 0 0 0 0 0 3 79 100 98 78 95
0 0 0 0 0 0 0 0 0 0 0 0 0 0 0 0 0 0 0 0 0 0 0 0 0 0 0 0 0 0 0 0 0 0 0 0 0 94 75 100 100 96 100
0 0 0 0 0 0 0 0 0 0 0 0 0 0 0 0 0 0 0 0 0 0 0 0 0 0 0 0 0 0 0 0 0 0 0 1 53 100 100 100 100 100 100
0 0 0 0 0 0 0 0 0 0 0 0 0 0 0 0 0 0 0 0 0 0 0 0 0 0 0 0 0 0 0 0 0 0 0 22 89 100 100 100 100 100 100
0 0 0 0 0 0 0 0 0 0 0 0 0 0 0 0 0 0 0 0 0 0 0 0 0 0 0 0 0 0 0 0 0 0 0 5 100 100 100 100 100 100 100
0 0 0 0 0 0 0 0 0 0 0 0 0 0 0 0 0 0 0 0 0 0 0 0 0 0 0 0 0 0 0 0 0 0 1 22 100 100 100 100 100 100 100
0 0 0 0 0 0 0 0 0 0 0 0 0 3 1 0 0 0 0 0 0 0 0 0 0 0 0 0 0 0 0 0 0 0 8 28 100 100 100 100 100 100 100
10 5 5 4 2 0 0 0 0 0 0 0 0 1 2 0 0 0 0 0 0 0 0 0 0 0 0 0 0 0 0 0 0 0 3 3 20 100 100 100 95 85 100
61 40 5 5 10 19 10 0 0 0 2 1 5 0 4 0 0 0 0 2 5 14 4 0 0 0 0 0 0 0 0 2 0 0 0 3 2 92 100 100 100 98 100
50 5 17 8 5 14 18 10 0 0 0 8 7 6 83 38 13 1 0 1 33 100 8 4 1 0 0 0 0 0 13 19 0 0 7 1 1 53 86 100 100 100 100
11 20 5 6 6 27 9 11 17 6 6 19 44 98 100 42 32 11 2 11 100 66 22 91 5 65 3 13 22 10 34 9 0 0 0 2 1 47 33 100 100 100 100
5 99 100 100 100 100 100 42 11 5 5 6 5 38 53 33 79 37 36 5 6 5 60 100 38 76 20 12 17 31 24 0 3 0 0 0 37 9 100 79 100 100 100
100 100 100 100 98 98 100 100 100 48 50 11 60 52 46 89 100 89 90 30 13 100 100 100 52 18 29 100 6 4 0 5 0 0 0 0 5 38 98 96 100 100 100
56 85 95 100 80 19 36 68 54 97 52 48 14 5 95 100 100 100 100 98 100 67 4 5 5 48 83 72 100 4 0 5 0 5 0 1 26 80 33 100 100 100 100
100 51 92 59 52 8 24 83 32 10 40 54 39 8 98 96 100 98 100 100 43 5 0 4 96 57 5 89 50 92 2 5 0 0 10 2 44 100 100 100 100 100 100
100 100 100 100 100 100 8 55 5 4 47 32 7 88 79 100 100 100 87 9 8 5 39 2 0 3 5 12 100 64 3 0 0 0 2 6 5 90 100 100 100 100 100
5 96 100 81 50 5 6 39 42 2 0 0 1 0 40 32 89 100 26 5 0 4 4 5 14 5 5 34 51 4 5 0 0 0 2 5 32 5 67 100 100 100 100
14 19 71 16 5 5 0 5 81 70 15 5 5 10 48 18 22 78 5 0 0 28 9 0 0 0 17 81 90 84 100 68 4 6 0 21 10 6 19 100 100 100 100
99 5 4 1 0 0 0 0 4 18 52 5 5 0 0 1 4 4 67 54 28 44 53 14 5 5 22 100 100 100 99 93 100 33 12 6 37 65 31 73 100 100 100
40 1 5 5 0 2 0 0 0 5 92 94 100 83 5 2 0 2 7 59 67 13 5 56 32 68 98 83 95 100 100 100 100 99 99 57 100 100 91 50 67 100 100
84 23 2 5 5 2 0 0 16 93 18 28 64 29 84 94 67 60 54 8 5 4 7 13 82 93 100 100 100 100 100 100 100 100 100 100 100 97 25 12 75 100 100
39 97 5 5 5 5 5 2 5 5 98 100 76 99 42 2 4 2 4 0 7 1 20 67 90 100 100 100 100 100 100 100 100 100 100 47 100 100 32 40 59 85 100
99 100 71 78 97 54 37 57 94 5 14 64 83 79 5 4 0 0 3 4 0 0 11 8 34 100 100 100 100 100 100 100 100 100 100 98 100 100 49 94 63 66 84
85 100 100 95 99 100 100 100 25 5 35 100 55 56 14 0 0 0 7 35 66 5 4 89 72 100 100 100 100 100 100 100 100 100 100 98 94 68 100 95 100 100 81
100 97 100 99 100 100 100 100 85 52 45 89 100 100 99 93 26 0 0 0 0 30 2 33 100 100 100 80 100 100 100 100 100 100 100 44 74 99 100 100 100 100 91

GFSSE_prec_cloud_114.txt.gz
Cloud_Cover
0 11 0 0 0 0 2 5 3 0 0 0 0 0 0 0 0 0 0 0 0 0 0 0 0 0 0 0 0 0 0 0 0 0 0 0 0 0 2 5 21 33 36
0 0 0 0 0 0 0 0 0 0 0 0 0 0 0 0 0 0 0 0 0 0 7 4 0 0 0 0 0 0 0 0 0 0 0 0 0 2 4 59 56 94 83
0 0 0 0 0 0 0 0 0 0 0 0 0 0 0 0 0 0 0 0 0 0 0 0 0 0 0 0 0 0 0 0 0 0 0 0 0 2 5 42 50 91 97
0 0 0 0 0 0 0 0 0 0 0 0 0 0 0 0 0 0 0 0 0 0 0 0 0 0 0 0 0 0 0 0 0 0 0 0 0 12 87 100 68 99 95
0 0 0 0 0 0 0 0 0 0 0 0 0 0 0 0 0 0 0 0 0 0 0 0 0 0 0 0 0 0 0 0 0 0 0 0 1 42 100 100 86 100 100
3 2 0 0 0 0 0 0 0 0 0 0 0 0 0 0 0 0 0 0 0 0 0 0 0 0 0 0 0 0 0 0 0 0 0 0 3 66 100 100 100 100 100
53 54 4 0 0 0 0 0 0 0 0 0 0 0 0 0 0 0 0 0 0 0 0 0 0 0 0 0 0 0 0 0 0 0 0 0 2 41 100 100 100 99 87
0 6 68 9 4 0 0 0 0 0 0 0 0 0 0 0 0 0 0 0 0 0 0 0 0 2 2 0 0 0 0 0 0 0 3 0 1 11 100 100 98 95 64
0 0 26 22 0 0 0 3 0 2 0 0 0 2 0 0 0 0 0 0 0 0 0 0 2 2 5 4 0 0 0 0 3 5 0 0 0 3 91 100 100 100 100
1 0 13 12 7 11 8 5 10 10 8 0 3 5 10 2 5 5 2 0 0 0 0 0 1 5 22 6 3 4 0 4 16 0 0 0 0 0 63 100 100 100 100
76 1 10 23 20 20 19 9 5 7 13 9 5 5 57 41 13 2 2 0 0 0 1 5 5 72 14 45 56 5 13 25 17 20 11 1 0 0 7 100 100 100 100
13 5 14 16 24 30 4 17 57 67 76 89 87 78 95 97 54 33 5 2 1 3 21 75 46 5 10 92 40 11 37 37 21 4 6 0 0 0 0 62 100 100 100
5 95 62 70 60 24 86 65 98 41 58 59 92 100 100 100 94 70 70 37 24 5 18 98 83 94 100 46 34 34 29 100 30 66 0 0 0 0 5 7 100 100 100
91 100 100 100 100 100 100 100 49 69 32 39 94 76 100 100 100 100 98 61 88 72 36 70 100 100 96 24 12 20 100 24 73 20 1 0 0 0 4 5 99 100 100
100 100 100 100 100 100 100 100 100 49 60 33 52 63 100 90 46 73 91 98 73 23 40 46 54 88 50 38 70 100 23 61 8 38 18 0 0 10 4 5 98 100 100
100 100 100 100 100 100 100 100 100 100 100 97 94 24 100 85 70 100 100 100 100 100 100 96 38 41 40 21 24 14 4 3 5 5 13 3 0 3 4 5 8 100 100
100 100 100 100 100 100 100 76 100 100 91 100 100 70 100 100 100 100 100 100 100 100 100 87 19 22 31 22 3 2 2 5 5 5 5 5 8 0 4 5 59 85 100
100 100 100 100 100 100 74 9 22 99 100 16 44 48 68 98 100 100 100 100 100 100 100 100 75 54 48 36 57 40 27 53 29 86 92 10 23 57 0 5 5 59 100
99 25 69 60 100 8 5 45 12 17 5 5 1 13 18 21 68 19 89 100 100 100 100 100 100 94 52 42 27 28 42 73 83 100 100 71 100 81 16 52 5 54 100
5 37 36 26 14 5 13 3 7 5 0 2 2 0 0 0 0 18 14 41 54 100 100 100 100 100 91 97 68 100 100 100 100 100 100 100 74 90 54 0 19 20 52
95 80 6 1 5 5 44 5 5 5 0 0 0 0 0 3 5 5 0 21 15 7 5 63 100 100 100 100 100 100 100 100 100 100 100 100 100 90 97 94 21 22 26
97 100 100 90 5 5 5 5 5 1 0 0 0 0 0 3 10 12 6 7 13 28 4 63 98 86 100 100 100 100 100 100 100 100 100 100 98 100 100 100 55 50 43
5 5 35 97 18 6 5 5 5 4 0 0 3 0 5 5 5 3 3 15 80 31 88 45 11 19 44 92 98 100 100 100 100 100 100 83 100 100 100 100 59 79 80
43 5 49 85 100 94 5 18 17 17 73 60 68 7 5 5 100 51 3 5 4 2 12 43 38 5 28 85 100 100 100 100 100 100 100 100 100 100 82 95 85 98 100
36 44 44 96 100 100 9 63 98 96 98 100 100 100 100 97 30 5 5 14 0 2 0 34 88 58 2 16 96 100 100 100 100 100 100 100 100 98 42 76 48 22 94
100 100 91 100 84 93 49 78 79 100 100 100 84 97 100 100 100 100 100 97 52 11 4 0 52 51 2 0 1 90 100 100 100 100 100 100 100 100 100 83 27 55 49

GFSSE_prec_cloud_117.txt.gz
Cloud_Cover
1 25 0 0 0 0 0 0 0 1 0 0 3 3 1 2 2 0 0 0 0 0 0 7 0 22 0 0 0 0 0 0 0 0 0 0 4 16 18 0 3 4 5
0 11 0 0 0 0 0 0 0 0 0 0 0 0 0 0 0 0 0 0 0 0 0 1 0 11 0 0 0 0 0 0 0 0 0 0 0 9 9 0 5 5 15
0 0 1 0 0 0 0 0 0 0 0 0 0 0 0 0 0 0 0 0 0 0 0 0 0 1 4 0 0 0 0 0 0 0 0 0 0 0 3 0 26 13 88
1 0 3 0 0 0 0 0 0 0 0 0 0 0 0 0 0 0 0 0 0 0 1 4 1 12 1 0 0 0 0 0 0 0 0 0 0 0 7 83 74 32 82
21 5 2 0 0 0 0 0 0 0 0 0 0 0 0 0 0 0 0 0 0 0 0 0 0 0 0 0 0 0 0 0 0 0 0 0 0 2 4 11 100 100 94
5 5 5 0 0 0 0 0 0 0 0 0 0 0 0 0 0 0 0 0 0 0 0 0 0 0 0 0 0 0 0 0 0 0 0 0 0 4 5 5 100 100 40
60 5 5 0 2 0 0 0 0 0 0 0 0 0 0 0 0 0 0 0 0 0 0 0 0 0 0 0 0 0 0 0 0 0 0 0 0 0 0 5 100 100 35
5 5 5 5 1 0 3 0 0 0 0 0 0 0 0 0 0 0 0 0 0 0 0 0 0 0 0 0 0 0 4 0 0 0 0 0 0 0 5 5 24 100 100
1 0 5 46 4 0 5 5 8 0 0 0 0 1 0 0 0 0 0 0 2 4 4 0 0 0 0 0 0 0 1 2 0 8 1 0 0 0 2 5 4 100 100
29 0 9 21 20 19 11 5 7 14 6 3 3 13 17 2 2 0 0 0 0 0 1 5 3 5 0 1 0 0 4 5 5 2 9 2 0 0 0 0 4 64 100
5 4 10 18 93 70 13 29 28 13 17 20 15 20 81 44 10 2 2 0 0 0 2 21 51 44 6 5 5 0 8 49 23 22 22 3 2 0 0 0 5 5 86
78 10 20 21 22 27 91 10 27 38 62 82 91 76 97 100 87 37 4 2 4 1 5 38 100 100 60 21 21 33 41 30 29 25 20 2 5 0 0 3 0 2 100
100 100 100 87 79 55 97 73 50 90 100 100 100 100 100 100 100 99 89 60 36 12 28 63 100 96 51 60 74 47 37 31 35 27 0 4 0 0 0 0 0 5 88
75 100 100 100 100 100 100 100 100 100 100 100 100 100 100 100 100 100 100 100 100 50 81 54 100 100 83 68 28 32 30 37 34 31 10 2 0 2 0 0 3 68 65
20 84 98 100 100 100 100 100 100 100 100 100 100 92 100 100 100 100 100 100 100 88 69 100 100 100 100 100 100 51 32 29 24 25 26 0 5 8 5 1 0 19 100
7 6 49 77 100 100 100 100 100 100 98 100 84 62 78 96 99 100 100 100 100 89 85 100 100 100 100 100 100 74 48 22 14 10 17 0 5 10 5 5 0 3 100
5 0 5 17 100 100 100 100 100 100 100 99 100 100 100 100 100 100 22 57 68 100 100 100 100 100 100 100 100 93 100 62 83 10 8 12 12 94 6 5 4 0 44
0 3 79 67 17 100 100 100 100 100 100 100 97 73 94 100 100 100 100 100 100 64 100 100 100 100 100 100 100 100 100 100 100 89 77 100 100 100 95 100 96 2 5
0 0 1 92 75 42 100 100 100 100 100 100 100 9 62 99 100 100 100 100 100 100 100 100 100 100 100 100 100 100 100 100 100 100 100 100 100 100 100 100 100 46 2
0 0 0 66 100 100 100 100 70 40 100 83 99 86 5 3 15 86 100 92 100 100 100 100 100 100 100 100 100 100 100 100 100 100 100 100 100 100 98 100 97 99 14
0 0 0 8 100 100 100 93 9 11 8 5 5 16 85 1 0 0 0 0 3 45 100 100 100 100 100 100 100 100 100 100 100 100 100 100 100 100 100 100 100 100 89
5 0 4 48 84 99 100 100 21 49 25 5 53 8 9 27 5 0 0 0 0 0 1 85 100 100 100 100 95 100 100 100 100 100 100 100 100 100 100 100 100 94 100
99 68 99 100 100 96 55 87 20 5 86 67 79 6 7 12 8 2 0 0 6 0 0 0 98 100 100 71 79 100 100 97 64 100 99 100 100 100 100 100 100 100 100
100 100 100 100 100 100 100 83 98 85 80 94 99 67 5 5 5 14 51 69 56 34 15 5 0 64 100 100 100 53 19 88 99 98 98 100 100 100 100 100 100 88 96
92 100 100 100 89 100 52 73 47 100 100 100 100 98 46 40 20 54 100 100 100 100 100 72 9 1 87 100 100 97 72 24 38 96 94 100 100 100 100 100 99 86 100
100 100 100 100 100 100 100 100 81 92 100 100 100 100 100 100 100 90 100 100 100 100 100 100 99 63 24 94 92 12 7 19 32 26 82 100 100 100 100 100 100 100 93

GFSSE_prec_cloud_120.txt.gz
Cloud_Cover
1 3 0 0 0 0 0 0 0 0 0 0 0 0 0 0 0 0 0 0 0 0 8 0 0 0 0 0 0 0 0 0 0 0 0 0 1 17 13 0 0 3 18
37 14 0 0 0 0 0 0 0 0 0 0 0 0 0 0 0 0 0 0 0 0 0 0 7 7 0 0 0 0 0 0 0 0 0 0 0 11 8 0 0 4 5
20 19 3 0 0 0 0 0 0 0 0 0 0 0 0 0 0 0 0 0 0 0 0 0 0 10 0 0 0 0 0 0 0 0 0 0 0 4 2 1 2 100 10
6 13 5 8 20 0 0 0 0 0 0 0 0 0 0 0 0 0 0 0 0 0 0 27 43 6 0 0 0 0 0 0 0 0 1 0 0 1 10 5 7 76 100
1 4 1 5 12 4 0 0 0 0 0 0 0 0 0 0 0 0 0 0 0 0 0 0 29 0 0 0 0 0 0 0 0 0 0 0 0 1 4 5 5 46 100
0 0 2 5 5 21 5 0 0 0 0 0 0 0 0 0 0 0 0 0 0 0 0 0 0 0 0 0 0 0 0 0 0 0 0 0 0 0 1 4 5 5 88
0 0 8 4 5 23 92 28 5 3 0 0 0 0 0 0 0 0 0 0 0 0 0 0 0 0 0 0 0 0 0 0 0 0 0 0 0 0 28 18 6 5 7
1 0 0 1 1 9 5 66 8 5 5 5 4 1 0 0 0 0 0 0 0 0 0 0 0 0 0 0 0 0 0 0 0 1 0 0 0 0 0 11 43 8 5
13 4 0 15 5 0 6 41 96 82 5 5 5 5 5 0 4 0 0 0 0 5 3 0 0 0 0 0 0 0 0 0 0 6 0 5 0 0 0 0 5 3 5
5 5 1 17 24 24 21 68 100 100 8 5 5 5 5 5 5 5 5 2 0 5 2 0 0 0 0 0 0 0 0 1 6 2 7 3 0 0 0 0 0 1 45
5 49 68 17 21 30 34 12 48 100 100 25 18 36 95 42 14 72 11 8 5 5 4 0 0 0 2 0 3 5 5 23 20 10 17 1 0 0 0 0 0 5 17
14 26 98 24 25 23 93 100 100 100 62 49 76 95 97 100 96 99 58 42 10 5 0 0 0 1 7 31 27 11 36 25 26 18 14 5 0 0 0 0 0 0 2
70 59 10 29 58 91 100 82 86 100 100 100 100 100 100 100 100 100 96 69 35 13 31 32 40 38 41 37 37 36 34 26 43 54 20 5 0 0 0 0 0 4 2
68 90 100 19 84 78 93 100 91 99 100 100 100 100 100 100 100 100 100 100 100 88 69 41 73 87 63 45 69 30 33 30 71 100 59 4 5 0 0 4 6 4 2
20 18 52 75 64 93 100 80 90 52 75 100 100 100 100 100 100 100 100 100 100 100 100 100 99 100 100 97 98 36 41 58 48 100 100 57 2 2 2 5 4 5 7
3 8 18 95 100 100 100 82 100 100 99 100 89 100 100 100 100 100 100 100 100 100 100 100 100 100 100 100 100 99 44 39 93 100 100 100 31 5 5 5 5 4 5
0 0 1 57 66 57 62 45 13 23 100 100 100 100 100 100 100 100 100 100 100 100 100 100 100 100 100 100 100 100 100 100 100 100 100 100 100 100 100 100 100 97 3
0 0 25 94 49 6 0 8 100 100 92 34 48 100 100 100 100 100 100 100 100 97 86 99 100 100 100 100 100 100 100 100 100 99 100 100 100 100 100 100 100 100 100
3 0 29 96 67 0 0 0 16 91 100 98 22 100 100 92 93 100 94 93 100 100 100 100 100 100 100 100 100 100 100 100 100 100 100 100 100 100 100 100 84 83 100
0 0 0 34 22 0 0 0 0 2 35 100 100 11 98 94 53 19 5 17 76 53 90 100 100 100 100 100 100 100 100 100 100 100 100 100 100 100 100 100 100 100 100
0 0 0 6 24 0 5 4 5 5 4 99 87 100 30 7 5 28 51 5 5 14 5 91 100 100 100 100 100 100 100 100 100 100 100 100 100 100 100 100 100 100 100
2 0 0 0 5 3 73 100 64 69 13 10 47 100 99 22 5 5 49 39 22 32 4 0 29 100 100 100 100 100 100 100 100 100 100 100 100 100 100 89 98 100 100
89 76 88 68 17 100 100 100 100 66 81 73 61 89 100 88 99 76 16 78 93 98 90 29 12 36 100 100 100 100 100 100 100 100 100 100 100 100 81 75 93 100 100
100 100 100 100 73 100 97 100 100 47 97 100 91 54 58 100 95 99 100 100 100 100 100 100 84 14 26 89 100 100 85 77 100 100 100 100 100 99 96 100 99 24 100
100 100 100 100 56 100 100 100 100 100 87 100 100 93 100 57 54 100 95 100 100 100 100 100 100 100 78 24 90 100 100 100 74 98 87 75 100 100 100 100 100 100 100
100 100 100 100 100 100 100 100 100 100 100 100 100 100 92 100 100 100 100 100 100 100 100 100 100 100 100 100 64 100 100 100 100 98 92 58 5 29 30 9 100 100 99

GFSSE_prec_cloud_123.txt.gz
Cloud_Cover
4 0 0 0 0 0 0 0 0 0 0 0 0 0 0 0 0 0 0 0 0 0 0 12 0 0 0 0 0 0 0 0 0 0 0 0 12 17 0 0 0 15 4
4 5 10 0 0 0 0 0 0 0 0 0 0 0 0 0 0 0 0 0 0 0 0 0 0 0 0 0 0 0 0 0 0 0 0 0 5 18 8 0 0 9 5
0 0 5 0 0 4 0 0 0 0 0 0 0 0 0 0 0 0 0 0 0 0 0 0 0 0 0 0 0 0 0 0 0 0 0 24 20 1 2 0 0 1 3
0 0 0 4 1 3 5 2 0 0 0 0 0 0 0 0 0 0 0 0 0 0 0 0 4 0 0 0 0 0 0 0 0 0 0 0 14 1 13 4 4 1 4
0 0 0 0 2 5 5 5 5 2 2 0 0 0 0 0 0 0 0 0 0 0 0 0 0 0 0 0 0 0 0 0 0 0 0 0 9 23 7 4 5 9 7
0 0 39 0 0 0 5 5 14 68 5 5 0 0 0 0 0 0 0 0 0 0 0 0 0 0 0 0 0 0 0 0 0 0 0 0 4 1 0 0 5 5 94
0 0 0 1 0 0 0 3 5 13 77 61 99 50 28 3 0 0 0 0 0 0 0 2 86 0 0 0 0 0 0 0 0 0 0 0 0 0 0 0 2 1 31
0 0 0 11 0 0 0 0 5 43 46 95 14 32 87 98 25 2 0 0 0 0 0 0 0 0 0 0 0 0 0 0 1 0 0 0 0 0 0 0 0 0 1
0 0 4 0 4 23 1 39 94 12 77 100 8 5 5 61 100 53 2 2 5 5 5 0 0 0 0 0 0 0 0 0 0 2 3 3 0 3 0 0 0 0 0
0 0 0 5 23 15 6 7 38 8 5 19 39 40 5 6 8 98 70 5 5 5 5 5 4 0 0 0 0 0 0 9 3 5 5 5 5 5 5 0 0 0 0
22 0 0 0 0 11 18 6 40 12 5 12 35 100 80 37 5 43 87 100 35 37 26 6 4 0 0 9 0 0 14 5 4 5 5 5 5 6 17 0 0 0 1
100 62 5 12 12 70 76 100 100 40 99 87 69 100 100 96 94 40 70 100 88 99 69 41 5 3 53 26 5 55 8 5 4 5 27 20 51 30 5 0 0 0 0
100 100 100 100 28 21 11 19 77 89 86 92 94 100 100 100 100 100 97 64 36 19 18 43 50 47 56 45 45 42 85 6 5 7 17 48 100 38 5 0 0 0 0
92 99 81 80 43 21 18 37 76 68 100 100 92 100 100 100 100 100 100 100 100 100 100 100 87 52 55 81 96 73 45 74 5 10 6 60 99 5 5 14 5 4 5
93 37 5 5 31 36 46 77 80 87 100 100 100 100 100 100 100 100 100 100 100 100 100 100 53 80 100 100 100 94 80 95 5 5 48 5 100 95 5 5 7 98 100
91 58 24 53 100 100 99 74 79 77 91 100 100 100 100 100 100 100 100 100 100 100 100 64 100 100 100 100 100 100 96 37 51 8 8 59 100 100 98 61 37 48 100
4 6 11 100 37 100 100 77 84 27 100 100 97 100 100 100 98 84 68 100 100 93 100 100 100 100 100 100 100 100 100 88 100 100 83 79 89 100 100 100 100 100 100
20 28 52 100 98 100 100 100 98 86 88 94 96 100 100 100 100 100 100 100 100 100 100 85 96 100 100 100 100 100 100 100 100 100 100 100 100 86 100 100 90 85 100
40 97 100 100 100 100 100 100 62 36 2 7 5 1 4 1 2 4 22 63 100 100 100 100 99 100 100 100 100 100 100 100 100 100 100 100 100 100 100 96 98 88 98
51 100 100 100 100 100 100 97 51 22 0 0 0 0 0 0 0 0 4 5 34 20 100 100 100 100 100 100 100 100 100 100 100 100 99 100 100 100 100 100 99 98 100
32 48 92 100 100 100 100 73 6 0 0 0 0 0 0 0 2 5 5 5 5 62 95 5 95 100 100 100 99 100 100 100 100 100 100 100 100 100 100 100 100 100 100
13 41 100 100 100 100 100 94 42 30 30 8 5 4 5 43 50 28 50 61 84 51 63 32 4 6 99 95 100 100 100 100 100 100 100 100 100 100 100 100 100 99 80
98 95 99 100 100 100 100 100 82 10 99 86 73 5 14 54 72 83 100 100 100 100 100 100 87 34 25 100 100 70 100 100 100 100 100 100 100 100 100 100 100 100 96
63 91 56 56 100 100 100 100 66 79 63 99 100 82 59 64 97 100 100 100 100 100 100 100 100 100 100 50 81 95 77 100 100 100 100 100 100 100 100 100 100 100 100
100 62 11 100 49 97 100 99 88 41 87 100 100 100 100 98 100 100 100 100 100 100 100 100 100 100 100 100 78 93 100 82 100 100 100 100 80 94 100 100 100 100 100
100 100 100 84 96 59 88 97 74 99 100 100 100 100 100 100 100 100 100 100 100 100 100 100 100 100 100 100 100 96 100 100 100 72 95 87 100 91 46 97 100 100 100